[[{"header":{"parameterUnit":"m.s-1","parameterCategory":1,"la1":31.0,"la2":29.5877,"lo1":-88.7671,"lo2":-86.6584,"dy":0.0162,"dx":0.0185,"nx":115,"ny":88,"refTime":"2023-10-05T06:00:00:Z","depth":0,"parameterNumber":2,"parameterNumberName":"U-component_of_WINDS"},"data":[0.0,0.0,0.0,0.0,0.0,0.0,0.0,0.0,0.0,0.0,0.0,0.0,0.0,0.0,0.0,0.0,0.0,0.0,0.0,0.0,0.0,0.0,0.0,0.0,0.0,0.0,0.0,0.0,0.0,0.0,0.0,0.0,0.0,0.0,0.0,0.0,0.0,0.0,0.0,0.0,0.0,0.0,0.0,0.0,0.0,0.0,0.0,0.0,0.0,0.0,0.0,0.0,0.0,0.0,0.0,0.0,0.0,0.0,0.0,0.0,0.0,0.0,0.0,0.0,0.0,0.0,0.0,0.0,0.0,0.0,0.0,0.0,0.0,0.0,0.0,0.0,0.0,0.0,0.0,0.0,0.0,0.0,0.0,0.0,0.0,0.0,0.0,0.0,0.0,0.0,0.0,0.0,0.0,0.0,0.0,0.0,0.0,0.0,0.0,0.0,0.0,0.0,0.0,0.0,0.0,0.0,0.0,0.0,0.0,0.0,0.0,0.0,0.0,0.0,0.0,0.0,0.0,0.0,0.0,0.0,0.0,0.0,0.0,0.0,0.0,0.0,0.0,0.0,0.0,0.0,0.0,0.0,0.0,0.0,0.0,0.0,0.0,0.0,0.0,0.0,0.0,0.0,0.0,0.0,0.0,0.0,0.0,0.0,0.0,0.0,0.0,0.0,0.0,0.0,0.0,0.0,0.0,0.0,0.0,0.0,0.0,0.0,0.0,0.0,0.0,0.0,0.0,0.0,0.0,0.0,0.0,0.0,0.0,0.0,0.0,0.0,0.0,0.0,0.0,0.0,0.0,0.0,0.0,0.0,0.0,0.0,0.0,0.0,0.0,0.0,0.0,0.0,0.0,0.0,0.0,0.0,0.0,0.0,0.0,0.0,0.0,0.0,0.0,0.0,0.0,0.0,0.0,0.0,0.0,0.0,0.0,0.0,0.0,0.0,0.0,0.0,0.0,0.0,0.0,0.0,0.0,0.0,0.0,0.0,0.0,0.0,0.0,0.0,0.0,0.0,0.0,0.0,0.0,0.0,0.0,0.0,0.0,0.0,0.0,0.0,0.0,0.0,0.0,0.0,0.0,0.0,0.0,0.0,0.0,0.0,0.0,0.0,0.0,0.0,0.0,0.0,0.0,0.0,0.0,0.0,0.0,0.0,0.0,0.0,0.0,0.0,0.0,0.0,0.0,0.0,0.0,0.0,0.0,0.0,0.0,0.0,0.0,0.0,0.0,0.0,0.0,0.0,0.0,0.0,0.0,0.0,0.0,0.0,0.0,0.0,0.0,0.0,0.0,0.0,0.0,0.0,0.0,0.0,0.0,0.0,0.0,0.0,0.0,0.0,0.0,0.0,0.0,0.0,0.0,0.0,0.0,0.0,0.0,0.0,0.0,0.0,0.0,0.0,0.0,0.0,0.0,0.0,0.0,0.0,0.0,0.0,0.0,0.0,0.0,0.0,0.0,0.0,0.0,0.0,0.0,0.0,0.0,0.0,0.0,0.0,0.0,0.0,0.0,0.0,0.0,0.0,0.0,0.0,0.0,0.0,0.0,0.0,0.0,0.0,0.0,0.0,0.0,0.0,0.0,0.0,0.0,0.0,0.0,0.0,0.0,0.0,0.0,0.0,0.0,0.0,0.0,0.0,0.0,0.0,0.0,0.0,0.0,0.0,0.0,0.0,0.0,0.0,0.0,0.0,0.0,0.0,0.0,0.0,0.0,0.0,0.0,0.0,0.0,0.0,0.0,0.0,0.0,0.0,0.0,0.0,0.0,0.0,0.0,0.0,0.0,0.0,0.0,0.0,0.0,0.0,0.0,0.0,0.0,0.0,0.0,0.0,0.0,0.0,0.0,0.0,0.0,0.0,0.0,0.0,0.0,0.0,0.0,0.0,0.0,0.0,0.0,0.0,0.0,0.0,0.0,0.0,0.0,0.0,0.0,0.0,0.0,0.0,0.0,0.0,0.0,0.0,0.0,0.0,0.0,0.0,0.0,0.0,0.0,0.0,0.0,0.0,0.0,0.0,0.0,0.0,0.0,0.0,0.0,0.0,0.0,0.0,0.0,0.0,0.0,0.0,0.0,0.0,0.0,0.0,0.0,0.0,0.0,0.0,0.0,0.0,0.0,0.0,0.0,0.0,0.0,0.0,0.0,0.0,0.0,0.0,0.0,0.0,0.0,0.0,0.0,0.0,0.0,0.0,0.0,0.0,0.0,0.0,0.0,0.0,0.0,0.0,0.0,0.0,0.0,0.0,0.0,0.0,0.0,0.0,0.0,0.0,0.0,0.0,0.0,0.0,0.0,0.0,0.0,0.0,0.0,0.0,0.0,0.0,0.0,0.0,0.0,0.0,0.0,0.0,0.0,0.0,0.0,0.0,0.0,0.0,0.0,0.0,0.0,0.0,0.0,0.0,0.0,0.0,0.0,0.0,0.0,0.0,0.0,0.0,0.0,0.0,0.0,0.0,0.0,0.0,0.0,0.0,0.0,0.0,0.0,0.0,0.0,0.0,0.0,0.0,0.0,0.0,0.0,0.0,0.0,0.0,0.0,0.0,0.0,0.0,0.0,0.0,0.0,0.0,0.0,0.0,0.0,0.0,0.0,0.0,0.0,0.0,0.0,0.0,0.0,0.0,0.0,0.0,0.0,0.0,0.0,0.0,0.0,0.0,0.0,0.0,0.0,0.0,0.0,0.0,0.0,0.0,0.0,0.0,0.0,0.0,0.0,0.0,0.0,0.0,0.0,0.0,0.0,0.0,0.0,0.0,0.0,0.0,0.0,0.0,0.0,0.0,0.0,0.0,0.0,0.0,0.0,0.0,0.0,0.0,0.0,0.0,0.0,0.0,0.0,0.0,0.0,0.0,0.0,0.0,0.0,0.0,0.0,0.0,0.0,0.0,0.0,0.0,0.0,0.0,0.0,0.0,0.0,0.0,0.0,0.0,0.0,0.0,0.0,0.0,0.0,0.0,0.0,0.0,0.0,0.0,0.0,0.0,0.0,0.0,0.0,0.0,0.0,0.0,0.0,0.0,0.0,0.0,0.0,0.0,0.0,0.0,0.0,0.0,0.0,0.0,0.0,0.0,0.0,0.0,0.0,0.0,0.0,0.0,0.0,0.0,0.0,0.0,0.0,0.0,0.0,0.0,0.0,0.0,0.0,0.0,0.0,0.0,0.0,0.0,0.0,0.0,0.0,0.0,0.0,0.0,0.0,0.0,0.0,0.0,0.0,0.0,0.0,0.0,0.0,0.0,0.0,0.0,0.0,0.0,0.0,0.0,0.0,0.0,0.0,0.0,0.0,0.0,0.0,0.0,0.0,0.0,0.0,0.0,0.0,0.0,0.0,0.0,0.0,0.0,0.0,0.0,0.0,0.0,0.0,0.0,0.0,0.0,0.0,0.0,0.0,0.0,0.0,0.0,0.0,0.0,0.0,0.0,0.0,0.0,0.0,0.0,0.0,0.0,0.0,0.0,0.0,0.0,0.0,0.0,0.0,0.0,0.0,0.0,0.0,0.0,0.0,0.0,0.0,0.0,0.0,0.0,0.0,0.0,0.0,0.0,0.0,0.0,0.0,0.0,0.0,0.0,0.0,0.0,0.0,0.0,0.0,0.0,0.0,0.0,0.0,0.0,0.0,0.0,0.0,0.0,0.0,0.0,0.0,0.0,0.0,0.0,0.0,0.0,0.0,0.0,0.0,0.0,0.0,0.0,0.0,0.0,0.0,0.0,0.0,0.0,0.0,0.0,0.0,0.0,0.0,0.0,0.0,0.0,0.0,0.0,0.0,0.0,0.0,0.0,0.0,0.0,0.0,0.0,0.0,0.0,0.0,0.0,0.0,0.0,0.0,0.0,0.0,0.0,0.0,0.0,0.0,0.0,0.0,0.0,0.0,0.0,0.0,0.0,0.0,0.0,0.0,0.0,0.0,0.0,0.0,0.0,0.0,0.0,0.0,0.0,0.0,0.0,0.0,0.0,0.0,0.0,0.0,0.0,0.0,0.0,0.0,0.0,0.0,0.0,0.0,0.0,0.0,0.0,0.0,0.0,0.0,0.0,0.0,0.0,0.0,0.0,0.0,0.0,0.0,0.0,0.0,0.0,0.0,0.0,0.0,0.0,0.0,0.0,0.0,0.0,0.0,0.0,0.0,0.0,0.0,0.0,0.0,0.0,0.0,0.0,0.0,0.0,0.0,0.0,0.0,0.0,0.0,0.0,0.0,0.0,0.0,0.0,0.0,0.0,0.0,0.0,0.0,0.0,0.0,0.0,-2.934,0.0,0.0,0.0,0.0,0.0,0.0,0.0,0.0,0.0,0.0,0.0,0.0,0.0,0.0,0.0,0.0,0.0,0.0,0.0,0.0,0.0,0.0,0.0,0.0,0.0,0.0,0.0,0.0,0.0,0.0,0.0,0.0,0.0,0.0,0.0,0.0,0.0,0.0,0.0,0.0,0.0,0.0,0.0,0.0,0.0,0.0,0.0,0.0,0.0,0.0,0.0,0.0,0.0,0.0,0.0,0.0,0.0,0.0,0.0,0.0,0.0,0.0,0.0,0.0,0.0,0.0,0.0,0.0,0.0,0.0,0.0,0.0,0.0,0.0,0.0,0.0,0.0,0.0,0.0,0.0,0.0,0.0,0.0,0.0,0.0,0.0,0.0,0.0,0.0,0.0,0.0,0.0,0.0,0.0,0.0,0.0,0.0,0.0,0.0,0.0,0.0,0.0,0.0,0.0,0.0,0.0,0.0,0.0,0.0,0.0,-3.105,-3.0715,-3.1203,-3.0833,-2.9533,0.0,0.0,0.0,0.0,0.0,0.0,0.0,0.0,0.0,0.0,0.0,0.0,0.0,0.0,0.0,0.0,0.0,0.0,0.0,0.0,0.0,0.0,0.0,0.0,0.0,0.0,0.0,0.0,0.0,0.0,0.0,0.0,0.0,0.0,0.0,0.0,0.0,0.0,0.0,0.0,0.0,0.0,0.0,0.0,0.0,0.0,0.0,0.0,0.0,0.0,0.0,0.0,0.0,0.0,0.0,0.0,0.0,0.0,0.0,0.0,0.0,0.0,0.0,0.0,0.0,0.0,0.0,0.0,0.0,0.0,0.0,0.0,0.0,0.0,0.0,0.0,0.0,0.0,0.0,0.0,0.0,0.0,0.0,0.0,0.0,0.0,0.0,0.0,0.0,0.0,0.0,0.0,0.0,0.0,0.0,0.0,0.0,0.0,0.0,0.0,0.0,0.0,0.0,0.0,0.0,0.0,0.0,0.0,0.0,0.0,0.0,0.0,-3.1754,-3.1152,-2.9297,0.0,0.0,0.0,0.0,0.0,0.0,0.0,0.0,0.0,0.0,0.0,0.0,0.0,0.0,0.0,0.0,0.0,0.0,0.0,0.0,0.0,0.0,0.0,0.0,0.0,0.0,0.0,0.0,0.0,0.0,0.0,0.0,0.0,0.0,0.0,0.0,0.0,0.0,0.0,0.0,0.0,0.0,0.0,0.0,0.0,0.0,0.0,0.0,0.0,0.0,0.0,0.0,0.0,0.0,0.0,0.0,0.0,0.0,0.0,0.0,0.0,0.0,0.0,0.0,0.0,0.0,0.0,0.0,0.0,0.0,0.0,0.0,0.0,0.0,0.0,0.0,0.0,0.0,0.0,0.0,0.0,0.0,0.0,0.0,0.0,0.0,0.0,0.0,0.0,0.0,0.0,0.0,0.0,0.0,0.0,0.0,0.0,0.0,0.0,0.0,0.0,0.0,0.0,0.0,0.0,0.0,0.0,0.0,0.0,0.0,-3.2234,-3.294,-3.2405,0.0,-2.8611,0.0,0.0,0.0,0.0,0.0,0.0,0.0,0.0,0.0,0.0,0.0,0.0,0.0,0.0,0.0,0.0,0.0,0.0,0.0,0.0,0.0,0.0,0.0,0.0,0.0,0.0,0.0,0.0,0.0,0.0,0.0,0.0,0.0,0.0,0.0,0.0,0.0,0.0,0.0,0.0,0.0,0.0,0.0,0.0,0.0,0.0,0.0,0.0,0.0,0.0,0.0,0.0,0.0,0.0,0.0,0.0,0.0,0.0,0.0,0.0,0.0,0.0,0.0,0.0,0.0,0.0,0.0,0.0,0.0,0.0,0.0,0.0,0.0,0.0,0.0,0.0,0.0,0.0,0.0,0.0,0.0,0.0,0.0,0.0,0.0,0.0,0.0,0.0,0.0,0.0,0.0,0.0,0.0,0.0,0.0,0.0,0.0,0.0,0.0,0.0,0.0,0.0,0.0,0.0,0.0,0.0,0.0,0.0,0.0,0.0,-3.28,-3.3192,-3.2483,-3.1361,0.0,0.0,0.0,0.0,0.0,0.0,0.0,0.0,0.0,0.0,0.0,0.0,0.0,0.0,0.0,0.0,0.0,0.0,0.0,0.0,0.0,0.0,0.0,0.0,0.0,0.0,0.0,0.0,0.0,0.0,0.0,0.0,0.0,0.0,0.0,0.0,0.0,0.0,0.0,0.0,0.0,0.0,0.0,0.0,0.0,0.0,0.0,0.0,0.0,0.0,0.0,0.0,0.0,0.0,0.0,0.0,0.0,0.0,0.0,0.0,0.0,0.0,0.0,0.0,0.0,0.0,0.0,0.0,0.0,0.0,0.0,0.0,0.0,0.0,0.0,0.0,0.0,0.0,0.0,0.0,0.0,0.0,0.0,0.0,0.0,0.0,0.0,0.0,0.0,0.0,0.0,0.0,0.0,0.0,0.0,0.0,0.0,0.0,0.0,0.0,0.0,0.0,0.0,0.0,0.0,0.0,0.0,0.0,0.0,0.0,-3.3243,-3.3869,-3.3906,-3.3208,-3.2172,-3.0839,0.0,0.0,0.0,0.0,0.0,0.0,0.0,0.0,0.0,0.0,0.0,0.0,0.0,0.0,0.0,0.0,0.0,0.0,0.0,0.0,0.0,0.0,0.0,0.0,0.0,0.0,0.0,0.0,0.0,0.0,0.0,0.0,0.0,0.0,0.0,0.0,0.0,0.0,0.0,0.0,0.0,0.0,0.0,0.0,0.0,0.0,0.0,0.0,0.0,0.0,0.0,0.0,0.0,0.0,0.0,0.0,0.0,0.0,0.0,0.0,0.0,0.0,0.0,0.0,0.0,0.0,0.0,0.0,0.0,0.0,0.0,0.0,0.0,0.0,0.0,0.0,0.0,0.0,0.0,0.0,0.0,0.0,0.0,0.0,0.0,0.0,0.0,0.0,0.0,0.0,0.0,0.0,0.0,0.0,0.0,0.0,0.0,0.0,0.0,0.0,0.0,0.0,0.0,0.0,0.0,0.0,0.0,0.0,-3.2954,-3.4657,-3.5643,-3.5738,-3.5004,-3.3406,0.0,0.0,0.0,0.0,0.0,0.0,0.0,0.0,0.0,0.0,0.0,0.0,0.0,0.0,0.0,0.0,0.0,0.0,0.0,0.0,0.0,0.0,0.0,0.0,0.0,0.0,0.0,0.0,0.0,0.0,0.0,0.0,0.0,0.0,0.0,0.0,0.0,0.0,0.0,0.0,0.0,0.0,0.0,0.0,0.0,0.0,0.0,0.0,0.0,0.0,0.0,0.0,0.0,0.0,0.0,0.0,0.0,0.0,0.0,0.0,0.0,0.0,0.0,0.0,0.0,0.0,0.0,0.0,0.0,0.0,0.0,0.0,0.0,0.0,0.0,0.0,0.0,0.0,0.0,0.0,0.0,0.0,0.0,0.0,0.0,0.0,0.0,0.0,0.0,0.0,0.0,0.0,0.0,0.0,0.0,0.0,0.0,0.0,0.0,0.0,0.0,0.0,0.0,0.0,0.0,0.0,0.0,0.0,0.0,-3.3051,-3.5364,-3.6643,-3.6682,-3.5435,-3.3994,0.0,0.0,0.0,0.0,0.0,0.0,0.0,0.0,0.0,0.0,0.0,0.0,0.0,0.0,0.0,0.0,0.0,0.0,0.0,0.0,0.0,0.0,0.0,0.0,0.0,0.0,0.0,0.0,0.0,0.0,0.0,0.0,0.0,0.0,0.0,0.0,0.0,0.0,0.0,0.0,0.0,0.0,0.0,0.0,0.0,0.0,0.0,0.0,0.0,0.0,0.0,0.0,0.0,0.0,0.0,0.0,0.0,0.0,0.0,0.0,0.0,0.0,0.0,0.0,0.0,0.0,0.0,0.0,0.0,0.0,0.0,0.0,0.0,0.0,0.0,0.0,0.0,0.0,0.0,0.0,0.0,0.0,0.0,0.0,0.0,0.0,0.0,0.0,0.0,0.0,0.0,0.0,0.0,0.0,0.0,0.0,0.0,0.0,0.0,0.0,0.0,0.0,0.0,0.0,0.0,0.0,0.0,0.0,0.0,-3.466,0.0,-3.7802,0.0,-3.6003,-3.4565,0.0,0.0,0.0,0.0,0.0,0.0,0.0,0.0,0.0,0.0,0.0,0.0,0.0,0.0,0.0,0.0,0.0,0.0,0.0,0.0,0.0,0.0,0.0,0.0,0.0,0.0,0.0,0.0,0.0,0.0,0.0,0.0,0.0,0.0,0.0,0.0,0.0,0.0,0.0,0.0,0.0,0.0,0.0,0.0,0.0,0.0,0.0,0.0,0.0,0.0,0.0,0.0,0.0,0.0,0.0,0.0,0.0,0.0,0.0,0.0,0.0,0.0,0.0,0.0,0.0,0.0,0.0,0.0,0.0,0.0,0.0,0.0,0.0,0.0,0.0,0.0,0.0,0.0,0.0,0.0,0.0,0.0,0.0,0.0,0.0,0.0,0.0,0.0,0.0,0.0,0.0,0.0,0.0,0.0,0.0,0.0,0.0,0.0,0.0,0.0,0.0,0.0,0.0,0.0,0.0,0.0,0.0,0.0,-3.4559,-3.7987,-3.9044,-3.9159,-3.8491,-3.6883,-3.5211,0.0,0.0,0.0,0.0,0.0,0.0,0.0,0.0,0.0,0.0,0.0,0.0,0.0,0.0,0.0,0.0,0.0,0.0,0.0,0.0,0.0,0.0,0.0,0.0,0.0,0.0,0.0,0.0,0.0,0.0,0.0,0.0,0.0,0.0,0.0,0.0,0.0,0.0,0.0,0.0,0.0,0.0,0.0,0.0,0.0,0.0,0.0,0.0,0.0,0.0,0.0,0.0,0.0,0.0,0.0,0.0,0.0,0.0,0.0,0.0,0.0,0.0,0.0,0.0,0.0,0.0,0.0,0.0,0.0,0.0,0.0,0.0,0.0,0.0,0.0,0.0,0.0,0.0,0.0,0.0,0.0,0.0,0.0,0.0,0.0,0.0,0.0,0.0,0.0,0.0,0.0,0.0,0.0,0.0,0.0,0.0,0.0,0.0,0.0,0.0,0.0,0.0,0.0,0.0,0.0,0.0,0.0,0.0,0.0,-3.806,-3.9046,-3.9446,-3.9275,-3.7698,-3.6036,0.0,0.0,0.0,0.0,0.0,0.0,0.0,0.0,0.0,0.0,0.0,0.0,0.0,0.0,0.0,0.0,0.0,0.0,0.0,0.0,0.0,0.0,0.0,0.0,0.0,0.0,0.0,0.0,0.0,0.0,0.0,0.0,0.0,0.0,0.0,0.0,0.0,0.0,0.0,0.0,0.0,0.0,0.0,0.0,0.0,0.0,0.0,0.0,0.0,0.0,0.0,0.0,0.0,0.0,0.0,0.0,0.0,0.0,0.0,0.0,0.0,0.0,0.0,0.0,0.0,0.0,0.0,0.0,0.0,0.0,0.0,0.0,0.0,0.0,0.0,0.0,0.0,0.0,0.0,0.0,0.0,0.0,0.0,0.0,0.0,0.0,0.0,0.0,0.0,0.0,0.0,0.0,0.0,0.0,0.0,0.0,0.0,0.0,0.0,0.0,0.0,0.0,0.0,0.0,0.0,0.0,0.0,0.0,0.0,-3.8888,-3.9921,-4.0343,-4.0161,-3.852,-3.6716,-3.4734,0.0,0.0,0.0,0.0,0.0,0.0,0.0,0.0,0.0,0.0,0.0,0.0,0.0,0.0,0.0,0.0,0.0,0.0,0.0,0.0,0.0,0.0,0.0,0.0,0.0,0.0,0.0,0.0,0.0,0.0,0.0,0.0,0.0,0.0,0.0,0.0,0.0,0.0,0.0,0.0,0.0,0.0,0.0,0.0,0.0,0.0,0.0,0.0,0.0,0.0,0.0,0.0,0.0,0.0,0.0,0.0,0.0,0.0,0.0,0.0,0.0,0.0,0.0,0.0,0.0,0.0,0.0,0.0,0.0,0.0,0.0,0.0,0.0,0.0,0.0,0.0,0.0,0.0,0.0,0.0,0.0,0.0,0.0,0.0,0.0,0.0,0.0,0.0,0.0,0.0,0.0,0.0,0.0,0.0,0.0,0.0,0.0,0.0,0.0,0.0,0.0,0.0,0.0,0.0,0.0,0.0,0.0,0.0,-4.0461,-4.1547,-4.175,-4.0951,-3.9346,-3.7289,0.0,0.0,0.0,0.0,0.0,0.0,0.0,0.0,0.0,0.0,0.0,0.0,0.0,0.0,0.0,0.0,0.0,0.0,0.0,0.0,0.0,0.0,0.0,0.0,0.0,0.0,0.0,0.0,0.0,0.0,0.0,0.0,0.0,0.0,0.0,0.0,0.0,0.0,0.0,0.0,0.0,0.0,0.0,0.0,0.0,0.0,0.0,0.0,0.0,0.0,0.0,0.0,0.0,0.0,0.0,0.0,0.0,0.0,0.0,0.0,0.0,0.0,0.0,0.0,0.0,0.0,0.0,0.0,0.0,0.0,0.0,0.0,0.0,0.0,0.0,0.0,0.0,0.0,0.0,0.0,0.0,0.0,0.0,0.0,0.0,0.0,0.0,0.0,0.0,0.0,0.0,0.0,0.0,0.0,0.0,0.0,0.0,0.0,0.0,0.0,0.0,0.0,0.0,0.0,0.0,0.0,0.0,0.0,0.0,-4.273,-4.3321,-4.2964,-4.1725,-4.0136,-3.8136,0.0,0.0,0.0,0.0,0.0,0.0,0.0,0.0,0.0,0.0,0.0,0.0,0.0,0.0,0.0,0.0,0.0,0.0,0.0,0.0,0.0,0.0,0.0,0.0,0.0,0.0,0.0,0.0,0.0,0.0,0.0,0.0,0.0,0.0,0.0,0.0,0.0,0.0,0.0,0.0,0.0,0.0,0.0,0.0,0.0,0.0,0.0,0.0,0.0,0.0,0.0,0.0,0.0,0.0,0.0,0.0,0.0,0.0,0.0,0.0,0.0,0.0,0.0,0.0,0.0,0.0,0.0,0.0,0.0,0.0,0.0,0.0,0.0,0.0,0.0,0.0,0.0,0.0,0.0,0.0,0.0,0.0,0.0,0.0,0.0,0.0,0.0,0.0,0.0,0.0,0.0,0.0,0.0,0.0,0.0,0.0,0.0,0.0,0.0,0.0,0.0,0.0,0.0,0.0,0.0,0.0,0.0,0.0,-4.0858,-4.3623,-4.4557,-4.4498,-4.3374,-4.1571,-3.9437,0.0,0.0,0.0,0.0,0.0,0.0,0.0,0.0,0.0,0.0,0.0,0.0,0.0,0.0,0.0,0.0,0.0,0.0,0.0,0.0,0.0,0.0,0.0,0.0,0.0,0.0,0.0,0.0,0.0,0.0,0.0,0.0,0.0,0.0,0.0,0.0,0.0,0.0,0.0,0.0,0.0,0.0,0.0,0.0,0.0,0.0,0.0,0.0,0.0,0.0,0.0,0.0,0.0,0.0,0.0,0.0,0.0,0.0,0.0,0.0,0.0,0.0,0.0,0.0,0.0,0.0,0.0,0.0,0.0,0.0,0.0,0.0,0.0,0.0,0.0,0.0,0.0,0.0,0.0,0.0,0.0,0.0,0.0,0.0,0.0,0.0,0.0,0.0,0.0,0.0,0.0,0.0,0.0,0.0,0.0,0.0,0.0,0.0,0.0,0.0,0.0,0.0,0.0,0.0,0.0,0.0,0.0,0.0,-4.1713,-4.3686,-4.5374,-4.6009,-4.5385,-4.3258,-4.0875,0.0,0.0,0.0,0.0,0.0,0.0,0.0,0.0,0.0,0.0,0.0,0.0,0.0,0.0,0.0,0.0,0.0,0.0,0.0,0.0,0.0,0.0,0.0,0.0,0.0,0.0,0.0,0.0,0.0,0.0,0.0,0.0,0.0,0.0,0.0,0.0,0.0,0.0,0.0,0.0,0.0,0.0,0.0,0.0,0.0,0.0,0.0,0.0,0.0,0.0,0.0,0.0,0.0,0.0,0.0,0.0,0.0,0.0,0.0,0.0,0.0,0.0,0.0,0.0,0.0,0.0,0.0,0.0,0.0,0.0,0.0,0.0,0.0,0.0,0.0,0.0,0.0,0.0,0.0,0.0,0.0,0.0,0.0,0.0,0.0,0.0,0.0,0.0,0.0,0.0,0.0,0.0,0.0,0.0,0.0,0.0,0.0,0.0,0.0,0.0,0.0,0.0,0.0,0.0,0.0,0.0,0.0,0.0,-4.2053,-4.5005,-4.5677,-4.6253,-4.6822,-4.4163,-4.127,0.0,0.0,0.0,0.0,0.0,0.0,0.0,0.0,0.0,0.0,0.0,0.0,0.0,0.0,0.0,0.0,0.0,0.0,0.0,0.0,0.0,0.0,0.0,0.0,0.0,0.0,0.0,0.0,0.0,0.0,0.0,0.0,0.0,0.0,0.0,0.0,0.0,0.0,0.0,0.0,0.0,0.0,0.0,0.0,0.0,0.0,0.0,0.0,-3.5545,0.0,0.0,0.0,0.0,0.0,0.0,0.0,0.0,0.0,0.0,0.0,0.0,0.0,0.0,0.0,0.0,0.0,0.0,0.0,0.0,0.0,0.0,0.0,0.0,0.0,0.0,0.0,0.0,0.0,0.0,0.0,0.0,0.0,0.0,0.0,0.0,0.0,0.0,0.0,0.0,0.0,0.0,0.0,0.0,0.0,0.0,0.0,0.0,0.0,0.0,0.0,0.0,0.0,0.0,0.0,0.0,0.0,0.0,0.0,-4.2269,-4.5154,-4.5567,-4.5989,-4.6434,-4.4329,-4.1867,0.0,0.0,0.0,0.0,0.0,0.0,0.0,0.0,0.0,0.0,0.0,0.0,0.0,0.0,0.0,0.0,0.0,0.0,0.0,0.0,0.0,0.0,0.0,0.0,0.0,0.0,0.0,0.0,0.0,0.0,0.0,0.0,0.0,0.0,0.0,0.0,0.0,0.0,0.0,0.0,0.0,0.0,0.0,0.0,0.0,0.0,0.0,0.0,0.0,0.0,0.0,0.0,0.0,0.0,0.0,0.0,0.0,0.0,0.0,0.0,0.0,0.0,0.0,0.0,0.0,0.0,0.0,0.0,0.0,0.0,0.0,0.0,0.0,0.0,0.0,0.0,0.0,0.0,0.0,0.0,0.0,0.0,0.0,0.0,0.0,0.0,0.0,0.0,0.0,0.0,0.0,0.0,0.0,0.0,0.0,0.0,0.0,0.0,0.0,0.0,0.0,0.0,0.0,0.0,0.0,0.0,0.0,-3.9866,-4.2347,-4.4807,-4.5212,-4.5391,-4.5409,-4.3936,-4.2148,-4.0024,0.0,0.0,0.0,0.0,0.0,0.0,0.0,0.0,0.0,0.0,0.0,0.0,0.0,0.0,0.0,0.0,0.0,0.0,0.0,0.0,0.0,0.0,0.0,0.0,0.0,0.0,0.0,0.0,0.0,0.0,0.0,0.0,0.0,0.0,0.0,0.0,0.0,0.0,-3.1892,-3.4245,0.0,0.0,0.0,0.0,0.0,0.0,0.0,0.0,-3.7621,0.0,0.0,0.0,0.0,0.0,0.0,0.0,0.0,0.0,0.0,0.0,0.0,0.0,0.0,0.0,0.0,0.0,0.0,0.0,0.0,0.0,0.0,0.0,0.0,0.0,0.0,0.0,0.0,0.0,0.0,0.0,0.0,0.0,0.0,0.0,0.0,0.0,0.0,0.0,0.0,0.0,0.0,0.0,0.0,0.0,0.0,0.0,0.0,0.0,0.0,0.0,0.0,0.0,0.0,0.0,0.0,-3.7851,-3.9743,-4.192,-4.4419,-4.4725,-4.4617,-4.4175,-4.2712,-4.0846,-3.8616,0.0,0.0,0.0,0.0,0.0,0.0,0.0,0.0,0.0,0.0,0.0,0.0,0.0,0.0,0.0,0.0,0.0,0.0,0.0,0.0,0.0,0.0,0.0,0.0,0.0,0.0,0.0,0.0,0.0,0.0,0.0,0.0,0.0,0.0,0.0,0.0,0.0,0.0,0.0,-3.5623,-3.6621,0.0,0.0,0.0,0.0,0.0,0.0,0.0,0.0,-3.7514,0.0,0.0,0.0,0.0,0.0,0.0,0.0,0.0,0.0,0.0,0.0,0.0,0.0,0.0,0.0,0.0,0.0,0.0,0.0,0.0,0.0,0.0,0.0,0.0,0.0,0.0,0.0,0.0,0.0,0.0,0.0,0.0,0.0,0.0,0.0,0.0,0.0,0.0,0.0,0.0,0.0,0.0,0.0,0.0,0.0,0.0,0.0,0.0,0.0,0.0,0.0,0.0,0.0,0.0,0.0,-3.7179,-3.8887,-4.0908,-4.3315,-4.3651,-4.3468,-4.2869,-4.143,-3.9618,0.0,0.0,0.0,0.0,0.0,0.0,0.0,0.0,0.0,0.0,0.0,0.0,0.0,0.0,0.0,0.0,0.0,0.0,0.0,0.0,0.0,0.0,0.0,0.0,0.0,0.0,0.0,0.0,0.0,0.0,0.0,0.0,0.0,0.0,0.0,0.0,0.0,0.0,0.0,0.0,-3.644,-3.7488,-3.8526,0.0,0.0,0.0,0.0,0.0,0.0,-3.8684,-3.8346,0.0,0.0,0.0,0.0,0.0,0.0,0.0,0.0,0.0,0.0,0.0,0.0,0.0,0.0,0.0,0.0,0.0,0.0,0.0,0.0,0.0,0.0,0.0,0.0,0.0,0.0,0.0,0.0,0.0,0.0,0.0,0.0,0.0,0.0,0.0,0.0,0.0,0.0,0.0,0.0,0.0,0.0,0.0,0.0,0.0,0.0,0.0,0.0,0.0,0.0,0.0,0.0,0.0,0.0,0.0,-3.6166,-3.7881,-3.9847,-4.2031,-4.2521,-4.2317,-4.1506,-4.0151,-3.8459,0.0,0.0,0.0,0.0,0.0,0.0,0.0,0.0,0.0,0.0,0.0,0.0,0.0,0.0,0.0,0.0,0.0,0.0,0.0,0.0,0.0,0.0,0.0,0.0,0.0,0.0,0.0,0.0,0.0,0.0,0.0,0.0,0.0,0.0,0.0,0.0,0.0,0.0,0.0,0.0,0.0,-3.8563,-4.0114,-4.0531,0.0,0.0,0.0,0.0,-4.0228,-3.9658,0.0,0.0,0.0,0.0,0.0,0.0,0.0,0.0,0.0,0.0,0.0,0.0,0.0,0.0,0.0,0.0,0.0,0.0,0.0,0.0,0.0,0.0,0.0,0.0,0.0,0.0,0.0,0.0,0.0,0.0,0.0,0.0,0.0,0.0,0.0,0.0,0.0,0.0,0.0,0.0,0.0,0.0,0.0,0.0,0.0,0.0,0.0,0.0,0.0,0.0,0.0,0.0,0.0,0.0,0.0,0.0,-3.4977,-3.7106,-3.9027,-4.0757,-4.1587,-4.1416,-4.0171,-3.8834,-3.7365,0.0,0.0,0.0,0.0,0.0,0.0,0.0,0.0,0.0,0.0,0.0,0.0,0.0,0.0,0.0,0.0,0.0,0.0,0.0,0.0,0.0,0.0,0.0,0.0,0.0,0.0,0.0,0.0,0.0,0.0,0.0,0.0,0.0,0.0,0.0,0.0,0.0,0.0,0.0,0.0,0.0,-3.966,-4.0687,-4.094,-4.1142,0.0,0.0,-4.1301,-4.0639,-4.0541,0.0,0.0,0.0,0.0,0.0,0.0,0.0,0.0,0.0,0.0,0.0,0.0,0.0,0.0,0.0,0.0,0.0,0.0,0.0,0.0,0.0,0.0,0.0,0.0,0.0,0.0,0.0,0.0,0.0,0.0,0.0,0.0,0.0,0.0,0.0,0.0,0.0,0.0,0.0,0.0,0.0,0.0,0.0,0.0,0.0,0.0,0.0,0.0,0.0,0.0,0.0,0.0,0.0,0.0,0.0,-3.1618,-3.3859,-3.5993,-3.7829,-3.9408,-4.0302,-4.0332,-3.9473,-3.7671,-3.631,0.0,0.0,0.0,0.0,0.0,0.0,0.0,0.0,0.0,0.0,0.0,0.0,0.0,0.0,0.0,0.0,0.0,0.0,0.0,0.0,0.0,0.0,0.0,0.0,0.0,0.0,0.0,0.0,0.0,0.0,0.0,0.0,0.0,0.0,0.0,0.0,0.0,0.0,0.0,0.0,0.0,0.0,-4.0999,-4.1341,0.0,0.0,0.0,-4.1699,-4.0962,0.0,0.0,0.0,0.0,0.0,0.0,0.0,0.0,0.0,0.0,0.0,0.0,0.0,0.0,0.0,0.0,0.0,0.0,0.0,0.0,0.0,0.0,0.0,0.0,0.0,0.0,0.0,0.0,0.0,0.0,0.0,0.0,0.0,0.0,0.0,0.0,0.0,0.0,0.0,0.0,0.0,0.0,0.0,0.0,0.0,0.0,0.0,0.0,0.0,0.0,0.0,0.0,0.0,0.0,0.0,0.0,0.0,-3.2723,-3.494,-3.6808,-3.83,-3.9193,-3.9364,-3.8742,-3.6742,0.0,0.0,0.0,0.0,0.0,0.0,0.0,0.0,0.0,0.0,0.0,0.0,0.0,0.0,0.0,0.0,0.0,0.0,0.0,0.0,0.0,0.0,0.0,0.0,0.0,0.0,0.0,-2.4984,0.0,0.0,0.0,0.0,0.0,0.0,0.0,0.0,0.0,0.0,0.0,0.0,0.0,0.0,-3.9611,-4.1262,-4.1634,-4.1788,0.0,0.0,-4.1957,-4.1225,-4.085,-4.052,0.0,0.0,0.0,0.0,0.0,0.0,0.0,0.0,0.0,0.0,0.0,0.0,0.0,0.0,0.0,0.0,0.0,0.0,0.0,0.0,0.0,0.0,0.0,0.0,0.0,0.0,0.0,0.0,0.0,0.0,0.0,0.0,0.0,0.0,0.0,0.0,0.0,0.0,0.0,0.0,0.0,0.0,0.0,0.0,0.0,0.0,0.0,0.0,0.0,0.0,0.0,0.0,0.0,0.0,0.0,-3.1468,-3.4095,-3.6177,-3.7627,-3.8514,-3.8604,-3.7892,-3.6178,-3.4898,0.0,0.0,0.0,0.0,0.0,0.0,0.0,0.0,0.0,0.0,0.0,0.0,0.0,0.0,0.0,0.0,0.0,0.0,0.0,0.0,0.0,0.0,0.0,0.0,0.0,0.0,0.0,0.0,0.0,0.0,0.0,0.0,0.0,0.0,0.0,0.0,0.0,0.0,0.0,0.0,0.0,-3.9935,-4.147,-4.181,-4.1958,0.0,0.0,-4.202,-4.1537,-4.1487,-4.1106,-3.992,0.0,0.0,0.0,0.0,0.0,0.0,0.0,0.0,0.0,0.0,0.0,0.0,0.0,0.0,0.0,0.0,0.0,0.0,0.0,0.0,0.0,0.0,0.0,0.0,0.0,0.0,0.0,0.0,0.0,0.0,0.0,0.0,0.0,0.0,0.0,0.0,0.0,0.0,0.0,0.0,0.0,0.0,0.0,0.0,0.0,0.0,0.0,0.0,0.0,0.0,0.0,0.0,0.0,-2.952,-3.0932,-3.3145,-3.521,-3.6995,-3.6954,-3.7012,-3.7311,-3.4975,-3.3685,0.0,0.0,0.0,0.0,0.0,0.0,0.0,0.0,0.0,0.0,0.0,0.0,0.0,0.0,0.0,0.0,0.0,0.0,0.0,0.0,0.0,0.0,0.0,0.0,0.0,0.0,0.0,0.0,-2.5982,-2.6047,-2.6279,0.0,0.0,0.0,0.0,0.0,0.0,0.0,0.0,0.0,0.0,-3.9363,-4.0925,-4.1265,0.0,0.0,-4.1727,-4.1768,-4.159,-4.1359,-4.0915,-3.9968,-3.9439,0.0,0.0,0.0,0.0,0.0,0.0,0.0,0.0,0.0,0.0,0.0,0.0,0.0,0.0,0.0,0.0,0.0,0.0,0.0,0.0,0.0,0.0,0.0,0.0,0.0,0.0,0.0,0.0,0.0,0.0,0.0,0.0,0.0,0.0,0.0,0.0,0.0,0.0,0.0,0.0,0.0,0.0,0.0,0.0,0.0,0.0,0.0,0.0,0.0,0.0,0.0,0.0,-2.9231,-3.0799,-3.2462,-3.4252,-3.6163,-3.5603,-3.5596,-3.6226,-3.3877,-3.2691,0.0,0.0,0.0,0.0,0.0,0.0,0.0,0.0,0.0,0.0,0.0,0.0,0.0,0.0,0.0,0.0,0.0,0.0,0.0,0.0,0.0,0.0,0.0,0.0,0.0,0.0,0.0,0.0,-2.6761,-2.6687,-2.665,0.0,0.0,0.0,0.0,0.0,0.0,0.0,0.0,0.0,0.0,-3.876,-4.0285,-4.0645,-4.0765,-4.0907,-4.1134,-4.1295,-4.1346,-4.1161,-4.071,-3.984,0.0,0.0,0.0,0.0,0.0,0.0,0.0,0.0,0.0,0.0,0.0,0.0,0.0,0.0,0.0,0.0,0.0,0.0,0.0,0.0,0.0,0.0,0.0,0.0,0.0,0.0,0.0,0.0,0.0,0.0,-2.8109,0.0,0.0,0.0,0.0,0.0,0.0,0.0,0.0,0.0,0.0,0.0,0.0,0.0,0.0,0.0,0.0,0.0,0.0,0.0,0.0,0.0,0.0,-2.9013,-3.1043,-3.208,-3.3326,-3.4803,-3.4627,-3.4611,-3.4803,-3.295,-3.2111,-3.2478,0.0,0.0,0.0,0.0,0.0,0.0,0.0,0.0,0.0,0.0,0.0,0.0,0.0,0.0,0.0,0.0,0.0,0.0,0.0,0.0,0.0,0.0,0.0,0.0,0.0,0.0,-2.7856,-2.777,-2.7615,0.0,0.0,0.0,0.0,0.0,0.0,0.0,0.0,0.0,0.0,-3.7112,-3.8259,-3.9707,-4.0037,-4.0146,-4.0305,-4.0436,-4.059,-4.0778,-4.0902,-4.0584,0.0,0.0,0.0,0.0,0.0,0.0,0.0,0.0,0.0,0.0,0.0,0.0,0.0,0.0,0.0,0.0,0.0,0.0,0.0,0.0,0.0,0.0,0.0,0.0,0.0,0.0,0.0,-3.1845,-3.1432,0.0,0.0,0.0,0.0,0.0,0.0,0.0,0.0,0.0,0.0,0.0,-3.0358,-3.1246,0.0,0.0,0.0,0.0,0.0,0.0,0.0,0.0,0.0,0.0,0.0,0.0,-2.8442,-3.0337,-3.109,-3.2362,-3.4225,-3.3614,-3.3599,-3.4315,-3.2895,-3.1686,-3.0772,0.0,0.0,0.0,0.0,0.0,0.0,0.0,0.0,0.0,0.0,0.0,0.0,0.0,0.0,0.0,0.0,0.0,0.0,0.0,0.0,0.0,0.0,0.0,0.0,0.0,-2.7502,0.0,0.0,0.0,0.0,0.0,0.0,0.0,0.0,0.0,0.0,0.0,-3.3785,-3.5946,-3.6565,-3.7402,-3.8943,-3.9292,-3.9408,0.0,0.0,0.0,0.0,0.0,0.0,0.0,0.0,0.0,0.0,0.0,0.0,0.0,0.0,-3.7734,-3.6422,-3.6081,-3.597,-3.5754,0.0,0.0,0.0,0.0,0.0,0.0,0.0,0.0,0.0,0.0,0.0,0.0,0.0,0.0,0.0,0.0,-3.0989,0.0,0.0,0.0,0.0,0.0,0.0,0.0,0.0,-3.1026,-3.1235,-3.0746,-3.1578,-3.1534,0.0,-3.0412,-2.9746,0.0,0.0,0.0,0.0,0.0,0.0,0.0,0.0,-2.8275,-3.0199,-3.0482,-3.1523,-3.3298,-3.2724,-3.2724,-3.3376,-3.2311,-3.1186,-3.0068,-2.8822,-2.7916,0.0,0.0,0.0,0.0,0.0,0.0,0.0,0.0,0.0,0.0,0.0,0.0,0.0,0.0,0.0,0.0,0.0,0.0,0.0,0.0,0.0,0.0,0.0,-2.7959,0.0,0.0,0.0,0.0,0.0,0.0,0.0,0.0,0.0,-3.1942,-3.2449,-3.3427,-3.5284,-3.5727,-3.6297,-3.759,0.0,0.0,0.0,0.0,0.0,0.0,0.0,-3.9137,-3.8229,-3.8126,-3.7916,-3.7367,-3.7363,-3.7579,-3.7911,0.0,0.0,-3.6635,-3.6636,-3.6731,-3.6453,-3.6646,-3.6855,-3.6956,-3.7128,-3.7334,0.0,0.0,0.0,0.0,0.0,0.0,0.0,0.0,-3.3401,-3.2817,0.0,-3.1381,0.0,0.0,0.0,0.0,0.0,-2.9618,0.0,0.0,-3.1069,-3.153,-3.1781,-3.1819,-3.1805,-3.172,-3.0617,-3.0174,-3.026,-2.8752,0.0,0.0,0.0,0.0,0.0,0.0,-2.851,-3.0459,-3.0304,-3.083,-3.2145,-3.2081,-3.2066,-3.213,-3.1243,-3.0597,-3.0244,-2.9032,-2.8169,-2.7729,-2.6969,0.0,0.0,0.0,0.0,0.0,0.0,0.0,0.0,0.0,0.0,0.0,0.0,0.0,0.0,0.0,0.0,0.0,0.0,0.0,0.0,-2.8381,0.0,0.0,0.0,0.0,0.0,0.0,0.0,0.0,0.0,0.0,-3.206,-3.2195,-3.2735,-3.4103,0.0,0.0,0.0,0.0,-3.627,-3.6287,-3.6913,-3.7135,-3.6405,-3.7617,-3.8177,-3.6803,0.0,0.0,-3.6891,-3.6287,-3.6041,-3.6343,-3.6582,-3.6595,-3.6664,-3.6842,-3.6787,-3.6142,-3.6267,-3.6417,-3.6567,-3.6925,-3.7098,-3.536,0.0,0.0,0.0,0.0,-3.4039,-3.4072,-3.4028,-3.3434,-3.3115,-3.2834,-3.161,0.0,0.0,0.0,0.0,0.0,0.0,-2.9545,-3.0281,-3.096,-3.1366,-3.1598,-3.218,-3.2118,-3.1571,-3.1104,-3.0652,-3.021,-2.9023,-2.7982,-2.7115,0.0,0.0,0.0,0.0,-2.791,-2.9867,-2.9803,-3.048,-3.2023,-3.1927,-3.1684,-3.1338,-3.0252,-2.9707,-2.9777,-2.8568,-2.7917,-2.7884,-2.6813,0.0,0.0,0.0,0.0,0.0,0.0,0.0,0.0,0.0,0.0,0.0,0.0,0.0,0.0,0.0,0.0,0.0,0.0,0.0,-2.7821,-2.7984,-2.8191,0.0,0.0,0.0,0.0,0.0,0.0,0.0,0.0,0.0,-3.1462,-3.2023,-3.2676,0.0,0.0,-3.4157,-3.4927,-3.509,-3.5219,-3.5363,0.0,0.0,0.0,-3.5848,-3.6127,-3.581,-3.5798,-3.5801,-3.5803,-3.5744,-3.5835,-3.623,-3.6344,-3.6309,-3.6139,-3.6666,-3.7041,-3.7005,-3.7193,-3.7423,-3.7682,-3.7926,-3.796,-3.6419,-3.5769,-3.4635,-3.4143,-3.4129,-3.4129,-3.4043,-3.398,-3.3776,-3.3485,-3.3119,-3.2139,-3.1298,-3.0632,-2.9617,0.0,0.0,0.0,-2.9435,-3.0184,-3.0788,-3.1252,-3.1541,-3.2015,-3.1915,-3.1197,-3.0822,-3.035,-2.98,-2.9002,-2.8204,-2.744,0.0,0.0,-2.674,-2.676,-2.765,-2.9352,-2.9372,-3.0095,-3.161,-3.1342,-3.0949,-3.0383,-2.9527,-2.9154,-2.9341,-2.8415,-2.786,-2.7732,-2.6951,-2.6242,0.0,0.0,0.0,0.0,0.0,0.0,0.0,0.0,0.0,0.0,0.0,-2.5183,-2.5198,0.0,0.0,0.0,-2.6762,-2.7449,-2.7786,-2.8059,0.0,0.0,0.0,0.0,0.0,0.0,0.0,-2.9493,-2.9827,-3.0206,-3.0644,-3.116,-3.1802,-3.2599,-3.2745,-3.2984,-3.3453,0.0,-3.3642,-3.3772,-3.4032,-3.4081,-3.3776,-3.4278,-3.4763,-3.4935,-3.4577,-3.4419,-3.4707,-3.4697,-3.4785,-3.512,-3.5349,-3.5378,-3.5238,-3.5786,-3.6408,-3.688,-3.7209,-3.7506,-3.7721,-3.7761,-3.7658,-3.7553,-3.7363,-3.5286,-3.4424,-3.441,-3.4303,-3.4109,-3.3954,-3.4244,-3.3861,-3.3101,-3.2709,-3.2129,-3.1284,-3.0025,0.0,-2.9703,-2.9523,-2.9666,-3.0148,-3.0663,-3.1118,-3.1559,-3.1556,-3.1249,-3.069,-3.005,-2.9547,-2.9181,-2.8787,-2.8366,-2.7923,-2.7479,-2.7299,-2.7349,-2.7128,-2.7623,-2.8889,-2.9015,-2.9717,-3.0955,-3.0435,-2.9882,-2.9315,-2.8884,-2.8731,-2.887,-2.8408,-2.788,-2.7379,-2.7271,-2.6673,-2.5477,0.0,0.0,0.0,0.0,0.0,0.0,0.0,0.0,0.0,0.0,0.0,0.0,0.0,0.0,0.0,-2.7132,0.0,-2.7728,-2.8303,0.0,0.0,0.0,-2.8526,-2.8355,-2.8913,-2.9153,-2.8808,0.0,0.0,-2.9747,0.0,-3.0328,-3.119,-3.1451,-3.1596,-3.1596,-3.1726,-3.1751,-3.1841,-3.2352,-3.2504,-3.1938,-3.2822,-3.3695,-3.3886,-3.3606,-3.336,-3.3547,-3.3333,-3.3235,-3.3543,-3.3774,-3.405,-3.4201,-3.4545,-3.5005,-3.5924,-3.6457,-3.6841,-3.6837,-3.6646,-3.645,-3.8206,-3.8082,-3.6744,-3.6285,-3.6438,-3.5595,-3.5201,-3.508,-3.4111,-3.3608,-3.337,-3.256,-3.1723,-3.0815,-3.007,-2.9736,-2.9784,-2.9749,-3.0022,-3.0548,-3.0695,-3.096,-3.1357,-3.1043,-3.0764,-3.0421,-2.9581,-2.9159,-2.902,-2.8596,-2.8317,-2.8206,-2.7889,-2.7454,-2.6976,-2.6973,-2.7565,-2.8736,-2.8793,-2.9314,-3.0261,-2.9241,-2.8645,-2.8483,-2.7913,-2.7635,-2.7763,-2.7679,-2.7565,-2.7534,-2.7052,-2.663,-2.6305,-2.5708,0.0,0.0,0.0,0.0,0.0,0.0,0.0,0.0,0.0,-2.5539,-2.5539,0.0,-2.6229,0.0,-2.7357,-2.7739,-2.7725,-2.7838,0.0,0.0,-2.8601,-2.8679,-2.8867,-2.9063,-2.9021,-2.8688,-2.8844,-2.899,-2.9026,-2.9089,-2.9247,-2.9637,-3.0251,-3.0613,-3.0478,-3.0598,-3.0688,-3.0717,-3.0864,-3.0938,-3.0954,-3.1324,-3.1812,-3.2003,-3.1969,-3.2007,-3.2163,-3.2114,-3.2173,-3.2586,-3.283,-3.3071,-3.3387,-3.3815,-3.4209,-3.4593,-3.5305,-3.5784,-3.5428,-3.5476,-3.5314,-3.8464,-3.8411,-3.747,-3.7113,-3.7046,-3.5811,-3.5074,-3.4702,-3.391,-3.3555,-3.3408,-3.2605,-3.1765,-3.0917,-3.0262,-2.9975,-3.0082,-2.9962,-3.0111,-3.0415,-3.0702,-3.1006,-3.127,-3.0788,-3.0413,-3.0099,-2.9316,-2.8825,-2.8592,-2.841,-2.8274,-2.8274,-2.8248,-2.7766,-2.6938,-2.689,-2.7216,-2.7896,-2.8282,-2.861,-2.8823,-2.8209,-2.7713,-2.7368,-2.7123,-2.7037,-2.7119,-2.7104,-2.7141,-2.7295,-2.6889,-2.6514,-2.6248,-2.5806,-2.5394,0.0,0.0,0.0,0.0,0.0,0.0,0.0,0.0,0.0,0.0,0.0,-2.6456,-2.6956,-2.7377,-2.7646,-2.7646,-2.7925,-2.826,-2.8564,-2.8605,-2.865,-2.8757,-2.8734,-2.8624,-2.8406,-2.8373,-2.8406,-2.8463,-2.8495,-2.8495,-2.8541,-2.8962,-2.9359,-2.9605,-2.9744,-2.9792,-2.9839,-2.987,-2.9931,-3.019,-3.0372,-3.0523,-3.0717,-3.0851,-3.0999,-3.1043,-3.1204,-3.1408,-3.1709,-3.1964,-3.2228,-3.2617,-3.3022,-3.3271,-3.3202,-3.3681,-3.4187,-3.4342,-3.4045,-3.3528,-3.8512,-3.84,-3.7619,-3.7151,-3.6757,-3.5383,-3.4418,-3.3785,-3.3666,-3.3467,-3.3162,-3.254,-3.1876,-3.1209,-3.0537,-3.0315,-3.0448,-3.0315,-3.0205,-3.0231,-3.0802,-3.1123,-3.1283,-3.0649,-3.0139,-2.9763,-2.9145,-2.8585,-2.8125,-2.8249,-2.832,-2.832,-2.8509,-2.8094,-2.713,-2.6994,-2.6932,-2.6919,-2.7698,-2.7811,-2.7311,-2.7335,-2.7006,-2.6342,-2.6525,-2.6698,-2.6727,-2.6671,-2.6724,-2.6884,-2.6724,-2.6425,-2.5893,-2.5773,-2.5422,0.0,-2.4719,0.0,0.0,0.0,0.0,0.0,0.0,0.0,0.0,-2.6216,-2.6632,-2.6982,-2.7416,-2.766,-2.766,-2.8179,-2.8522,-2.8522,-2.8522,-2.8457,-2.8268,-2.8222,-2.817,-2.8046,-2.8013,-2.8013,-2.798,-2.798,-2.7901,-2.7756,-2.7855,-2.8137,-2.867,-2.8894,-2.9022,-2.9121,-2.9216,-2.9359,-2.9623,-2.9716,-2.9822,-3.0005,-3.0189,-3.0266,-3.0312,-3.0523,-3.0762,-3.0896,-3.1204,-3.1523,-3.1811,-3.2155,-3.2222,-3.1871,-3.198,-3.2351,-3.2987,-3.258,-3.1893,-3.7959,-3.7861,-3.7156,-3.6514,-3.5932,-3.4879,-3.4328,-3.4158,-3.3528,-3.2849,-3.2194,-3.1675,-3.1255,-3.1061,-3.0906,-3.0867,-3.0891,-3.0867,-3.083,-3.083,-3.1121,-3.1272,-3.1244,-3.0347,-2.9861,-2.9757,-2.8853,-2.829,-2.8112,-2.8392,-2.8476,-2.832,-2.8509,-2.8266,-2.76,0.0,0.0,0.0,-2.7327,-2.7411,-2.7296,-2.6796,-2.6454,-2.6313,-2.6367,0.0,-2.6394,-2.6379,-2.6394,-2.642,-2.6394,0.0,0.0,0.0,0.0,0.0,0.0,0.0,0.0,0.0,0.0,0.0,-2.5411,-2.5397,-2.5564,-2.627,-2.6844,-2.7158,-2.7656,-2.8004,-2.8004,-2.8111,-2.821,-2.8224,-2.8177,-2.8131,-2.7908,-2.7908,-2.7809,-2.7623,-2.759,-2.757,-2.7469,-2.7469,-2.7382,-2.7214,-2.7167,-2.7248,-2.7416,-2.7875,-2.8203,-2.8254,-2.861,-2.8899,-2.8994,-2.9216,-2.9435,-2.9665,-2.9806,-2.9946,-3.0097,-3.0172,-3.028,-3.0403,-3.0717,-3.0955,-3.116,-3.1246,-3.1299,-3.1174,-3.0535,-3.021,-3.0957,-3.1118,-3.1019,-3.7142,0.0,-3.6198,-3.5641,0.0,-3.4272,-3.3885,-3.383,-3.3452,-3.286,-3.2195,-3.1615,-3.1216,-3.1024,-3.1024,-3.1024,-3.1024,-3.1024,-3.1024,-3.1024,-3.1198,-3.1347,-3.1408,-3.0477,-3.0089,-3.0138,-2.9176,-2.8638,-2.8587,-2.8748,-2.8734,-2.8527,-2.8638,-2.8352,-2.7718,-2.7516,-2.7398,-2.7298,-2.7074,-2.7004,-2.7017,-2.6436,-2.6125,-2.6098,0.0,0.0,0.0,0.0,0.0,0.0,0.0,0.0,0.0,0.0,0.0,-2.5907,-2.5894,-2.5839,-2.573,-2.5702,-2.5578,-2.5355,-2.5174,-2.5348,-2.5947,-2.6337,-2.6836,-2.7436,-2.7709,-2.7802,-2.7802,-2.7802,-2.7802,-2.7802,-2.7802,-2.7756,-2.7656,-2.759,-2.7536,-2.7403,-2.7302,-2.7214,-2.718,-2.7146,-2.7079,-2.6897,-2.6875,-2.6841,-2.6807,-2.7167,-2.7556,-2.7756,-2.8151,-2.8509,-2.8656,-2.8817,-2.9053,-2.9289,-2.9401,-2.9495,-2.9571,-2.9602,-2.9665,-2.9898,-3.0083,-3.0296,-3.0569,-3.0527,-3.0334,-3.0071,-2.9501,-2.9057,-2.9292,-2.9564,-2.9834,-3.6121,-3.6021,-3.5119,-3.4655,-3.4502,-3.3651,-3.3292,-3.3289,0.0,0.0,0.0,-3.1617,-3.1253,-3.0986,-3.1024,-3.1024,-3.1024,-3.1024,-3.1024,-3.1024,-3.1248,-3.1434,-3.1542,-3.0772,-3.0467,-3.0535,-2.9614,-2.9145,-2.9099,-2.9131,-2.9067,-2.8876,-2.8812,-2.847,-2.7886,-2.7475,-2.7443,-2.7684,-2.7063,-2.6705,-2.6722,-2.6246,-2.5937,-2.5825,-2.5825,-2.588,-2.5989,-2.588,-2.5866,-2.5989,-2.588,-2.5798,-2.5688,-2.5674,-2.5633,-2.5522,-2.5508,-2.5467,-2.5467,-2.5439,-2.5369,-2.5174,-2.5033,-2.5391,-2.6384,-2.6356,-2.6693,-2.765,-2.759,-2.7503,-2.7503,-2.7503,-2.749,-2.7469,-2.7469,-2.7456,-2.7403,-2.7302,-2.7248,-2.7201,-2.7113,-2.699,-2.6943,-2.6943,-2.6875,-2.6714,-2.6658,-2.6611,-2.6568,-2.6807,-2.7167,-2.7469,-2.7822,-2.8164,-2.8392,-2.849,-2.8651,-2.894,-2.9004,-2.9035,-2.9099,-2.9113,-2.9194,-2.9477,-2.954,-2.9732,-2.9927,-2.9725,-2.9389,-2.8928,-2.8581,-2.8218,-2.8026,-2.8204,-2.8629,-3.5017,-3.4933,-3.4149,-3.3882,-3.3921,-3.3126,-3.2835,-3.2925,-3.2493,-3.2037,-3.1591,-3.1073,-3.0889,-3.1024,-3.1024,-3.1024,-3.1024,-3.1024,-3.1024,0.0,-3.136,-3.1572,-3.1579,-3.0899,-3.0569,-3.0542,-2.973,-2.9257,-2.9131,-2.9257,-2.9257,-2.9067,-2.8876,-2.8675,-2.8497,-2.8415,-2.847,-2.8602,-2.7627,-2.6889,-2.6464,-2.6367,-2.6104,-2.5578,-2.555,-2.555,-2.5578,-2.5592,-2.555,-2.5578,-2.5564,-2.555,-2.5522,-2.5508,-2.5522,-2.5508,-2.5508,-2.5439,-2.5272,-2.523,-2.5174,-2.5033,-2.492,-2.5246,-2.6205,-2.6325,-2.6643,-2.7426,-2.7536,-2.7503,-2.7503,-2.7503,-2.7436,-2.7335,-2.7335,-2.7268,-2.7113,-2.7079,-2.7045,-2.7058,-2.7024,-2.6909,-2.676,-2.676,-2.6692,-2.6555,-2.6555,-2.6521,-2.6568,-2.6773,-2.7079,-2.7302,-2.7623,-2.7855,-2.7954,-2.8066,-2.8295,-2.8619,-2.8683,-2.8748,-2.8972,-2.9049,-2.9067,-2.9162,-2.9352,-2.9375,-2.9078,-2.8739,-2.8454,-2.8028,-2.7606,-2.7317,-2.7412,-2.7549,-2.7825,-3.4278,-3.397,-3.3573,-3.3368,-3.3301,-3.3252,-3.2946,-3.2457,-3.2417,-3.2149,-3.1617,-3.1096,-3.0911,-3.0986,-3.1024,-3.1024,-3.1024,-3.1024,-3.1024,-3.1024,-3.141,-3.1609,-3.1526,-3.1004,-3.0725,-3.0724,-2.9891,-2.9446,-2.9383,-2.9477,-2.9446,-2.9257,-2.8972,-2.8748,-2.8587,-2.8587,-2.8619,-2.867,-2.7968,-2.7363,-2.6889,-2.6572,-2.6116,-2.5536,-2.5508,-2.5508,-2.5508,-2.5508,-2.5508,-2.5508,-2.5508,-2.5439,-2.5328,-2.5328,-2.53,-2.5216,-2.5229,-2.5188,-2.509,-2.5005,-2.4948,-2.4892,-2.4791,-2.4967,-2.5641,-2.5968,-2.6504,-2.7392,-2.7503,-2.7456,-2.7403,-2.7403,-2.7335,-2.7146,-2.7146,-2.7079,-2.7024,-2.6909,-2.6829,-2.6841,-2.6773,-2.6705,-2.6589,-2.6589,-2.6589,-2.6487,-2.6487,-2.6487,-2.6487,-2.6705,-2.6897,-2.71,-2.7369,-2.7577,-2.7743,-2.7855,-2.8033,-2.8308,-2.8341,-2.8406,-2.8554,-2.8605,-2.8702,-2.8812,-2.9004,-2.8945,-2.8513,-2.8213,-2.784,-2.7313,-2.6904,-2.6758,-2.6855,-2.7037,-2.7437,-3.3599,-3.3121,-3.2995,-3.2829,-3.2698,-3.3179,-3.2791,-3.1979,-3.2238,-3.2019,-3.1473,-3.1107,-3.0911,-3.0861,-3.0911,-3.0911,-3.0949,-3.0986,-3.1024,-3.1024,-3.136,-3.1535,-3.1476,-3.1004,-3.0759,-3.0655,-2.9905,-2.9509,-2.954,-2.9509,-2.9415,-2.9257,-2.894,-2.8716,-2.8587,-2.8587,-2.8587,-2.856,-2.8234,-2.7841,-2.7391,-2.6923,-2.64,-2.5837,-2.5658,-2.5575,-2.5575,-2.5452,-2.5369,-2.5383,-2.5383,-2.5313,-2.5174,-2.5146,-2.5118,-2.5005,-2.4977,-2.4948,-2.4892,-2.482,-2.475,-2.4763,-2.4607,-2.4715,-2.5167,-2.5537,-2.6193,-2.7118,-2.7378,-2.7403,-2.7335,-2.7248,-2.7146,-2.6943,-2.6943,-2.6922,-2.6888,-2.6773,-2.6645,-2.6658,-2.6555,-2.6487,-2.6487,-2.6487,-2.6487,-2.6487,-2.6487,-2.6487,-2.6521,-2.6589,-2.6726,-2.6897,-2.71,-2.7335,-2.7623,-2.7676,-2.7789,-2.7967,-2.8033,-2.8066,-2.8145,-2.8216,-2.8314,-2.849,-2.8651,-2.847,-2.8023,-2.7772,-2.7337,-2.6736,-2.6339,-2.6233,-2.6418,-2.6671,-2.7078,-3.3047,-3.2589,-3.2297,-3.2177,-3.2081,-3.2274,-3.2129,-3.1699,-3.1469,-3.1048,-3.056,-3.066,-3.0609,-3.0482,-3.0647,-3.0736,-3.0736,-3.0911,-3.0986,-3.1024,-3.1235,-3.131,-3.1251,-3.0675,-3.0364,-3.0235,-2.9536,-2.9226,-2.9352,-2.9212,-2.9035,-2.8876,-2.8812,-2.8716,-2.8619,-2.8587,-2.8587,-2.8587,-2.8565,-2.8252,-2.7709,-2.76,-2.7301,-2.6704,-2.6133,-2.5864,-2.5864,-2.5332,-2.5075,-2.5061,-2.5075,-2.5033,-2.5005,-2.5005,-2.5005,-2.4977,-2.4863,-2.4763,-2.4649,-2.462,-2.462,-2.462,-2.4421,-2.4543,-2.508,-2.5122,-2.5555,-2.6517,-2.7064,-2.7232,-2.7302,-2.7082,-2.6841,-2.6671,-2.6663,-2.6692,-2.6602,-2.6521,-2.6533,-2.6521,-2.6487,-2.6487,-2.6487,-2.6487,-2.6487,-2.6487,-2.6487,-2.6487,-2.6487,-2.6521,-2.6589,-2.6726,-2.6909,-2.7113,-2.7302,-2.7335,-2.7469,-2.7736,-2.7822,-2.7868,-2.7967,-2.8046,-2.8145,-2.8197,-2.8325,-2.8125,-2.7445,-2.7097,-2.6963,-2.6133,-2.5827,-2.5839,-2.6084,-2.6338,-2.6709,-3.2076,-3.1605,-3.1669,-3.1533,-3.1433,-3.1808,-3.156,-3.0881,-3.0869,-3.0452,-2.9844,-2.9896,-3.0101,-3.0394,-3.0482,-3.0533,-3.0533,-3.0723,-3.0849,-3.0849,-3.1123,-3.1125,-3.0728,-3.0259,-2.9824,-2.9443,-2.8888,-2.8688,-2.8753,-2.8881,-2.8881,-2.8812,-2.8812,-2.8748,-2.8587,-2.8587,-2.8587,-2.8587,-2.8587,-2.8478,-2.822,-2.7895,-2.7403,-2.6833,-2.6549,-2.6443,-2.6389,-2.586,-2.552,-2.5507,-2.5208,-2.4977,-2.4892,-2.4892,-2.4835,-2.4791,-2.4734,-2.4664,-2.4591,-2.4492,-2.4421,-2.4421,-2.4261,-2.4275,-2.4422,-2.4662,-2.5018,-2.5366,-2.5967,-2.6239,-2.6044,-2.5946,-2.5909,-2.5996,-2.6051,-2.6177,-2.6461,-2.6474,-2.6487,-2.6487,-2.6487,-2.6474,-2.6487,-2.6487,-2.6487,-2.6487,-2.6487,-2.6461,-2.6487,-2.6487,-2.6533,-2.6568,-2.6671,-2.6807,-2.7045,-2.7113,-2.7201,-2.7302,-2.7436,-2.757,-2.7603,-2.7835,-2.7934,-2.7875,-2.7811,-2.7502,-2.6693,-2.6427,-2.6216,-2.5547,-2.5495,-2.5619,-2.573,-2.5893,-2.6123,-3.1479,-3.1077,-3.1136,-3.1008,-3.0738,-3.1138,-3.0802,-3.0087,-3.0022,-2.9673,-2.917,-2.9157,-2.9457,-2.9934,-3.0037,-3.0177,-3.0267,-3.0419,-3.0584,-3.0634,-3.0742,-3.054,-3.0144,-2.9517,-2.9021,-2.8607,-2.8173,-2.8045,-2.8157,-2.8449,-2.8578,-2.8619,-2.8651,-2.8587,-2.849,-2.849,-2.8476,-2.8471,-2.8471,-2.8471,-2.8403,-2.8052,-2.7651,-2.7308,-2.7118,-2.7037,-2.7023,-2.6397,-2.6072,-2.6058,-2.5445,-2.5049,-2.4976,-2.4815,-2.4664,-2.4549,-2.452,-2.4463,-2.4419,-2.4261,-2.416,-2.4102,-2.3998,-2.3907,-2.3883,-2.4167,-2.4326,-2.4269,-2.469,-2.4935,-2.5135,-2.5052,-2.5113,-2.5368,-2.5385,-2.5586,-2.5891,-2.5991,-2.5895,-2.5911,-2.5765,-2.5924,-2.5911,-2.5827,-2.579,-2.579,-2.5965,-2.6136,-2.6174,-2.6202,-2.6314,-2.6314,-2.6361,-2.6568,-2.6841,-2.6909,-2.6909,-2.7011,-2.7146,-2.7248,-2.7162,-2.7378,-2.7387,-2.7144,-2.699,-2.6684,-2.6104,-2.5781,-2.5608,-2.5179,-2.5103,-2.5313,-2.53,-2.5425,-2.5481,-3.1479,-3.0985,-3.0742,-3.0454,-3.0213,-2.9932,-2.966,-2.9294,-2.8843,-2.8574,-2.855,-2.8538,-2.8657,-2.891,-2.9263,-2.9599,-2.9818,-3.0049,-3.0228,-3.0317,-2.988,-2.9598,-2.9446,-2.8431,-2.7866,-2.7773,-2.7441,-2.7443,-2.7776,-2.796,-2.8085,-2.8131,-2.8281,-2.8268,-2.8177,-2.8281,-2.8235,-2.8177,-2.8145,-2.8145,-2.8145,-2.8105,-2.8182,-2.8338,-2.7963,-2.7646,-2.7565,-2.6897,-2.6468,-2.6468,-2.5785,-2.5388,-2.5348,-2.4911,-2.456,-2.4334,-2.4321,-2.4189,-2.3995,-2.3949,-2.3848,-2.3675,-2.3688,-2.3628,-2.3628,-2.3705,-2.3671,-2.3496,-2.3568,-2.4004,-2.476,-2.4702,-2.4707,-2.4788,-2.4825,-2.4798,-2.4763,-2.4855,-2.4595,-2.4546,-2.4575,-2.4657,-2.4513,-2.4407,-2.455,-2.4649,-2.4908,-2.5191,-2.5299,-2.561,-2.5807,-2.5879,-2.5995,-2.6302,-2.6598,-2.6726,-2.6807,-2.6761,-2.6764,-2.6909,-2.6806,-2.6673,-2.6515,-2.6349,-2.6074,-2.5774,-2.5453,-2.5216,-2.5082,-2.4876,-2.4803,-2.4877,-2.4962,-2.499,-2.5033,-3.0503,-3.0032,-3.0082,-2.9657,-2.8997,-2.904,-2.884,-2.8424,-2.8205,-2.8122,-2.8134,-2.8122,-2.8231,-2.8407,-2.8566,-2.8882,-2.9339,-2.956,-2.9703,-2.9717,-2.9353,-2.8961,-2.8519,-2.7666,-2.702,-2.6636,-2.6549,-2.679,-2.7242,-2.7456,-2.7689,-2.7901,-2.8099,-2.8145,-2.8112,-2.8145,-2.8131,-2.8112,-2.8112,-2.8112,-2.8079,-2.8112,-2.8177,-2.8262,-2.8074,-2.7954,-2.7954,-2.7282,-2.6943,-2.6943,-2.6307,-2.5927,-2.5752,-2.5203,-2.4596,-2.4122,-2.4054,-2.3923,-2.376,-2.3688,-2.37,-2.3599,-2.3586,-2.3569,-2.348,-2.3463,-2.3403,-2.3241,-2.312,-2.3328,-2.3528,-2.3617,-2.3717,-2.4016,-2.4039,-2.4099,-2.4332,-2.4398,-2.4365,-2.43,-2.4288,-2.4288,-2.4194,-2.4288,-2.4288,-2.4312,-2.4472,-2.457,-2.4607,-2.4779,-2.4893,-2.4878,-2.4945,-2.5012,-2.5099,-2.6076,-2.6501,-2.6253,-2.6143,-2.5993,-2.5874,-2.5786,-2.564,-2.5582,-2.5303,-2.4991,-2.4741,-2.4612,-2.4508,-2.4535,-2.4478,-2.4534,-2.4677,-2.4649,-2.4677,-2.9688,-2.9318,-2.9392,-2.8962,-2.8286,-2.8407,-2.8157,-2.7714,-2.769,-2.7679,-2.7679,-2.7679,-2.7841,-2.807,-2.8111,-2.8391,-2.8895,-2.9118,-2.9137,-2.9005,-2.8611,-2.8102,-2.7481,-2.6744,-2.61,-2.569,-2.5816,-2.622,-2.6769,-2.7019,-2.7289,-2.7656,-2.7868,-2.7967,-2.7947,-2.7967,-2.798,-2.7901,-2.7914,-2.7914,-2.7914,-2.7901,-2.7914,-2.7914,-2.7914,-2.798,-2.8079,-2.7628,-2.7383,-2.7303,-2.6781,-2.6258,-2.5847,-2.5232,-2.4671,-2.4141,-2.3892,-2.373,-2.3569,-2.3539,-2.3509,-2.3437,-2.3437,-2.3378,-2.333,-2.3271,-2.315,-2.303,-2.2909,-2.283,-2.283,-2.2812,-2.2905,-2.3269,-2.3281,-2.3366,-2.3634,-2.3663,-2.3639,-2.355,-2.3506,-2.3574,-2.3611,-2.3599,-2.3574,-2.3611,-2.3745,-2.3867,-2.3867,-2.4038,-2.4124,-2.4136,-2.423,-2.4287,-2.4423,-2.5103,-2.5485,-2.527,-2.5294,-2.5129,-2.4974,-2.4881,-2.4823,-2.4778,-2.4612,-2.4328,-2.4137,-2.4025,-2.4031,-2.4057,-2.4073,-2.4115,-2.4187,-2.4245,-2.4274,-2.9183,-2.8735,-2.87,-2.8402,-2.7985,-2.8004,-2.7709,-2.7318,-2.7231,-2.7272,-2.7313,-2.7231,-2.7516,-2.7841,-2.7921,-2.8163,-2.855,-2.8736,-2.8614,-2.8266,-2.7602,-2.6992,-2.6469,-2.5613,-2.5194,-2.5123,-2.5229,-2.5699,-2.6393,-2.6598,-2.6884,-2.7302,-2.761,-2.7703,-2.7536,-2.7689,-2.7736,-2.7603,-2.7556,-2.7536,-2.7503,-2.7536,-2.7536,-2.7536,-2.7536,-2.7669,-2.8013,-2.7829,-2.771,-2.7657,-2.7105,-2.6348,-2.5682,-2.5133,-2.4666,-2.441,-2.3944,-2.3603,-2.3441,-2.3386,-2.3271,-2.315,-2.3108,-2.3108,-2.309,-2.3,-2.2909,-2.2891,-2.2769,-2.269,-2.2647,-2.2512,-2.2506,-2.2672,-2.2758,-2.2647,-2.253,-2.2438,-2.2364,-2.2368,-2.2354,-2.2234,-2.2234,-2.2366,-2.2426,-2.2486,-2.2714,-2.2999,-2.3035,-2.3312,-2.3628,-2.3697,-2.3594,-2.347,-2.3794,-2.4132,-2.4198,-2.4218,-2.4341,-2.4327,-2.4119,-2.4003,-2.3954,-2.3904,-2.3802,-2.3548,-2.3583,-2.3513,-2.356,-2.3603,-2.3616,-2.3704,-2.3806,-2.3835,-2.3793,-2.8654,-2.8218,-2.8207,-2.792,-2.7495,-2.7419,-2.7357,-2.7201,-2.719,-2.719,-2.719,-2.719,-2.7435,-2.7812,-2.7881,-2.8122,-2.8471,-2.8395,-2.8131,-2.7642,-2.7038,-2.6436,-2.5813,-2.5157,-2.4945,-2.504,-2.4981,-2.5336,-2.5968,-2.6267,-2.6543,-2.6897,-2.7255,-2.7403,-2.7369,-2.7503,-2.7556,-2.7503,-2.7503,-2.7503,-2.7503,-2.7403,-2.7369,-2.7335,-2.7248,-2.7214,-2.7348,-2.7503,-2.759,-2.759,-2.7366,-2.6902,-2.6233,-2.5846,-2.5403,-2.4861,-2.4309,-2.3869,-2.3603,-2.3242,-2.3024,-2.286,-2.2818,-2.2818,-2.283,-2.28,-2.2769,-2.2739,-2.2616,-2.2463,-2.234,-2.2173,-2.2204,-2.2463,-2.2266,-2.2142,-2.208,-2.1999,-2.1917,-2.1898,-2.1855,-2.1855,-2.1855,-2.1855,-2.1886,-2.1886,-2.2064,-2.2159,-2.2183,-2.2369,-2.236,-2.2372,-2.2424,-2.2631,-2.2823,-2.2959,-2.2991,-2.3172,-2.3385,-2.3461,-2.3281,-2.3229,-2.3158,-2.3158,-2.3045,-2.3007,-2.3042,-2.309,-2.315,-2.3241,-2.33,-2.339,-2.345,-2.345,-2.342,-2.8138,-2.7725,-2.7702,-2.7529,-2.7201,-2.719,-2.719,-2.719,-2.719,-2.719,-2.719,-2.719,-2.7435,-2.7812,-2.7881,-2.8122,-2.8431,-2.8299,-2.7735,-2.704,-2.6609,-2.5979,-2.5269,-2.4894,-2.4778,-2.4945,-2.4921,-2.5206,-2.5793,-2.606,-2.6324,-2.6611,-2.6998,-2.7167,-2.7201,-2.7281,-2.7302,-2.7302,-2.7302,-2.7302,-2.7315,-2.7235,-2.718,-2.718,-2.7092,-2.7024,-2.7011,-2.7214,-2.7335,-2.7335,-2.7302,-2.7041,-2.6565,-2.6123,-2.5679,-2.5129,-2.4543,-2.4035,-2.3634,-2.3325,-2.2985,-2.277,-2.2708,-2.2708,-2.2678,-2.2647,-2.2586,-2.2494,-2.234,-2.2154,-2.203,-2.1906,-2.1937,-2.208,-2.1968,-2.1843,-2.1824,-2.1761,-2.1698,-2.171,-2.171,-2.171,-2.171,-2.171,-2.171,-2.171,-2.171,-2.171,-2.171,-2.1722,-2.171,-2.171,-2.1879,-2.1926,-2.18,-2.18,-2.1788,-2.2088,-2.2432,-2.2495,-2.245,-2.2508,-2.2492,-2.272,-2.2733,-2.2824,-2.286,-2.2848,-2.2909,-2.2951,-2.2982,-2.3042,-2.3072,-2.3133,-2.3133,-2.7656,-2.7213,-2.719,-2.7224,-2.719,-2.719,-2.719,-2.719,-2.719,-2.719,-2.719,-2.719,-2.7435,-2.7812,-2.7841,-2.8042,-2.8351,-2.8207,-2.7463,-2.6561,-2.6068,-2.5512,-2.4712,-2.4561,-2.467,-2.4849,-2.5016,-2.5253,-2.5641,-2.5955,-2.622,-2.6405,-2.6726,-2.6994,-2.7011,-2.702,-2.7084,-2.7199,-2.7148,-2.7135,-2.7071,-2.7046,-2.696,-2.6935,-2.6888,-2.6854,-2.6854,-2.6841,-2.6909,-2.699,-2.7011,-2.6837,-2.6565,-2.5992,-2.5565,-2.5335,-2.4674,-2.414,-2.3722,-2.3587,-2.3285,-2.2813,-2.2751,-2.2672,-2.261,-2.2432,-2.2309,-2.2185,-2.1999,-2.1874,-2.1761,-2.1686,-2.1698,-2.1667,-2.1667,-2.1667,-2.1667,-2.1635,-2.1561,-2.1561,-2.1635,-2.1604,-2.1541,-2.1541,-2.1541,-2.1541,-2.1541,-2.1509,-2.1509,-2.1478,-2.1572,-2.1541,-2.1446,-2.1414,-2.1308,-2.1308,-2.1319,-2.1418,-2.1689,-2.178,-2.189,-2.1992,-2.203,-2.2247,-2.2432,-2.2555,-2.2586,-2.2494,-2.2494,-2.2494,-2.2537,-2.2629,-2.269,-2.2708,-2.2739,-2.7346,-2.719,-2.719,-2.719,-2.719,-2.719,-2.719,-2.719,-2.719,-2.719,-2.719,-2.719,-2.7342,-2.7574,-2.7615,-2.7777,-2.795,-2.7817,-2.7123,-2.6193,-2.5885,-2.533,-2.4639,-2.4538,-2.4718,-2.5016,-2.5207,-2.5265,-2.5571,-2.5796,-2.5947,-2.6037,-2.6414,-2.6681,-2.6934,-2.7138,-2.7387,-2.7702,-2.774,-2.7513,-2.7185,-2.7055,-2.6797,-2.643,-2.6292,-2.6223,-2.6188,-2.6188,-2.6465,-2.6943,-2.6714,-2.653,-2.6461,-2.6037,-2.5765,-2.5635,-2.5185,-2.4728,-2.4408,-2.4079,-2.3608,-2.3006,-2.2853,-2.2669,-2.2147,-2.2092,-2.1968,-2.1855,-2.1781,-2.1686,-2.1549,-2.1521,-2.1383,-2.1201,-2.1421,-2.1481,-2.134,-2.1201,-2.1094,-2.1106,-2.1053,-2.1022,-2.1022,-2.1022,-2.1033,-2.1022,-2.1022,-2.1033,-2.1085,-2.1085,-2.1129,-2.099,-2.0926,-2.0926,-2.0914,-2.0914,-2.0926,-2.0894,-2.1088,-2.1279,-2.1489,-2.173,-2.1792,-2.1886,-2.1937,-2.203,-2.2011,-2.1949,-2.198,-2.203,-2.2061,-2.2123,-2.2185,-2.2204,-2.2278,-2.719,-2.719,-2.719,-2.719,-2.719,-2.719,-2.719,-2.719,-2.719,-2.719,-2.719,-2.719,-2.7301,-2.7522,-2.7522,-2.7655,-2.7841,-2.7615,-2.6941,-2.6035,-2.5434,-2.4914,-2.4666,-2.4882,-2.5349,-2.5565,-2.5853,-2.6106,-2.6275,-2.6274,-2.6359,-2.6503,-2.6646,-2.6902,-2.721,-2.7308,-2.7456,-2.7729,-2.7779,-2.7617,-2.7344,-2.7036,-2.6765,-2.6394,-2.6093,-2.5923,-2.591,-2.5923,-2.6119,-2.6396,-2.6314,-2.6198,-2.6164,-2.5933,-2.5793,-2.5746,-2.5383,-2.5024,-2.4633,-2.4263,-2.3715,-2.2985,-2.2754,-2.2416,-2.1973,-2.1812,-2.1761,-2.16,-2.158,-2.1559,-2.1532,-2.1608,-2.1603,-2.155,-2.1593,-2.1508,-2.109,-2.0914,-2.085,-2.0775,-2.0754,-2.0701,-2.0669,-2.0669,-2.0669,-2.0701,-2.0765,-2.0733,-2.0733,-2.0669,-2.0637,-2.0604,-2.0604,-2.0669,-2.069,-2.069,-2.0658,-2.0637,-2.0637,-2.083,-2.1022,-2.134,-2.1403,-2.1434,-2.1478,-2.1509,-2.1509,-2.1509,-2.1529,-2.158,-2.158,-2.158,-2.1632,-2.1632,-2.1737,-2.719,-2.719,-2.719,-2.719,-2.719,-2.719,-2.719,-2.719,-2.719,-2.719,-2.719,-2.719,-2.7301,-2.7441,-2.7441,-2.7586,-2.78,-2.7418,-2.6783,-2.5937,-2.5217,-2.4752,-2.5061,-2.566,-2.6105,-2.6347,-2.6918,-2.704,-2.6991,-2.7052,-2.7075,-2.6966,-2.7163,-2.7384,-2.7358,-2.742,-2.7494,-2.7603,-2.7651,-2.7566,-2.7322,-2.6907,-2.6554,-2.6323,-2.5872,-2.569,-2.57,-2.5735,-2.577,-2.5758,-2.584,-2.5863,-2.5828,-2.5641,-2.5535,-2.5465,-2.5264,-2.4919,-2.4504,-2.4374,-2.389,-2.2999,-2.2709,-2.2301,-2.1984,-2.1913,-2.1841,-2.1522,-2.1496,-2.165,-2.1674,-2.1902,-2.1957,-2.1878,-2.1956,-2.1565,-2.1018,-2.0749,-2.0725,-2.0669,-2.0637,-2.0637,-2.0637,-2.0604,-2.0604,-2.0367,-2.0399,-2.0335,-2.0313,-2.0313,-2.0313,-2.0378,-2.041,-2.0496,-2.0496,-2.0496,-2.0464,-2.041,-2.0367,-2.0432,-2.0496,-2.0722,-2.0882,-2.0978,-2.1085,-2.1149,-2.1149,-2.1138,-2.1138,-2.1106,-2.1074,-2.1063,-2.1094,-2.1019,-2.1063,-2.719,-2.719,-2.719,-2.719,-2.719,-2.719,-2.719,-2.719,-2.719,-2.7231,-2.719,-2.719,-2.7272,-2.7301,-2.7342,-2.7301,-2.7366,-2.6955,-2.6294,-2.5669,-2.5337,-2.5505,-2.5865,-2.6263,-2.6517,-2.6943,-2.7138,-2.7223,-2.721,-2.7156,-2.691,-2.682,-2.699,-2.6962,-2.7216,-2.7302,-2.7438,-2.7735,-2.7822,-2.7584,-2.7219,-2.6754,-2.6278,-2.5849,-2.5337,-2.5099,-2.504,-2.5028,-2.5028,-2.5147,-2.5419,-2.5535,-2.543,-2.53,-2.5159,-2.5064,-2.5004,-2.4862,-2.4708,-2.4602,-2.4366,-2.3673,-2.3405,-2.324,-2.2232,-2.2397,-2.2209,-2.1851,-2.1933,-2.2026,-2.1991,-2.1909,-2.1926,-2.1901,-2.1739,-2.1501,-2.1196,-2.1039,-2.0798,-2.0543,-2.0324,-2.0248,-2.0237,-2.014,-2.0107,-2.0064,-1.9998,-1.9878,-1.9911,-1.9944,-1.9976,-2.0074,-2.0074,-2.0107,-2.0107,-2.0107,-2.0074,-2.0042,-2.0009,-1.9976,-2.0031,-2.0205,-2.0388,-2.0593,-2.0765,-2.0797,-2.069,-2.0722,-2.069,-2.0625,-2.0561,-2.0485,-2.0442,-2.041,-2.0377,-2.719,-2.719,-2.719,-2.726,-2.733,-2.733,-2.7423,-2.7516,-2.7516,-2.7516,-2.7516,-2.7516,-2.7516,-2.7516,-2.7516,-2.7516,-2.7371,-2.6823,-2.6409,-2.6061,-2.5769,-2.5922,-2.6661,-2.7004,-2.7397,-2.7852,-2.807,-2.8017,-2.7914,-2.7633,-2.7445,-2.7242,-2.7179,-2.738,-2.7434,-2.743,-2.7639,-2.7815,-2.7881,-2.774,-2.7434,-2.6952,-2.6259,-2.5589,-2.5072,-2.4801,-2.4837,-2.4837,-2.4837,-2.4861,-2.5064,-2.5206,-2.5087,-2.5028,-2.4885,-2.4825,-2.4801,-2.4754,-2.4682,-2.4611,-2.4353,-2.3805,-2.3746,-2.3236,-2.2659,-2.2603,-2.2468,-2.2128,-2.2139,-2.2227,-2.2205,-2.2279,-2.2168,-2.2056,-2.1912,-2.1728,-2.1475,-2.1045,-2.0672,-2.0346,-2.0051,-1.9932,-1.9846,-1.9802,-1.9802,-1.9802,-1.9802,-1.9704,-1.9714,-1.9747,-1.9714,-1.9714,-1.9681,-1.9681,-1.9681,-1.9681,-1.9648,-1.9648,-1.9615,-1.9539,-1.9506,-1.9704,-1.9944,-2.0107,-2.0237,-2.0172,-2.0107,-2.0172,-2.0205,-2.0074,-1.9966,-1.9868,-1.9769,-1.9726,-1.9693,-2.719,-2.719,-2.7231,-2.733,-2.7482,-2.7603,-2.7736,-2.7921,-2.7962,-2.7909,-2.7921,-2.7921,-2.7841,-2.7921,-2.7909,-2.7914,-2.7557,-2.7106,-2.6702,-2.6395,-2.6029,-2.629,-2.6996,-2.7651,-2.8212,-2.8724,-2.8866,-2.8905,-2.8655,-2.8395,-2.7897,-2.781,-2.7753,-2.7539,-2.7661,-2.7667,-2.7551,-2.7545,-2.7557,-2.7586,-2.7498,-2.7056,-2.6298,-2.5487,-2.5066,-2.4751,-2.4681,-2.4646,-2.4682,-2.4718,-2.4718,-2.4718,-2.4718,-2.4754,-2.4718,-2.4718,-2.4646,-2.4574,-2.449,-2.4431,-2.4196,-2.3545,-2.3509,-2.3293,-2.288,-2.2719,-2.2638,-2.2454,-2.237,-2.2311,-2.2317,-2.241,-2.2462,-2.2403,-2.2371,-2.2147,-2.1676,-2.0889,-2.0498,-2.0277,-2.011,-1.996,-1.9723,-1.9605,-1.9572,-1.9539,-1.9539,-1.9539,-1.9506,-1.9517,-1.944,-1.9351,-1.9318,-1.9175,-1.9175,-1.9185,-1.9185,-1.9185,-1.9142,-1.9075,-1.9008,-1.9142,-1.9341,-1.9506,-1.9605,-1.9572,-1.9572,-1.9638,-1.9605,-1.9506,-1.9407,-1.9308,-1.9208,-1.9075,-1.9008,-2.719,-2.7231,-2.7371,-2.7482,-2.7563,-2.7926,-2.8087,-2.8139,-2.8143,-2.8139,-2.8091,-2.7978,-2.7947,-2.8103,-2.8139,-2.7806,-2.7351,-2.712,-2.6748,-2.6369,-2.6171,-2.6602,-2.717,-2.7817,-2.8422,-2.8863,-2.9069,-2.9032,-2.8752,-2.8407,-2.7978,-2.7603,-2.74,-2.729,-2.7097,-2.6933,-2.6933,-2.7015,-2.6974,-2.7015,-2.6994,-2.66,-2.6009,-2.5205,-2.4966,-2.469,-2.439,-2.4321,-2.4309,-2.4273,-2.4309,-2.4298,-2.4381,-2.449,-2.4465,-2.4381,-2.4345,-2.4345,-2.4261,-2.4225,-2.4202,-2.4038,-2.3872,-2.3559,-2.3215,-2.3187,-2.2999,-2.267,-2.255,-2.254,-2.2424,-2.2387,-2.2408,-2.2327,-2.2176,-2.2031,-2.1682,-2.1166,-2.0591,-2.0383,-2.0202,-1.9908,-1.9542,-1.9274,-1.9241,-1.9208,-1.9175,-1.9164,-1.9142,-1.9142,-1.9108,-1.9008,-1.8918,-1.8785,-1.8674,-1.8684,-1.8684,-1.8684,-1.865,-1.8617,-1.8583,-1.8583,-1.8707,-1.8841,-1.9042,-1.9142,-1.9142,-1.9142,-1.9075,-1.8942,-1.8875,-1.8785,-1.8607,-1.8395,-1.8303,-2.7071,-2.736,-2.7482,-2.7725,-2.8018,-2.8259,-2.8342,-2.827,-2.8246,-2.8077,-2.7857,-2.7731,-2.79,-2.8174,-2.8246,-2.7985,-2.7711,-2.7483,-2.7102,-2.6627,-2.6489,-2.6622,-2.7047,-2.7586,-2.8044,-2.8387,-2.8596,-2.8741,-2.8593,-2.8231,-2.7748,-2.729,-2.7085,-2.6962,-2.6768,-2.6674,-2.6603,-2.6603,-2.6603,-2.6633,-2.6693,-2.6231,-2.5735,-2.554,-2.4998,-2.4697,-2.4602,-2.4269,-2.4212,-2.42,-2.4189,-2.4189,-2.4236,-2.4273,-2.4321,-2.42,-2.4189,-2.4152,-2.408,-2.4043,-2.397,-2.3886,-2.3787,-2.3649,-2.343,-2.3329,-2.3176,-2.2794,-2.2524,-2.2478,-2.2268,-2.2138,-2.2025,-2.1911,-2.1769,-2.1617,-2.1461,-2.1174,-2.0788,-2.0359,-1.9908,-1.9483,-1.9044,-1.8885,-1.8885,-1.8841,-1.8841,-1.8841,-1.8831,-1.8808,-1.8808,-1.8674,-1.8617,-1.8516,-1.8381,-1.8347,-1.8279,-1.8245,-1.8245,-1.8178,-1.8076,-1.8076,-1.8076,-1.811,-1.8313,-1.8529,-1.8539,-1.8472,-1.8438,-1.8405,-1.8259,-1.8124,-1.792,-1.7759,-1.7657,-2.6811,-2.729,-2.7528,-2.7827,-2.8235,-2.8421,-2.838,-2.8271,-2.8248,-2.8051,-2.7706,-2.7669,-2.7878,-2.8225,-2.8324,-2.83,-2.8188,-2.7828,-2.7366,-2.6879,-2.6653,-2.6602,-2.6697,-2.7201,-2.7698,-2.7854,-2.8229,-2.8234,-2.8295,-2.795,-2.7423,-2.7056,-2.685,-2.6685,-2.6561,-2.6426,-2.6479,-2.6479,-2.6479,-2.6479,-2.6408,-2.6192,-2.5941,-2.5989,-2.5271,-2.4857,-2.4641,-2.4406,-2.4143,-2.4089,-2.4043,-2.4043,-2.408,-2.4091,-2.4091,-2.4091,-2.4116,-2.4007,-2.3897,-2.3861,-2.3787,-2.3677,-2.3593,-2.3519,-2.3398,-2.3143,-2.2953,-2.2628,-2.2402,-2.2176,-2.1949,-2.1797,-2.1617,-2.1512,-2.132,-2.1167,-2.1167,-2.0969,-2.0665,-2.0192,-1.9591,-1.9249,-1.8962,-1.865,-1.8684,-1.8684,-1.865,-1.865,-1.865,-1.8617,-1.8583,-1.8414,-1.8313,-1.8279,-1.8178,-1.811,-1.8008,-1.7915,-1.7881,-1.7847,-1.771,-1.7564,-1.7529,-1.7564,-1.7554,-1.775,-1.7759,-1.7803,-1.7794,-1.775,-1.7613,-1.7467,-1.7295,-1.7132,-1.7003,-2.6536,-2.6708,-2.7509,-2.7679,-2.7579,-2.8072,-2.8224,-2.8088,-2.81,-2.8185,-2.7982,-2.7998,-2.801,-2.8221,-2.8478,-2.82,-2.7811,-2.7578,-2.7193,-2.6634,-2.6549,-2.6418,-2.6467,-2.7534,-2.7446,-2.747,-2.7978,-2.8287,-2.8087,-2.7563,-2.7167,-2.6809,-2.6448,-2.6282,-2.624,-2.6104,-2.599,-2.599,-2.599,-2.6074,-2.6271,-2.6348,-2.6185,-2.5923,-2.5609,-2.5268,-2.4705,-2.4412,-2.4153,-2.3793,-2.3725,-2.3666,-2.3677,-2.3677,-2.3677,-2.3714,-2.3787,-2.3872,-2.3677,-2.3641,-2.3604,-2.3494,-2.3409,-2.3272,-2.3038,-2.274,-2.244,-2.2225,-2.1997,-2.1807,-2.1568,-2.1387,-2.1282,-2.1167,-2.1051,-2.0974,-2.0896,-2.0683,-2.0381,-2.009,-1.9527,-1.9328,-1.9127,-1.8784,-1.8516,-1.8482,-1.8482,-1.8448,-1.8381,-1.8313,-1.8245,-1.811,-1.8008,-1.794,-1.794,-1.7872,-1.7735,-1.7573,-1.7539,-1.7505,-1.7289,-1.7116,-1.7081,-1.7072,-1.7063,-1.7028,-1.7107,-1.7141,-1.7141,-1.7107,-1.7028,-1.6881,-1.6742,-1.6542,-1.6377,-2.5839,-2.6271,-2.6777,-2.704,-2.7133,-2.7627,-2.7693,-2.7563,-2.7717,-2.7635,-2.7452,-2.7437,-2.7614,-2.7906,-2.8295,-2.8024,-2.7404,-2.7256,-2.6839,-2.6275,-2.6211,-2.6107,-2.607,-2.6564,-2.6809,-2.6992,-2.7167,-2.7357,-2.7342,-2.7237,-2.6839,-2.6354,-2.601,-2.5843,-2.5895,-2.577,-2.5812,-2.5853,-2.5937,-2.5937,-2.6021,-2.6135,-2.6182,-2.6043,-2.5776,-2.5427,-2.5105,-2.4518,-2.4261,-2.3974,-2.3806,-2.3593,-2.3593,-2.3593,-2.3556,-2.3446,-2.3519,-2.3519,-2.3446,-2.3409,-2.3372,-2.3224,-2.3075,-2.2889,-2.2617,-2.2289,-2.2035,-2.1959,-2.1665,-2.1387,-2.1185,-2.0954,-2.0809,-2.0741,-2.0615,-2.0498,-2.0381,-2.0294,-2.0042,-1.9783,-1.9506,-1.9276,-1.9,-1.8573,-1.8207,-1.8086,-1.8013,-1.794,-1.7906,-1.7837,-1.7779,-1.7745,-1.7676,-1.7632,-1.7632,-1.7598,-1.7392,-1.7254,-1.7151,-1.7047,-1.683,-1.6691,-1.6656,-1.6586,-1.6517,-1.6482,-1.6482,-1.6551,-1.6621,-1.6551,-1.6447,-1.6272,-1.6123,-1.5982,-1.5744,-2.507,-2.5579,-2.6036,-2.6375,-2.6657,-2.7004,-2.7028,-2.6903,-2.7138,-2.7097,-2.6896,-2.696,-2.7169,-2.7395,-2.768,-2.7427,-2.6749,-2.6737,-2.6325,-2.5938,-2.5723,-2.5606,-2.5636,-2.5876,-2.6251,-2.6329,-2.666,-2.6754,-2.6726,-2.6622,-2.626,-2.5895,-2.5633,-2.5496,-2.5506,-2.5601,-2.5686,-2.5895,-2.5895,-2.5895,-2.5937,-2.5937,-2.6032,-2.5942,-2.5815,-2.5621,-2.5509,-2.4865,-2.4387,-2.4004,-2.3653,-2.342,-2.342,-2.3372,-2.3335,-2.3224,-2.3187,-2.315,-2.315,-2.315,-2.3113,-2.2927,-2.2628,-2.2402,-2.2252,-2.1883,-2.1606,-2.153,-2.1272,-2.1002,-2.076,-2.0566,-2.0411,-2.0216,-2.002,-1.9902,-1.9784,-1.9745,-1.9657,-1.9446,-1.9192,-1.9016,-1.8704,-1.8276,-1.7954,-1.7726,-1.7599,-1.748,-1.7461,-1.7461,-1.7426,-1.7426,-1.7323,-1.7254,-1.7176,-1.7141,-1.7012,-1.6908,-1.6804,-1.67,-1.6517,-1.6316,-1.6211,-1.614,-1.6035,-1.5885,-1.5842,-1.5947,-1.6061,-1.5921,-1.578,-1.5638,-1.5461,-1.5355,-1.5141,-2.4258,-2.4409,-2.5533,-2.5901,-2.5884,-2.6129,-2.6284,-2.6427,-2.648,-2.67,-2.6875,-2.6943,-2.6867,-2.6819,-2.6795,-2.6586,-2.5984,-2.5959,-2.5702,-2.5454,-2.5312,-2.5099,-2.5228,-2.5573,-2.5992,-2.5833,-2.6227,-2.6363,-2.6093,-2.5874,-2.5801,-2.5812,-2.5338,-2.5242,-2.5295,-2.5422,-2.5644,-2.5822,-2.5853,-2.5906,-2.5906,-2.5895,-2.5948,-2.5948,-2.5872,-2.5686,-2.5278,-2.477,-2.4281,-2.3897,-2.336,-2.3049,-2.3038,-2.3027,-2.3001,-2.2964,-2.2852,-2.2815,-2.2815,-2.2889,-2.2889,-2.2628,-2.2289,-2.1959,-2.1797,-2.1474,-2.1195,-2.0982,-2.0722,-2.0537,-2.0294,-2.0098,-1.9902,-1.9745,-1.9557,-1.9518,-1.9399,-1.924,-1.9161,-1.9042,-1.8942,-1.881,-1.8593,-1.8168,-1.7761,-1.7554,-1.7244,-1.7116,-1.722,-1.722,-1.722,-1.7151,-1.7012,-1.6864,-1.6673,-1.6612,-1.6586,-1.6517,-1.6412,-1.6351,-1.6272,-1.607,-1.5823,-1.5718,-1.5611,-1.539,-1.524,-1.5311,-1.5346,-1.5248,-1.5141,-1.5043,-1.4864,-1.4677,-1.4461,-2.4189,-2.4235,-2.4736,-2.4966,-2.5035,-2.5289,-2.5551,-2.5758,-2.599,-2.6302,-2.6611,-2.6611,-2.6487,-2.628,-2.6176,-2.5886,-2.5382,-2.5206,-2.5028,-2.4826,-2.4658,-2.4616,-2.4874,-2.5268,-2.5698,-2.5718,-2.6103,-2.6229,-2.5937,-2.5411,-2.52,-2.5158,-2.4956,-2.4946,-2.5031,-2.5242,-2.5475,-2.5644,-2.5738,-2.578,-2.5906,-2.5895,-2.5895,-2.5895,-2.5895,-2.5819,-2.5535,-2.4898,-2.4414,-2.3872,-2.3216,-2.2907,-2.2692,-2.2665,-2.2665,-2.2665,-2.2553,-2.2537,-2.251,-2.2563,-2.2478,-2.2176,-2.1911,-2.1645,-2.1339,-2.1002,-2.076,-2.0489,-2.0177,-1.9951,-1.9696,-1.9469,-1.928,-1.921,-1.913,-1.9051,-1.8962,-1.8763,-1.8683,-1.8603,-1.8683,-1.8731,-1.846,-1.8163,-1.7735,-1.737,-1.7034,-1.6804,-1.6874,-1.6899,-1.6864,-1.683,-1.67,-1.656,-1.6403,-1.6298,-1.6237,-1.6132,-1.6026,-1.5991,-1.5885,-1.563,-1.5417,-1.5284,-1.5185,-1.4955,-1.4812,-1.4705,-1.4705,-1.4784,-1.4677,-1.4505,-1.4289,-1.4036,-1.3848,-2.4189,-2.4189,-2.4189,-2.4309,-2.4526,-2.4754,-2.4981,-2.5241,-2.55,-2.5816,-2.607,-2.607,-2.5861,-2.5629,-2.5523,-2.5206,-2.4767,-2.4515,-2.4394,-2.425,-2.4125,-2.4215,-2.4506,-2.4914,-2.5318,-2.5591,-2.5757,-2.577,-2.5644,-2.5158,-2.4946,-2.4786,-2.4625,-2.4658,-2.4786,-2.5031,-2.5253,-2.5422,-2.5517,-2.5517,-2.5675,-2.5675,-2.5686,-2.5686,-2.5728,-2.5717,-2.55,-2.4938,-2.4421,-2.3921,-2.3348,-2.2767,-2.2531,-2.2392,-2.2392,-2.2365,-2.2311,-2.2277,-2.2372,-2.2239,-2.2122,-2.1911,-2.1492,-2.1223,-2.0876,-2.0527,-2.0186,-1.9971,-1.9636,-1.932,-1.9103,-1.8953,-1.8843,-1.8763,-1.8474,-1.8393,-1.8322,-1.8193,-1.8201,-1.8161,-1.8241,-1.8184,-1.7942,-1.7618,-1.7368,-1.7025,-1.6794,-1.6552,-1.6517,-1.6517,-1.6482,-1.6447,-1.6342,-1.6246,-1.614,-1.6026,-1.5885,-1.57,-1.563,-1.5603,-1.5453,-1.5204,-1.5062,-1.4955,-1.4784,-1.4561,-1.4382,-1.4281,-1.4317,-1.4418,-1.4245,-1.4,-1.3702,-1.3448,-1.3375,-2.4189,-2.4189,-2.4189,-2.4309,-2.4502,-2.4502,-2.4718,-2.5016,-2.5087,-2.5194,-2.5418,-2.5382,-2.5158,-2.4874,-2.4838,-2.4515,-2.4141,-2.3959,-2.3861,-2.3703,-2.3764,-2.385,-2.4193,-2.4625,-2.5167,-2.5259,-2.5426,-2.5464,-2.5295,-2.4988,-2.4743,-2.4625,-2.454,-2.454,-2.454,-2.4786,-2.4988,-2.5158,-2.52,-2.5242,-2.5285,-2.5327,-2.5327,-2.538,-2.5506,-2.5506,-2.5272,-2.4927,-2.4446,-2.3932,-2.3299,-2.2745,-2.241,-2.2294,-2.2262,-2.2262,-2.1953,-2.2007,-2.2298,-2.2007,-2.1837,-2.1691,-2.1258,-2.08,-2.0508,-2.0059,-1.9597,-1.9381,-1.9073,-1.8882,-1.8683,-1.8523,-1.8362,-1.8241,-1.7951,-1.787,-1.7829,-1.7789,-1.7797,-1.7838,-1.7595,-1.7432,-1.7208,-1.6979,-1.6834,-1.6614,-1.6457,-1.6342,-1.6184,-1.6096,-1.6026,-1.5991,-1.5921,-1.5885,-1.578,-1.5638,-1.5497,-1.5311,-1.524,-1.5204,-1.5141,-1.4963,-1.482,-1.4641,-1.4461,-1.4253,-1.4029,-1.3811,-1.3811,-1.3768,-1.3666,-1.3455,-1.3119,-1.2936,-1.2929,-2.4189,-2.4189,-2.4189,-2.4298,-2.4454,-2.4357,-2.4514,-2.4838,-2.5004,-2.5111,-2.5111,-2.5052,-2.473,-2.4467,-2.4311,-2.4105,-2.374,-2.353,-2.342,-2.3442,-2.3563,-2.3979,-2.4331,-2.4737,-2.5212,-2.5485,-2.5516,-2.5327,-2.5242,-2.4861,-2.4658,-2.4497,-2.4507,-2.4507,-2.4497,-2.4615,-2.4743,-2.4946,-2.5031,-2.5073,-2.52,-2.52,-2.52,-2.52,-2.5285,-2.5285,-2.5137,-2.4806,-2.4425,-2.3924,-2.3307,-2.2658,-2.226,-2.2059,-2.1689,-2.1712,-2.1533,-2.172,-2.1868,-2.1748,-2.153,-2.1362,-2.1095,-2.0505,-1.988,-1.9587,-1.9192,-1.8794,-1.8514,-1.8282,-1.8031,-1.7838,-1.7716,-1.7716,-1.7554,-1.7554,-1.7514,-1.7514,-1.7514,-1.7514,-1.7392,-1.731,-1.7171,-1.6651,-1.6385,-1.6121,-1.5937,-1.5749,-1.5611,-1.5559,-1.5488,-1.5453,-1.5453,-1.5417,-1.539,-1.5284,-1.5248,-1.5133,-1.5034,-1.4935,-1.4828,-1.4677,-1.4497,-1.431,-1.4109,-1.3935,-1.3637,-1.3375,-1.3149,-1.3039,-1.301,-1.2973,-1.2783,-1.2673,-1.2636,-2.4097,-2.3912,-2.3936,-2.4044,-2.421,-2.4301,-2.449,-2.479,-2.4921,-2.4981,-2.4957,-2.479,-2.4538,-2.4236,-2.4018,-2.3824,-2.3482,-2.3298,-2.3187,-2.322,-2.3323,-2.3848,-2.4406,-2.4876,-2.5259,-2.5574,-2.5506,-2.52,-2.52,-2.4743,-2.454,-2.4497,-2.4507,-2.4507,-2.4497,-2.454,-2.4572,-2.4743,-2.4775,-2.4818,-2.4861,-2.4903,-2.4946,-2.4946,-2.4988,-2.5031,-2.4914,-2.4693,-2.4388,-2.3867,-2.3278,-2.2583,-2.221,-2.1809,-2.1461,-2.1501,-2.1507,-2.1581,-2.1534,-2.166,-2.1451,-2.1078,-2.0897,-2.0363,-1.9522,-1.9132,-1.87,-1.8322,-1.7959,-1.7757,-1.7595,-1.7359,-1.727,-1.727,-1.7188,-1.7188,-1.7147,-1.7106,-1.7057,-1.7098,-1.7098,-1.7066,-1.6976,-1.6453,-1.5958,-1.5683,-1.5383,-1.5263,-1.5147,-1.5106,-1.5098,-1.5098,-1.5133,-1.5169,-1.5133,-1.5034,-1.4963,-1.4927,-1.4784,-1.4649,-1.4497,-1.4353,-1.4165,-1.3949,-1.3783,-1.3572,-1.3229,-1.2936,-1.2716,-1.2532,-1.2409,-1.2409,-1.2372,-1.2372,-1.2298,-2.3856,-2.3419,-2.3384,-2.3536,-2.3793,-2.4341,-2.4682,-2.4837,-2.4825,-2.4825,-2.4825,-2.467,-2.4418,-2.4152,-2.3824,-2.3556,-2.3335,-2.315,-2.3075,-2.3082,-2.3209,-2.3787,-2.4268,-2.4639,-2.5218,-2.5541,-2.5506,-2.52,-2.5158,-2.4754,-2.4497,-2.4507,-2.4507,-2.4507,-2.4507,-2.4507,-2.454,-2.4583,-2.4583,-2.4625,-2.4668,-2.4583,-2.4625,-2.4658,-2.4743,-2.4754,-2.468,-2.4607,-2.424,-2.3854,-2.342,-2.2865,-2.2416,-2.2103,-2.1969,-2.1797,-2.1646,-2.1366,-2.124,-2.1385,-2.1216,-2.0764,-2.0271,-1.9952,-1.953,-1.8809,-1.8322,-1.7872,-1.7514,-1.7392,-1.7278,-1.7106,-1.6984,-1.6902,-1.6779,-1.6738,-1.6697,-1.6656,-1.6607,-1.6566,-1.6525,-1.6476,-1.6363,-1.5971,-1.5716,-1.5529,-1.5285,-1.5051,-1.4989,-1.49,-1.4892,-1.4883,-1.4919,-1.4955,-1.4856,-1.4705,-1.4633,-1.4561,-1.4418,-1.4245,-1.4129,-1.4021,-1.3804,-1.363,-1.3492,-1.3236,-1.2863,-1.2532,-1.2294,-1.2116,-1.2127,-1.2042,-1.2085,-1.1972,-1.1892,-2.3064,-2.2903,-2.2983,-2.3397,-2.4026,-2.4897,-2.523,-2.5182,-2.5147,-2.5147,-2.5147,-2.4849,-2.4562,-2.42,-2.408,-2.3751,-2.3457,-2.3224,-2.3113,-2.3152,-2.3263,-2.3875,-2.4355,-2.4738,-2.5306,-2.55,-2.5432,-2.5115,-2.5073,-2.47,-2.4507,-2.4507,-2.4507,-2.4507,-2.4507,-2.4507,-2.4507,-2.4507,-2.4507,-2.4507,-2.4507,-2.4507,-2.4507,-2.454,-2.4583,-2.4497,-2.4368,-2.4368,-2.4053,-2.3788,-2.3305,-2.2792,-2.25,-2.1945,-2.155,-2.1276,-2.1133,-2.0938,-2.0873,-2.0899,-2.0809,-2.041,-1.9887,-1.9358,-1.8977,-1.8594,-1.8002,-1.7557,-1.7188,-1.7023,-1.6811,-1.6664,-1.6574,-1.6492,-1.6417,-1.6417,-1.6376,-1.6376,-1.6286,-1.6196,-1.6154,-1.6072,-1.5951,-1.581,-1.5585,-1.5385,-1.518,-1.4957,-1.479,-1.4718,-1.4621,-1.4613,-1.4597,-1.4597,-1.4453,-1.4274,-1.4238,-1.4201,-1.4021,-1.3876,-1.3739,-1.3593,-1.3411,-1.3251,-1.3029,-1.2751,-1.2489,-1.2216,-1.2105,-1.2062,-1.2005,-1.1866,-1.1758,-1.1721,-1.1627,-2.2491,-2.2386,-2.2408,-2.2933,-2.3915,-2.5163,-2.5711,-2.5699,-2.5606,-2.5535,-2.55,-2.5159,-2.4838,-2.4647,-2.4334,-2.4007,-2.3677,-2.3372,-2.3224,-2.3238,-2.3329,-2.3613,-2.4081,-2.4411,-2.4732,-2.502,-2.5102,-2.4819,-2.4925,-2.4743,-2.4507,-2.4507,-2.4507,-2.4507,-2.4507,-2.4507,-2.4507,-2.4507,-2.4507,-2.4507,-2.4507,-2.4507,-2.4454,-2.4368,-2.4368,-2.4249,-2.4077,-2.4024,-2.3894,-2.3711,-2.3229,-2.2912,-2.2495,-2.1845,-2.1364,-2.1101,-2.0775,-2.0561,-2.0404,-2.0266,-2.0164,-1.9977,-1.9673,-1.9242,-1.8824,-1.8446,-1.7809,-1.7289,-1.6951,-1.6664,-1.6371,-1.6136,-1.6136,-1.6136,-1.6136,-1.6136,-1.6136,-1.6136,-1.6046,-1.5955,-1.588,-1.5797,-1.5715,-1.5598,-1.5415,-1.5218,-1.5061,-1.4883,-1.4706,-1.4597,-1.4431,-1.4305,-1.4253,-1.4209,-1.4057,-1.3949,-1.392,-1.3848,-1.3659,-1.3521,-1.3346,-1.3221,-1.3089,-1.2799,-1.2476,-1.2302,-1.2218,-1.2126,-1.2023,-1.1981,-1.1959,-1.1891,-1.178,-1.1675,-1.1582,-2.2104,-2.1848,-2.1762,-2.2493,-2.3668,-2.5142,-2.5975,-2.6324,-2.6072,-2.5933,-2.5851,-2.5535,-2.5312,-2.5099,-2.4694,-2.437,-2.4007,-2.3677,-2.3372,-2.3261,-2.3067,-2.3243,-2.3442,-2.3472,-2.4035,-2.4243,-2.4428,-2.4556,-2.4702,-2.4625,-2.4507,-2.4507,-2.4507,-2.4507,-2.4507,-2.4507,-2.4507,-2.4507,-2.4497,-2.4497,-2.4454,-2.4454,-2.4411,-2.4196,-2.411,-2.4024,-2.3807,-2.3711,-2.3624,-2.3493,-2.3309,-2.2974,-2.2375,-2.1782,-2.1346,-2.0944,-2.0603,-2.0223,-2.0002,-1.9791,-1.9625,-1.9533,-1.9479,-1.9068,-1.86,-1.8401,-1.7841,-1.727,-1.6912,-1.6638,-1.6357,-1.6121,-1.6019,-1.5966,-1.5921,-1.5891,-1.5846,-1.5846,-1.5797,-1.5714,-1.5631,-1.559,-1.5541,-1.5442,-1.5315,-1.5065,-1.4889,-1.4743,-1.4614,-1.4522,-1.4336,-1.4124,-1.4079,-1.4019,-1.3811,-1.3702,-1.3601,-1.3492,-1.3368,-1.3242,-1.3158,-1.2959,-1.2776,-1.2559,-1.2312,-1.2184,-1.2093,-1.192,-1.1866,-1.1954,-1.191,-1.187,-1.178,-1.1688,-1.1627,-2.1295,-2.142,-2.1876,-2.2723,-2.3787,-2.4742,-2.5588,-2.6245,-2.6314,-2.6302,-2.6233,-2.5921,-2.5688,-2.5465,-2.5147,-2.479,-2.437,-2.3934,-2.3604,-2.3261,-2.2964,-2.2983,-2.324,-2.3167,-2.3484,-2.3913,-2.4175,-2.4294,-2.4532,-2.454,-2.4507,-2.4507,-2.4507,-2.4507,-2.4507,-2.4507,-2.4507,-2.4507,-2.4464,-2.4368,-2.4282,-2.4239,-2.4196,-2.398,-2.3841,-2.3624,-2.345,-2.3276,-2.3144,-2.2969,-2.275,-2.2485,-2.2176,-2.1705,-2.1329,-2.0997,-2.0555,-2.011,-1.9754,-1.9433,-1.9204,-1.8897,-1.8797,-1.8565,-1.8347,-1.8298,-1.7976,-1.7365,-1.6942,-1.662,-1.6385,-1.6128,-1.593,-1.5848,-1.576,-1.5693,-1.5612,-1.5597,-1.5548,-1.5506,-1.5423,-1.5382,-1.534,-1.5284,-1.5171,-1.5011,-1.4816,-1.4662,-1.4524,-1.4406,-1.4338,-1.4152,-1.4036,-1.391,-1.3704,-1.355,-1.3519,-1.3327,-1.3172,-1.3049,-1.2952,-1.2775,-1.2549,-1.2427,-1.2247,-1.2061,-1.183,-1.1575,-1.1566,-1.1823,-1.1893,-1.1852,-1.177,-1.1671,-1.1687,-2.0903,-2.1131,-2.1807,-2.2645,-2.3597,-2.4394,-2.5281,-2.5988,-2.6305,-2.6383,-2.6393,-2.6141,-2.598,-2.5758,-2.5465,-2.5135,-2.4647,-2.4141,-2.3776,-2.3372,-2.2997,-2.2805,-2.2847,-2.2811,-2.291,-2.3292,-2.3865,-2.4168,-2.4447,-2.4507,-2.4507,-2.4507,-2.4507,-2.4507,-2.4507,-2.4507,-2.4507,-2.4507,-2.4421,-2.4249,-2.4067,-2.4067,-2.3894,-2.3667,-2.345,-2.3222,-2.296,-2.2784,-2.2706,-2.2574,-2.2441,-2.2318,-2.2008,-2.166,-2.1284,-2.0916,-2.0464,-1.9936,-1.9625,-1.9258,-1.8881,-1.8612,-1.8481,-1.8442,-1.8203,-1.8078,-1.7788,-1.7243,-1.7145,-1.6862,-1.6499,-1.6227,-1.6058,-1.594,-1.5845,-1.5757,-1.5624,-1.5472,-1.5472,-1.5472,-1.5389,-1.534,-1.5298,-1.5215,-1.5068,-1.4887,-1.4727,-1.4692,-1.451,-1.4337,-1.4266,-1.4159,-1.4052,-1.3894,-1.3741,-1.3615,-1.3539,-1.3317,-1.3054,-1.2907,-1.2784,-1.2556,-1.2353,-1.2215,-1.2035,-1.1845,-1.1613,-1.1431,-1.1603,-1.1876,-1.1863,-1.182,-1.1725,-1.1618,-1.1683,-2.0687,-2.0939,-2.1564,-2.2298,-2.311,-2.4014,-2.4873,-2.5634,-2.599,-2.6176,-2.6255,-2.6141,-2.6166,-2.6015,-2.5641,-2.5312,-2.4921,-2.4358,-2.397,-2.3482,-2.2964,-2.273,-2.2466,-2.226,-2.2433,-2.2806,-2.3421,-2.394,-2.4364,-2.4425,-2.4507,-2.4507,-2.4507,-2.4507,-2.4507,-2.4497,-2.4497,-2.4421,-2.4292,-2.4067,-2.398,-2.3937,-2.3624,-2.3319,-2.3013,-2.2784,-2.2485,-2.2309,-2.2309,-2.222,-2.2097,-2.2052,-2.1919,-2.1616,-2.1284,-2.0916,-2.0329,-1.9891,-1.9541,-1.912,-1.8789,-1.852,-1.8481,-1.8288,-1.804,-1.7779,-1.749,-1.7362,-1.7219,-1.7062,-1.6705,-1.6455,-1.625,-1.6096,-1.5994,-1.5841,-1.5673,-1.5506,-1.5435,-1.5427,-1.5342,-1.5258,-1.5146,-1.5055,-1.4915,-1.4734,-1.4657,-1.4657,-1.4587,-1.4379,-1.4248,-1.4144,-1.4053,-1.3907,-1.3745,-1.3669,-1.3574,-1.3338,-1.3076,-1.2851,-1.2641,-1.2538,-1.2314,-1.1998,-1.1811,-1.1608,-1.1525,-1.1444,-1.1673,-1.174,-1.1584,-1.1374,-1.1428,-1.1423,-1.159,-2.0204,-2.054,-2.0834,-2.1455,-2.2265,-2.301,-2.3798,-2.4654,-2.5401,-2.5711,-2.5781,-2.5933,-2.6119,-2.6418,-2.6002,-2.5606,-2.517,-2.4611,-2.4032,-2.3556,-2.3001,-2.2628,-2.2365,-2.2122,-2.2213,-2.2613,-2.3101,-2.3587,-2.4136,-2.4373,-2.4507,-2.4507,-2.4507,-2.4507,-2.4507,-2.4454,-2.4411,-2.4292,-2.4153,-2.3937,-2.3677,-2.3547,-2.3319,-2.3057,-2.2838,-2.2397,-2.2052,-2.1865,-2.1741,-2.1696,-2.1696,-2.1731,-2.1651,-2.1472,-2.1239,-2.0871,-2.0283,-1.9891,-1.9487,-1.902,-1.8651,-1.828,-1.8187,-1.7955,-1.7714,-1.752,-1.7338,-1.7338,-1.7272,-1.7272,-1.7004,-1.6821,-1.6652,-1.6476,-1.6367,-1.6228,-1.6031,-1.577,-1.5526,-1.5376,-1.5184,-1.505,-1.4895,-1.4783,-1.4615,-1.444,-1.437,-1.4334,-1.4334,-1.4272,-1.4258,-1.4164,-1.4062,-1.3824,-1.3651,-1.3665,-1.3591,-1.3366,-1.3074,-1.2809,-1.2646,-1.2643,-1.2385,-1.1872,-1.1581,-1.1336,-1.1327,-1.1273,-1.1123,-1.1154,-1.0982,-1.089,-1.0992,-1.1127,-1.1257]},{"header":{"parameterUnit":"m.s-1","parameterCategory":1,"la1":31.0,"la2":29.5877,"lo1":-88.7671,"lo2":-86.6584,"dy":0.0162,"dx":0.0185,"nx":115,"ny":88,"refTime":"2023-10-05T06:00:00:Z","depth":0,"parameterNumber":3,"parameterNumberName":"V-component_of_WINDS"},"data":[0.0,0.0,0.0,0.0,0.0,0.0,0.0,0.0,0.0,0.0,0.0,0.0,0.0,0.0,0.0,0.0,0.0,0.0,0.0,0.0,0.0,0.0,0.0,0.0,0.0,0.0,0.0,0.0,0.0,0.0,0.0,0.0,0.0,0.0,0.0,0.0,0.0,0.0,0.0,0.0,0.0,0.0,0.0,0.0,0.0,0.0,0.0,0.0,0.0,0.0,0.0,0.0,0.0,0.0,0.0,0.0,0.0,0.0,0.0,0.0,0.0,0.0,0.0,0.0,0.0,0.0,0.0,0.0,0.0,0.0,0.0,0.0,0.0,0.0,0.0,0.0,0.0,0.0,0.0,0.0,0.0,0.0,0.0,0.0,0.0,0.0,0.0,0.0,0.0,0.0,0.0,0.0,0.0,0.0,0.0,0.0,0.0,0.0,0.0,0.0,0.0,0.0,0.0,0.0,0.0,0.0,0.0,0.0,0.0,0.0,0.0,0.0,0.0,0.0,0.0,0.0,0.0,0.0,0.0,0.0,0.0,0.0,0.0,0.0,0.0,0.0,0.0,0.0,0.0,0.0,0.0,0.0,0.0,0.0,0.0,0.0,0.0,0.0,0.0,0.0,0.0,0.0,0.0,0.0,0.0,0.0,0.0,0.0,0.0,0.0,0.0,0.0,0.0,0.0,0.0,0.0,0.0,0.0,0.0,0.0,0.0,0.0,0.0,0.0,0.0,0.0,0.0,0.0,0.0,0.0,0.0,0.0,0.0,0.0,0.0,0.0,0.0,0.0,0.0,0.0,0.0,0.0,0.0,0.0,0.0,0.0,0.0,0.0,0.0,0.0,0.0,0.0,0.0,0.0,0.0,0.0,0.0,0.0,0.0,0.0,0.0,0.0,0.0,0.0,0.0,0.0,0.0,0.0,0.0,0.0,0.0,0.0,0.0,0.0,0.0,0.0,0.0,0.0,0.0,0.0,0.0,0.0,0.0,0.0,0.0,0.0,0.0,0.0,0.0,0.0,0.0,0.0,0.0,0.0,0.0,0.0,0.0,0.0,0.0,0.0,0.0,0.0,0.0,0.0,0.0,0.0,0.0,0.0,0.0,0.0,0.0,0.0,0.0,0.0,0.0,0.0,0.0,0.0,0.0,0.0,0.0,0.0,0.0,0.0,0.0,0.0,0.0,0.0,0.0,0.0,0.0,0.0,0.0,0.0,0.0,0.0,0.0,0.0,0.0,0.0,0.0,0.0,0.0,0.0,0.0,0.0,0.0,0.0,0.0,0.0,0.0,0.0,0.0,0.0,0.0,0.0,0.0,0.0,0.0,0.0,0.0,0.0,0.0,0.0,0.0,0.0,0.0,0.0,0.0,0.0,0.0,0.0,0.0,0.0,0.0,0.0,0.0,0.0,0.0,0.0,0.0,0.0,0.0,0.0,0.0,0.0,0.0,0.0,0.0,0.0,0.0,0.0,0.0,0.0,0.0,0.0,0.0,0.0,0.0,0.0,0.0,0.0,0.0,0.0,0.0,0.0,0.0,0.0,0.0,0.0,0.0,0.0,0.0,0.0,0.0,0.0,0.0,0.0,0.0,0.0,0.0,0.0,0.0,0.0,0.0,0.0,0.0,0.0,0.0,0.0,0.0,0.0,0.0,0.0,0.0,0.0,0.0,0.0,0.0,0.0,0.0,0.0,0.0,0.0,0.0,0.0,0.0,0.0,0.0,0.0,0.0,0.0,0.0,0.0,0.0,0.0,0.0,0.0,0.0,0.0,0.0,0.0,0.0,0.0,0.0,0.0,0.0,0.0,0.0,0.0,0.0,0.0,0.0,0.0,0.0,0.0,0.0,0.0,0.0,0.0,0.0,0.0,0.0,0.0,0.0,0.0,0.0,0.0,0.0,0.0,0.0,0.0,0.0,0.0,0.0,0.0,0.0,0.0,0.0,0.0,0.0,0.0,0.0,0.0,0.0,0.0,0.0,0.0,0.0,0.0,0.0,0.0,0.0,0.0,0.0,0.0,0.0,0.0,0.0,0.0,0.0,0.0,0.0,0.0,0.0,0.0,0.0,0.0,0.0,0.0,0.0,0.0,0.0,0.0,0.0,0.0,0.0,0.0,0.0,0.0,0.0,0.0,0.0,0.0,0.0,0.0,0.0,0.0,0.0,0.0,0.0,0.0,0.0,0.0,0.0,0.0,0.0,0.0,0.0,0.0,0.0,0.0,0.0,0.0,0.0,0.0,0.0,0.0,0.0,0.0,0.0,0.0,0.0,0.0,0.0,0.0,0.0,0.0,0.0,0.0,0.0,0.0,0.0,0.0,0.0,0.0,0.0,0.0,0.0,0.0,0.0,0.0,0.0,0.0,0.0,0.0,0.0,0.0,0.0,0.0,0.0,0.0,0.0,0.0,0.0,0.0,0.0,0.0,0.0,0.0,0.0,0.0,0.0,0.0,0.0,0.0,0.0,0.0,0.0,0.0,0.0,0.0,0.0,0.0,0.0,0.0,0.0,0.0,0.0,0.0,0.0,0.0,0.0,0.0,0.0,0.0,0.0,0.0,0.0,0.0,0.0,0.0,0.0,0.0,0.0,0.0,0.0,0.0,0.0,0.0,0.0,0.0,0.0,0.0,0.0,0.0,0.0,0.0,0.0,0.0,0.0,0.0,0.0,0.0,0.0,0.0,0.0,0.0,0.0,0.0,0.0,0.0,0.0,0.0,0.0,0.0,0.0,0.0,0.0,0.0,0.0,0.0,0.0,0.0,0.0,0.0,0.0,0.0,0.0,0.0,0.0,0.0,0.0,0.0,0.0,0.0,0.0,0.0,0.0,0.0,0.0,0.0,0.0,0.0,0.0,0.0,0.0,0.0,0.0,0.0,0.0,0.0,0.0,0.0,0.0,0.0,0.0,0.0,0.0,0.0,0.0,0.0,0.0,0.0,0.0,0.0,0.0,0.0,0.0,0.0,0.0,0.0,0.0,0.0,0.0,0.0,0.0,0.0,0.0,0.0,0.0,0.0,0.0,0.0,0.0,0.0,0.0,0.0,0.0,0.0,0.0,0.0,0.0,0.0,0.0,0.0,0.0,0.0,0.0,0.0,0.0,0.0,0.0,0.0,0.0,0.0,0.0,0.0,0.0,0.0,0.0,0.0,0.0,0.0,0.0,0.0,0.0,0.0,0.0,0.0,0.0,0.0,0.0,0.0,0.0,0.0,0.0,0.0,0.0,0.0,0.0,0.0,0.0,0.0,0.0,0.0,0.0,0.0,0.0,0.0,0.0,0.0,0.0,0.0,0.0,0.0,0.0,0.0,0.0,0.0,0.0,0.0,0.0,0.0,0.0,0.0,0.0,0.0,0.0,0.0,0.0,0.0,0.0,0.0,0.0,0.0,0.0,0.0,0.0,0.0,0.0,0.0,0.0,0.0,0.0,0.0,0.0,0.0,0.0,0.0,0.0,0.0,0.0,0.0,0.0,0.0,0.0,0.0,0.0,0.0,0.0,0.0,0.0,0.0,0.0,0.0,0.0,0.0,0.0,0.0,0.0,0.0,0.0,0.0,0.0,0.0,0.0,0.0,0.0,0.0,0.0,0.0,0.0,0.0,0.0,0.0,0.0,0.0,0.0,0.0,0.0,0.0,0.0,0.0,0.0,0.0,0.0,0.0,0.0,0.0,0.0,0.0,0.0,0.0,0.0,0.0,0.0,0.0,0.0,0.0,0.0,0.0,0.0,0.0,0.0,0.0,0.0,0.0,0.0,0.0,0.0,0.0,0.0,0.0,0.0,0.0,0.0,0.0,0.0,0.0,0.0,0.0,0.0,0.0,0.0,0.0,0.0,0.0,0.0,0.0,0.0,0.0,0.0,0.0,0.0,0.0,0.0,0.0,0.0,0.0,0.0,0.0,0.0,0.0,0.0,0.0,0.0,0.0,0.0,0.0,0.0,0.0,0.0,0.0,0.0,0.0,0.0,0.0,0.0,0.0,0.0,0.0,0.0,0.0,0.0,0.0,0.0,0.0,0.0,0.0,0.0,0.0,0.0,0.0,0.0,0.0,0.0,0.0,0.0,0.0,0.0,0.0,0.0,0.0,0.0,0.0,0.0,0.0,0.0,0.0,0.0,0.0,0.0,0.0,0.0,0.0,0.0,0.0,0.0,0.0,0.0,0.0,0.0,0.0,0.0,0.0,0.0,0.0,0.0,0.0,0.0,0.0,0.0,0.0,0.0,0.0,0.0,0.0,0.0,0.0,0.0,0.0,0.0,0.0,0.0,0.0,0.2084,0.0,0.0,0.0,0.0,0.0,0.0,0.0,0.0,0.0,0.0,0.0,0.0,0.0,0.0,0.0,0.0,0.0,0.0,0.0,0.0,0.0,0.0,0.0,0.0,0.0,0.0,0.0,0.0,0.0,0.0,0.0,0.0,0.0,0.0,0.0,0.0,0.0,0.0,0.0,0.0,0.0,0.0,0.0,0.0,0.0,0.0,0.0,0.0,0.0,0.0,0.0,0.0,0.0,0.0,0.0,0.0,0.0,0.0,0.0,0.0,0.0,0.0,0.0,0.0,0.0,0.0,0.0,0.0,0.0,0.0,0.0,0.0,0.0,0.0,0.0,0.0,0.0,0.0,0.0,0.0,0.0,0.0,0.0,0.0,0.0,0.0,0.0,0.0,0.0,0.0,0.0,0.0,0.0,0.0,0.0,0.0,0.0,0.0,0.0,0.0,0.0,0.0,0.0,0.0,0.0,0.0,0.0,0.0,0.0,0.0,0.4019,0.3364,0.2799,0.2291,0.1839,0.0,0.0,0.0,0.0,0.0,0.0,0.0,0.0,0.0,0.0,0.0,0.0,0.0,0.0,0.0,0.0,0.0,0.0,0.0,0.0,0.0,0.0,0.0,0.0,0.0,0.0,0.0,0.0,0.0,0.0,0.0,0.0,0.0,0.0,0.0,0.0,0.0,0.0,0.0,0.0,0.0,0.0,0.0,0.0,0.0,0.0,0.0,0.0,0.0,0.0,0.0,0.0,0.0,0.0,0.0,0.0,0.0,0.0,0.0,0.0,0.0,0.0,0.0,0.0,0.0,0.0,0.0,0.0,0.0,0.0,0.0,0.0,0.0,0.0,0.0,0.0,0.0,0.0,0.0,0.0,0.0,0.0,0.0,0.0,0.0,0.0,0.0,0.0,0.0,0.0,0.0,0.0,0.0,0.0,0.0,0.0,0.0,0.0,0.0,0.0,0.0,0.0,0.0,0.0,0.0,0.0,0.0,0.0,0.0,0.0,0.0,0.0,0.2778,0.2213,0.1503,0.0,0.0,0.0,0.0,0.0,0.0,0.0,0.0,0.0,0.0,0.0,0.0,0.0,0.0,0.0,0.0,0.0,0.0,0.0,0.0,0.0,0.0,0.0,0.0,0.0,0.0,0.0,0.0,0.0,0.0,0.0,0.0,0.0,0.0,0.0,0.0,0.0,0.0,0.0,0.0,0.0,0.0,0.0,0.0,0.0,0.0,0.0,0.0,0.0,0.0,0.0,0.0,0.0,0.0,0.0,0.0,0.0,0.0,0.0,0.0,0.0,0.0,0.0,0.0,0.0,0.0,0.0,0.0,0.0,0.0,0.0,0.0,0.0,0.0,0.0,0.0,0.0,0.0,0.0,0.0,0.0,0.0,0.0,0.0,0.0,0.0,0.0,0.0,0.0,0.0,0.0,0.0,0.0,0.0,0.0,0.0,0.0,0.0,0.0,0.0,0.0,0.0,0.0,0.0,0.0,0.0,0.0,0.0,0.0,0.0,0.3994,0.3498,0.2728,0.0,0.1124,0.0,0.0,0.0,0.0,0.0,0.0,0.0,0.0,0.0,0.0,0.0,0.0,0.0,0.0,0.0,0.0,0.0,0.0,0.0,0.0,0.0,0.0,0.0,0.0,0.0,0.0,0.0,0.0,0.0,0.0,0.0,0.0,0.0,0.0,0.0,0.0,0.0,0.0,0.0,0.0,0.0,0.0,0.0,0.0,0.0,0.0,0.0,0.0,0.0,0.0,0.0,0.0,0.0,0.0,0.0,0.0,0.0,0.0,0.0,0.0,0.0,0.0,0.0,0.0,0.0,0.0,0.0,0.0,0.0,0.0,0.0,0.0,0.0,0.0,0.0,0.0,0.0,0.0,0.0,0.0,0.0,0.0,0.0,0.0,0.0,0.0,0.0,0.0,0.0,0.0,0.0,0.0,0.0,0.0,0.0,0.0,0.0,0.0,0.0,0.0,0.0,0.0,0.0,0.0,0.0,0.0,0.0,0.0,0.0,0.0,0.4027,0.3525,0.2485,0.1678,0.0,0.0,0.0,0.0,0.0,0.0,0.0,0.0,0.0,0.0,0.0,0.0,0.0,0.0,0.0,0.0,0.0,0.0,0.0,0.0,0.0,0.0,0.0,0.0,0.0,0.0,0.0,0.0,0.0,0.0,0.0,0.0,0.0,0.0,0.0,0.0,0.0,0.0,0.0,0.0,0.0,0.0,0.0,0.0,0.0,0.0,0.0,0.0,0.0,0.0,0.0,0.0,0.0,0.0,0.0,0.0,0.0,0.0,0.0,0.0,0.0,0.0,0.0,0.0,0.0,0.0,0.0,0.0,0.0,0.0,0.0,0.0,0.0,0.0,0.0,0.0,0.0,0.0,0.0,0.0,0.0,0.0,0.0,0.0,0.0,0.0,0.0,0.0,0.0,0.0,0.0,0.0,0.0,0.0,0.0,0.0,0.0,0.0,0.0,0.0,0.0,0.0,0.0,0.0,0.0,0.0,0.0,0.0,0.0,0.0,0.4561,0.3971,0.3265,0.2213,0.151,0.1111,0.0,0.0,0.0,0.0,0.0,0.0,0.0,0.0,0.0,0.0,0.0,0.0,0.0,0.0,0.0,0.0,0.0,0.0,0.0,0.0,0.0,0.0,0.0,0.0,0.0,0.0,0.0,0.0,0.0,0.0,0.0,0.0,0.0,0.0,0.0,0.0,0.0,0.0,0.0,0.0,0.0,0.0,0.0,0.0,0.0,0.0,0.0,0.0,0.0,0.0,0.0,0.0,0.0,0.0,0.0,0.0,0.0,0.0,0.0,0.0,0.0,0.0,0.0,0.0,0.0,0.0,0.0,0.0,0.0,0.0,0.0,0.0,0.0,0.0,0.0,0.0,0.0,0.0,0.0,0.0,0.0,0.0,0.0,0.0,0.0,0.0,0.0,0.0,0.0,0.0,0.0,0.0,0.0,0.0,0.0,0.0,0.0,0.0,0.0,0.0,0.0,0.0,0.0,0.0,0.0,0.0,0.0,0.0,0.5183,0.4601,0.3746,0.2695,0.1949,0.1459,0.0,0.0,0.0,0.0,0.0,0.0,0.0,0.0,0.0,0.0,0.0,0.0,0.0,0.0,0.0,0.0,0.0,0.0,0.0,0.0,0.0,0.0,0.0,0.0,0.0,0.0,0.0,0.0,0.0,0.0,0.0,0.0,0.0,0.0,0.0,0.0,0.0,0.0,0.0,0.0,0.0,0.0,0.0,0.0,0.0,0.0,0.0,0.0,0.0,0.0,0.0,0.0,0.0,0.0,0.0,0.0,0.0,0.0,0.0,0.0,0.0,0.0,0.0,0.0,0.0,0.0,0.0,0.0,0.0,0.0,0.0,0.0,0.0,0.0,0.0,0.0,0.0,0.0,0.0,0.0,0.0,0.0,0.0,0.0,0.0,0.0,0.0,0.0,0.0,0.0,0.0,0.0,0.0,0.0,0.0,0.0,0.0,0.0,0.0,0.0,0.0,0.0,0.0,0.0,0.0,0.0,0.0,0.0,0.0,0.5198,0.446,0.3569,0.2645,0.1935,0.141,0.0,0.0,0.0,0.0,0.0,0.0,0.0,0.0,0.0,0.0,0.0,0.0,0.0,0.0,0.0,0.0,0.0,0.0,0.0,0.0,0.0,0.0,0.0,0.0,0.0,0.0,0.0,0.0,0.0,0.0,0.0,0.0,0.0,0.0,0.0,0.0,0.0,0.0,0.0,0.0,0.0,0.0,0.0,0.0,0.0,0.0,0.0,0.0,0.0,0.0,0.0,0.0,0.0,0.0,0.0,0.0,0.0,0.0,0.0,0.0,0.0,0.0,0.0,0.0,0.0,0.0,0.0,0.0,0.0,0.0,0.0,0.0,0.0,0.0,0.0,0.0,0.0,0.0,0.0,0.0,0.0,0.0,0.0,0.0,0.0,0.0,0.0,0.0,0.0,0.0,0.0,0.0,0.0,0.0,0.0,0.0,0.0,0.0,0.0,0.0,0.0,0.0,0.0,0.0,0.0,0.0,0.0,0.0,0.0,0.5141,0.0,0.3557,0.0,0.1926,0.132,0.0,0.0,0.0,0.0,0.0,0.0,0.0,0.0,0.0,0.0,0.0,0.0,0.0,0.0,0.0,0.0,0.0,0.0,0.0,0.0,0.0,0.0,0.0,0.0,0.0,0.0,0.0,0.0,0.0,0.0,0.0,0.0,0.0,0.0,0.0,0.0,0.0,0.0,0.0,0.0,0.0,0.0,0.0,0.0,0.0,0.0,0.0,0.0,0.0,0.0,0.0,0.0,0.0,0.0,0.0,0.0,0.0,0.0,0.0,0.0,0.0,0.0,0.0,0.0,0.0,0.0,0.0,0.0,0.0,0.0,0.0,0.0,0.0,0.0,0.0,0.0,0.0,0.0,0.0,0.0,0.0,0.0,0.0,0.0,0.0,0.0,0.0,0.0,0.0,0.0,0.0,0.0,0.0,0.0,0.0,0.0,0.0,0.0,0.0,0.0,0.0,0.0,0.0,0.0,0.0,0.0,0.0,0.0,0.5899,0.5043,0.4449,0.3727,0.2818,0.1933,0.1268,0.0,0.0,0.0,0.0,0.0,0.0,0.0,0.0,0.0,0.0,0.0,0.0,0.0,0.0,0.0,0.0,0.0,0.0,0.0,0.0,0.0,0.0,0.0,0.0,0.0,0.0,0.0,0.0,0.0,0.0,0.0,0.0,0.0,0.0,0.0,0.0,0.0,0.0,0.0,0.0,0.0,0.0,0.0,0.0,0.0,0.0,0.0,0.0,0.0,0.0,0.0,0.0,0.0,0.0,0.0,0.0,0.0,0.0,0.0,0.0,0.0,0.0,0.0,0.0,0.0,0.0,0.0,0.0,0.0,0.0,0.0,0.0,0.0,0.0,0.0,0.0,0.0,0.0,0.0,0.0,0.0,0.0,0.0,0.0,0.0,0.0,0.0,0.0,0.0,0.0,0.0,0.0,0.0,0.0,0.0,0.0,0.0,0.0,0.0,0.0,0.0,0.0,0.0,0.0,0.0,0.0,0.0,0.0,0.0,0.5646,0.4924,0.4189,0.3307,0.2388,0.1652,0.0,0.0,0.0,0.0,0.0,0.0,0.0,0.0,0.0,0.0,0.0,0.0,0.0,0.0,0.0,0.0,0.0,0.0,0.0,0.0,0.0,0.0,0.0,0.0,0.0,0.0,0.0,0.0,0.0,0.0,0.0,0.0,0.0,0.0,0.0,0.0,0.0,0.0,0.0,0.0,0.0,0.0,0.0,0.0,0.0,0.0,0.0,0.0,0.0,0.0,0.0,0.0,0.0,0.0,0.0,0.0,0.0,0.0,0.0,0.0,0.0,0.0,0.0,0.0,0.0,0.0,0.0,0.0,0.0,0.0,0.0,0.0,0.0,0.0,0.0,0.0,0.0,0.0,0.0,0.0,0.0,0.0,0.0,0.0,0.0,0.0,0.0,0.0,0.0,0.0,0.0,0.0,0.0,0.0,0.0,0.0,0.0,0.0,0.0,0.0,0.0,0.0,0.0,0.0,0.0,0.0,0.0,0.0,0.0,0.677,0.5744,0.4775,0.3911,0.2947,0.2125,0.1479,0.0,0.0,0.0,0.0,0.0,0.0,0.0,0.0,0.0,0.0,0.0,0.0,0.0,0.0,0.0,0.0,0.0,0.0,0.0,0.0,0.0,0.0,0.0,0.0,0.0,0.0,0.0,0.0,0.0,0.0,0.0,0.0,0.0,0.0,0.0,0.0,0.0,0.0,0.0,0.0,0.0,0.0,0.0,0.0,0.0,0.0,0.0,0.0,0.0,0.0,0.0,0.0,0.0,0.0,0.0,0.0,0.0,0.0,0.0,0.0,0.0,0.0,0.0,0.0,0.0,0.0,0.0,0.0,0.0,0.0,0.0,0.0,0.0,0.0,0.0,0.0,0.0,0.0,0.0,0.0,0.0,0.0,0.0,0.0,0.0,0.0,0.0,0.0,0.0,0.0,0.0,0.0,0.0,0.0,0.0,0.0,0.0,0.0,0.0,0.0,0.0,0.0,0.0,0.0,0.0,0.0,0.0,0.0,0.8324,0.6859,0.5636,0.4621,0.3615,0.2648,0.0,0.0,0.0,0.0,0.0,0.0,0.0,0.0,0.0,0.0,0.0,0.0,0.0,0.0,0.0,0.0,0.0,0.0,0.0,0.0,0.0,0.0,0.0,0.0,0.0,0.0,0.0,0.0,0.0,0.0,0.0,0.0,0.0,0.0,0.0,0.0,0.0,0.0,0.0,0.0,0.0,0.0,0.0,0.0,0.0,0.0,0.0,0.0,0.0,0.0,0.0,0.0,0.0,0.0,0.0,0.0,0.0,0.0,0.0,0.0,0.0,0.0,0.0,0.0,0.0,0.0,0.0,0.0,0.0,0.0,0.0,0.0,0.0,0.0,0.0,0.0,0.0,0.0,0.0,0.0,0.0,0.0,0.0,0.0,0.0,0.0,0.0,0.0,0.0,0.0,0.0,0.0,0.0,0.0,0.0,0.0,0.0,0.0,0.0,0.0,0.0,0.0,0.0,0.0,0.0,0.0,0.0,0.0,0.0,0.9571,0.8666,0.7383,0.5678,0.4529,0.3546,0.0,0.0,0.0,0.0,0.0,0.0,0.0,0.0,0.0,0.0,0.0,0.0,0.0,0.0,0.0,0.0,0.0,0.0,0.0,0.0,0.0,0.0,0.0,0.0,0.0,0.0,0.0,0.0,0.0,0.0,0.0,0.0,0.0,0.0,0.0,0.0,0.0,0.0,0.0,0.0,0.0,0.0,0.0,0.0,0.0,0.0,0.0,0.0,0.0,0.0,0.0,0.0,0.0,0.0,0.0,0.0,0.0,0.0,0.0,0.0,0.0,0.0,0.0,0.0,0.0,0.0,0.0,0.0,0.0,0.0,0.0,0.0,0.0,0.0,0.0,0.0,0.0,0.0,0.0,0.0,0.0,0.0,0.0,0.0,0.0,0.0,0.0,0.0,0.0,0.0,0.0,0.0,0.0,0.0,0.0,0.0,0.0,0.0,0.0,0.0,0.0,0.0,0.0,0.0,0.0,0.0,0.0,0.0,1.0662,1.0725,1.0082,0.9053,0.7648,0.5935,0.4624,0.0,0.0,0.0,0.0,0.0,0.0,0.0,0.0,0.0,0.0,0.0,0.0,0.0,0.0,0.0,0.0,0.0,0.0,0.0,0.0,0.0,0.0,0.0,0.0,0.0,0.0,0.0,0.0,0.0,0.0,0.0,0.0,0.0,0.0,0.0,0.0,0.0,0.0,0.0,0.0,0.0,0.0,0.0,0.0,0.0,0.0,0.0,0.0,0.0,0.0,0.0,0.0,0.0,0.0,0.0,0.0,0.0,0.0,0.0,0.0,0.0,0.0,0.0,0.0,0.0,0.0,0.0,0.0,0.0,0.0,0.0,0.0,0.0,0.0,0.0,0.0,0.0,0.0,0.0,0.0,0.0,0.0,0.0,0.0,0.0,0.0,0.0,0.0,0.0,0.0,0.0,0.0,0.0,0.0,0.0,0.0,0.0,0.0,0.0,0.0,0.0,0.0,0.0,0.0,0.0,0.0,0.0,0.0,1.1764,1.1808,1.1208,1.0569,0.9958,0.7628,0.5836,0.0,0.0,0.0,0.0,0.0,0.0,0.0,0.0,0.0,0.0,0.0,0.0,0.0,0.0,0.0,0.0,0.0,0.0,0.0,0.0,0.0,0.0,0.0,0.0,0.0,0.0,0.0,0.0,0.0,0.0,0.0,0.0,0.0,0.0,0.0,0.0,0.0,0.0,0.0,0.0,0.0,0.0,0.0,0.0,0.0,0.0,0.0,0.0,0.0,0.0,0.0,0.0,0.0,0.0,0.0,0.0,0.0,0.0,0.0,0.0,0.0,0.0,0.0,0.0,0.0,0.0,0.0,0.0,0.0,0.0,0.0,0.0,0.0,0.0,0.0,0.0,0.0,0.0,0.0,0.0,0.0,0.0,0.0,0.0,0.0,0.0,0.0,0.0,0.0,0.0,0.0,0.0,0.0,0.0,0.0,0.0,0.0,0.0,0.0,0.0,0.0,0.0,0.0,0.0,0.0,0.0,0.0,0.0,1.2757,1.3384,1.2453,1.18,1.1457,0.9035,0.7091,0.0,0.0,0.0,0.0,0.0,0.0,0.0,0.0,0.0,0.0,0.0,0.0,0.0,0.0,0.0,0.0,0.0,0.0,0.0,0.0,0.0,0.0,0.0,0.0,0.0,0.0,0.0,0.0,0.0,0.0,0.0,0.0,0.0,0.0,0.0,0.0,0.0,0.0,0.0,0.0,0.0,0.0,0.0,0.0,0.0,0.0,0.0,0.0,0.2914,0.0,0.0,0.0,0.0,0.0,0.0,0.0,0.0,0.0,0.0,0.0,0.0,0.0,0.0,0.0,0.0,0.0,0.0,0.0,0.0,0.0,0.0,0.0,0.0,0.0,0.0,0.0,0.0,0.0,0.0,0.0,0.0,0.0,0.0,0.0,0.0,0.0,0.0,0.0,0.0,0.0,0.0,0.0,0.0,0.0,0.0,0.0,0.0,0.0,0.0,0.0,0.0,0.0,0.0,0.0,0.0,0.0,0.0,0.0,1.3887,1.4617,1.3552,1.2862,1.2496,1.0796,0.8947,0.0,0.0,0.0,0.0,0.0,0.0,0.0,0.0,0.0,0.0,0.0,0.0,0.0,0.0,0.0,0.0,0.0,0.0,0.0,0.0,0.0,0.0,0.0,0.0,0.0,0.0,0.0,0.0,0.0,0.0,0.0,0.0,0.0,0.0,0.0,0.0,0.0,0.0,0.0,0.0,0.0,0.0,0.0,0.0,0.0,0.0,0.0,0.0,0.0,0.0,0.0,0.0,0.0,0.0,0.0,0.0,0.0,0.0,0.0,0.0,0.0,0.0,0.0,0.0,0.0,0.0,0.0,0.0,0.0,0.0,0.0,0.0,0.0,0.0,0.0,0.0,0.0,0.0,0.0,0.0,0.0,0.0,0.0,0.0,0.0,0.0,0.0,0.0,0.0,0.0,0.0,0.0,0.0,0.0,0.0,0.0,0.0,0.0,0.0,0.0,0.0,0.0,0.0,0.0,0.0,0.0,0.0,1.4559,1.5048,1.5647,1.469,1.3931,1.3397,1.2443,1.09,0.8782,0.0,0.0,0.0,0.0,0.0,0.0,0.0,0.0,0.0,0.0,0.0,0.0,0.0,0.0,0.0,0.0,0.0,0.0,0.0,0.0,0.0,0.0,0.0,0.0,0.0,0.0,0.0,0.0,0.0,0.0,0.0,0.0,0.0,0.0,0.0,0.0,0.0,0.0,1.1568,1.0962,0.0,0.0,0.0,0.0,0.0,0.0,0.0,0.0,0.4828,0.0,0.0,0.0,0.0,0.0,0.0,0.0,0.0,0.0,0.0,0.0,0.0,0.0,0.0,0.0,0.0,0.0,0.0,0.0,0.0,0.0,0.0,0.0,0.0,0.0,0.0,0.0,0.0,0.0,0.0,0.0,0.0,0.0,0.0,0.0,0.0,0.0,0.0,0.0,0.0,0.0,0.0,0.0,0.0,0.0,0.0,0.0,0.0,0.0,0.0,0.0,0.0,0.0,0.0,0.0,0.0,1.5389,1.5655,1.6092,1.6718,1.6113,1.5363,1.4407,1.3467,1.2293,1.08,0.0,0.0,0.0,0.0,0.0,0.0,0.0,0.0,0.0,0.0,0.0,0.0,0.0,0.0,0.0,0.0,0.0,0.0,0.0,0.0,0.0,0.0,0.0,0.0,0.0,0.0,0.0,0.0,0.0,0.0,0.0,0.0,0.0,0.0,0.0,0.0,0.0,0.0,0.0,1.1963,1.1415,0.0,0.0,0.0,0.0,0.0,0.0,0.0,0.0,0.5732,0.0,0.0,0.0,0.0,0.0,0.0,0.0,0.0,0.0,0.0,0.0,0.0,0.0,0.0,0.0,0.0,0.0,0.0,0.0,0.0,0.0,0.0,0.0,0.0,0.0,0.0,0.0,0.0,0.0,0.0,0.0,0.0,0.0,0.0,0.0,0.0,0.0,0.0,0.0,0.0,0.0,0.0,0.0,0.0,0.0,0.0,0.0,0.0,0.0,0.0,0.0,0.0,0.0,0.0,0.0,1.5734,1.6207,1.684,1.761,1.7085,1.636,1.5444,1.4417,1.3256,0.0,0.0,0.0,0.0,0.0,0.0,0.0,0.0,0.0,0.0,0.0,0.0,0.0,0.0,0.0,0.0,0.0,0.0,0.0,0.0,0.0,0.0,0.0,0.0,0.0,0.0,0.0,0.0,0.0,0.0,0.0,0.0,0.0,0.0,0.0,0.0,0.0,0.0,0.0,0.0,1.2949,1.2543,1.2194,0.0,0.0,0.0,0.0,0.0,0.0,0.7651,0.7237,0.0,0.0,0.0,0.0,0.0,0.0,0.0,0.0,0.0,0.0,0.0,0.0,0.0,0.0,0.0,0.0,0.0,0.0,0.0,0.0,0.0,0.0,0.0,0.0,0.0,0.0,0.0,0.0,0.0,0.0,0.0,0.0,0.0,0.0,0.0,0.0,0.0,0.0,0.0,0.0,0.0,0.0,0.0,0.0,0.0,0.0,0.0,0.0,0.0,0.0,0.0,0.0,0.0,0.0,0.0,1.6008,1.6767,1.7585,1.844,1.7994,1.7366,1.6559,1.5413,1.4141,0.0,0.0,0.0,0.0,0.0,0.0,0.0,0.0,0.0,0.0,0.0,0.0,0.0,0.0,0.0,0.0,0.0,0.0,0.0,0.0,0.0,0.0,0.0,0.0,0.0,0.0,0.0,0.0,0.0,0.0,0.0,0.0,0.0,0.0,0.0,0.0,0.0,0.0,0.0,0.0,0.0,1.3798,1.3861,1.3169,0.0,0.0,0.0,0.0,0.989,0.9338,0.0,0.0,0.0,0.0,0.0,0.0,0.0,0.0,0.0,0.0,0.0,0.0,0.0,0.0,0.0,0.0,0.0,0.0,0.0,0.0,0.0,0.0,0.0,0.0,0.0,0.0,0.0,0.0,0.0,0.0,0.0,0.0,0.0,0.0,0.0,0.0,0.0,0.0,0.0,0.0,0.0,0.0,0.0,0.0,0.0,0.0,0.0,0.0,0.0,0.0,0.0,0.0,0.0,0.0,0.0,0.0,1.6496,1.7749,1.8667,1.9168,1.9282,1.8765,1.7624,1.6384,1.5286,0.0,0.0,0.0,0.0,0.0,0.0,0.0,0.0,0.0,0.0,0.0,0.0,0.0,0.0,0.0,0.0,0.0,0.0,0.0,0.0,0.0,0.0,0.0,0.0,0.0,0.0,0.0,0.0,0.0,0.0,0.0,0.0,0.0,0.0,0.0,0.0,0.0,0.0,0.0,0.0,0.0,1.5274,1.5212,1.4749,1.4116,0.0,0.0,1.2676,1.1893,1.1386,0.0,0.0,0.0,0.0,0.0,0.0,0.0,0.0,0.0,0.0,0.0,0.0,0.0,0.0,0.0,0.0,0.0,0.0,0.0,0.0,0.0,0.0,0.0,0.0,0.0,0.0,0.0,0.0,0.0,0.0,0.0,0.0,0.0,0.0,0.0,0.0,0.0,0.0,0.0,0.0,0.0,0.0,0.0,0.0,0.0,0.0,0.0,0.0,0.0,0.0,0.0,0.0,0.0,0.0,0.0,1.5592,1.6789,1.8241,1.9327,1.9971,2.0149,1.978,1.8775,1.7466,1.6309,0.0,0.0,0.0,0.0,0.0,0.0,0.0,0.0,0.0,0.0,0.0,0.0,0.0,0.0,0.0,0.0,0.0,0.0,0.0,0.0,0.0,0.0,0.0,0.0,0.0,0.0,0.0,0.0,0.0,0.0,0.0,0.0,0.0,0.0,0.0,0.0,0.0,0.0,0.0,0.0,0.0,0.0,1.6617,1.6233,0.0,0.0,0.0,1.4358,1.3855,0.0,0.0,0.0,0.0,0.0,0.0,0.0,0.0,0.0,0.0,0.0,0.0,0.0,0.0,0.0,0.0,0.0,0.0,0.0,0.0,0.0,0.0,0.0,0.0,0.0,0.0,0.0,0.0,0.0,0.0,0.0,0.0,0.0,0.0,0.0,0.0,0.0,0.0,0.0,0.0,0.0,0.0,0.0,0.0,0.0,0.0,0.0,0.0,0.0,0.0,0.0,0.0,0.0,0.0,0.0,0.0,0.0,1.7125,1.8823,2.0089,2.0903,2.1059,2.082,2.0114,1.862,0.0,0.0,0.0,0.0,0.0,0.0,0.0,0.0,0.0,0.0,0.0,0.0,0.0,0.0,0.0,0.0,0.0,0.0,0.0,0.0,0.0,0.0,0.0,0.0,0.0,0.0,0.0,1.4027,0.0,0.0,0.0,0.0,0.0,0.0,0.0,0.0,0.0,0.0,0.0,0.0,0.0,0.0,1.7636,1.8102,1.7834,1.747,0.0,0.0,1.6158,1.5722,1.4767,1.4002,0.0,0.0,0.0,0.0,0.0,0.0,0.0,0.0,0.0,0.0,0.0,0.0,0.0,0.0,0.0,0.0,0.0,0.0,0.0,0.0,0.0,0.0,0.0,0.0,0.0,0.0,0.0,0.0,0.0,0.0,0.0,0.0,0.0,0.0,0.0,0.0,0.0,0.0,0.0,0.0,0.0,0.0,0.0,0.0,0.0,0.0,0.0,0.0,0.0,0.0,0.0,0.0,0.0,0.0,0.0,1.7758,1.9734,2.1204,2.2053,2.2236,2.212,2.1712,1.9694,1.8361,0.0,0.0,0.0,0.0,0.0,0.0,0.0,0.0,0.0,0.0,0.0,0.0,0.0,0.0,0.0,0.0,0.0,0.0,0.0,0.0,0.0,0.0,0.0,0.0,0.0,0.0,0.0,0.0,0.0,0.0,0.0,0.0,0.0,0.0,0.0,0.0,0.0,0.0,0.0,0.0,0.0,1.8941,1.9669,1.9497,1.9177,0.0,0.0,1.8271,1.7311,1.6867,1.6244,1.4975,0.0,0.0,0.0,0.0,0.0,0.0,0.0,0.0,0.0,0.0,0.0,0.0,0.0,0.0,0.0,0.0,0.0,0.0,0.0,0.0,0.0,0.0,0.0,0.0,0.0,0.0,0.0,0.0,0.0,0.0,0.0,0.0,0.0,0.0,0.0,0.0,0.0,0.0,0.0,0.0,0.0,0.0,0.0,0.0,0.0,0.0,0.0,0.0,0.0,0.0,0.0,0.0,0.0,1.7345,1.8448,2.0262,2.1788,2.2949,2.2868,2.2736,2.2696,2.0705,1.935,0.0,0.0,0.0,0.0,0.0,0.0,0.0,0.0,0.0,0.0,0.0,0.0,0.0,0.0,0.0,0.0,0.0,0.0,0.0,0.0,0.0,0.0,0.0,0.0,0.0,0.0,0.0,0.0,1.5689,1.5845,1.6104,0.0,0.0,0.0,0.0,0.0,0.0,0.0,0.0,0.0,0.0,2.0273,2.0909,2.0799,0.0,0.0,1.9903,1.9588,1.9228,1.8414,1.7578,1.6811,1.5784,0.0,0.0,0.0,0.0,0.0,0.0,0.0,0.0,0.0,0.0,0.0,0.0,0.0,0.0,0.0,0.0,0.0,0.0,0.0,0.0,0.0,0.0,0.0,0.0,0.0,0.0,0.0,0.0,0.0,0.0,0.0,0.0,0.0,0.0,0.0,0.0,0.0,0.0,0.0,0.0,0.0,0.0,0.0,0.0,0.0,0.0,0.0,0.0,0.0,0.0,0.0,0.0,1.8089,1.9339,2.0981,2.2456,2.3709,2.3565,2.3505,2.3469,2.1634,2.0329,0.0,0.0,0.0,0.0,0.0,0.0,0.0,0.0,0.0,0.0,0.0,0.0,0.0,0.0,0.0,0.0,0.0,0.0,0.0,0.0,0.0,0.0,0.0,0.0,0.0,0.0,0.0,0.0,1.6844,1.6961,1.7019,0.0,0.0,0.0,0.0,0.0,0.0,0.0,0.0,0.0,0.0,2.1485,2.2158,2.2069,2.1847,2.1579,2.1186,2.0871,2.0727,1.9909,1.9037,1.8314,0.0,0.0,0.0,0.0,0.0,0.0,0.0,0.0,0.0,0.0,0.0,0.0,0.0,0.0,0.0,0.0,0.0,0.0,0.0,0.0,0.0,0.0,0.0,0.0,0.0,0.0,0.0,0.0,0.0,0.0,1.8037,0.0,0.0,0.0,0.0,0.0,0.0,0.0,0.0,0.0,0.0,0.0,0.0,0.0,0.0,0.0,0.0,0.0,0.0,0.0,0.0,0.0,0.0,1.8977,2.0547,2.2048,2.3335,2.4256,2.4472,2.4461,2.4256,2.254,2.1304,2.074,0.0,0.0,0.0,0.0,0.0,0.0,0.0,0.0,0.0,0.0,0.0,0.0,0.0,0.0,0.0,0.0,0.0,0.0,0.0,0.0,0.0,0.0,0.0,0.0,0.0,0.0,1.8176,1.8555,1.8715,0.0,0.0,0.0,0.0,0.0,0.0,0.0,0.0,0.0,0.0,2.2079,2.248,2.3331,2.3232,2.3003,2.2803,2.253,2.2211,2.1739,2.1463,2.0846,0.0,0.0,0.0,0.0,0.0,0.0,0.0,0.0,0.0,0.0,0.0,0.0,0.0,0.0,0.0,0.0,0.0,0.0,0.0,0.0,0.0,0.0,0.0,0.0,0.0,0.0,0.0,2.0533,2.0559,0.0,0.0,0.0,0.0,0.0,0.0,0.0,0.0,0.0,0.0,0.0,2.5137,2.5872,0.0,0.0,0.0,0.0,0.0,0.0,0.0,0.0,0.0,0.0,0.0,0.0,1.9823,2.144,2.2536,2.3675,2.4866,2.4873,2.4862,2.4875,2.3572,2.2033,2.0319,0.0,0.0,0.0,0.0,0.0,0.0,0.0,0.0,0.0,0.0,0.0,0.0,0.0,0.0,0.0,0.0,0.0,0.0,0.0,0.0,0.0,0.0,0.0,0.0,0.0,1.8463,0.0,0.0,0.0,0.0,0.0,0.0,0.0,0.0,0.0,0.0,0.0,2.1993,2.3399,2.352,2.377,2.4512,2.4433,2.4209,0.0,0.0,0.0,0.0,0.0,0.0,0.0,0.0,0.0,0.0,0.0,0.0,0.0,0.0,1.4296,1.2098,1.1247,1.074,1.0295,0.0,0.0,0.0,0.0,0.0,0.0,0.0,0.0,0.0,0.0,0.0,0.0,0.0,0.0,0.0,0.0,2.2774,0.0,0.0,0.0,0.0,0.0,0.0,0.0,0.0,2.6616,2.7152,2.7382,2.8122,2.8083,0.0,2.6847,2.5349,0.0,0.0,0.0,0.0,0.0,0.0,0.0,0.0,2.0827,2.2397,2.3126,2.408,2.5263,2.5338,2.5338,2.5322,2.4073,2.2502,2.0665,1.9441,1.8477,0.0,0.0,0.0,0.0,0.0,0.0,0.0,0.0,0.0,0.0,0.0,0.0,0.0,0.0,0.0,0.0,0.0,0.0,0.0,0.0,0.0,0.0,0.0,1.9897,0.0,0.0,0.0,0.0,0.0,0.0,0.0,0.0,0.0,2.2314,2.251,2.3189,2.442,2.4326,2.4425,2.5057,0.0,0.0,0.0,0.0,0.0,0.0,0.0,2.3866,2.3141,2.2514,2.1671,2.0289,1.9295,1.843,1.783,0.0,0.0,1.4109,1.3154,1.2648,1.2374,1.1598,1.0917,1.064,0.9948,0.9308,0.0,0.0,0.0,0.0,0.0,0.0,0.0,0.0,2.6688,2.6104,0.0,2.5242,0.0,0.0,0.0,0.0,0.0,2.5975,0.0,0.0,2.8221,2.9019,2.9896,2.9998,2.9985,2.9904,2.8739,2.7954,2.7426,2.4287,0.0,0.0,0.0,0.0,0.0,0.0,2.1975,2.3478,2.3836,2.4524,2.5569,2.5805,2.5793,2.5557,2.4028,2.2744,2.1772,2.0613,1.9633,1.8791,1.8276,0.0,0.0,0.0,0.0,0.0,0.0,0.0,0.0,0.0,0.0,0.0,0.0,0.0,0.0,0.0,0.0,0.0,0.0,0.0,0.0,2.1338,0.0,0.0,0.0,0.0,0.0,0.0,0.0,0.0,0.0,0.0,2.3723,2.3606,2.3893,2.4834,0.0,0.0,0.0,0.0,2.4465,2.4476,2.4664,2.4754,2.444,2.4839,2.4911,2.4015,0.0,0.0,2.1299,2.0426,1.9824,1.9222,1.8891,1.7997,1.5894,1.512,1.463,1.4191,1.3425,1.2718,1.228,1.1687,1.0989,3.3046,0.0,0.0,0.0,0.0,3.0115,3.0078,3.004,2.9385,2.8978,2.8795,2.8028,0.0,0.0,0.0,0.0,0.0,0.0,2.7854,2.9178,2.9767,3.0556,3.1461,3.1762,3.1769,3.1433,3.0433,2.9665,2.911,2.7183,2.514,2.3107,0.0,0.0,0.0,0.0,2.2702,2.4132,2.4459,2.4958,2.5816,2.6027,2.583,2.5264,2.3902,2.295,2.2439,2.1284,2.0423,1.9935,1.9082,0.0,0.0,0.0,0.0,0.0,0.0,0.0,0.0,0.0,0.0,0.0,0.0,0.0,0.0,0.0,0.0,0.0,0.0,0.0,2.2031,2.236,2.2727,0.0,0.0,0.0,0.0,0.0,0.0,0.0,0.0,0.0,2.5763,2.5188,2.5016,0.0,0.0,2.5681,2.6022,2.5965,2.5824,2.5693,0.0,0.0,0.0,2.5688,2.5532,2.5133,2.4431,2.3584,2.2754,2.2335,2.1852,2.1076,2.0878,2.0386,1.9064,1.7538,1.654,1.6186,1.5549,1.4883,1.4323,1.3664,1.2978,3.6419,3.4769,3.3301,3.2685,3.2671,3.2671,3.2732,3.2742,3.2192,3.1846,3.1636,3.0767,3.0092,2.9517,2.8852,0.0,0.0,0.0,2.9371,3.0582,3.1193,3.1942,3.2804,3.308,3.2905,3.2376,3.157,3.0884,3.0192,2.9002,2.7475,2.5588,0.0,0.0,2.3658,2.316,2.3563,2.4848,2.4975,2.5421,2.6289,2.6183,2.574,2.5046,2.3964,2.3242,2.2975,2.2002,2.1282,2.0803,2.0217,1.973,0.0,0.0,0.0,0.0,0.0,0.0,0.0,0.0,0.0,0.0,0.0,2.0759,2.0772,0.0,0.0,0.0,2.2556,2.3135,2.3523,2.3806,0.0,0.0,0.0,0.0,0.0,0.0,0.0,2.6673,2.6857,2.7019,2.7291,2.679,2.6332,2.6222,2.6164,2.6178,2.6372,0.0,2.6225,2.609,2.6232,2.6329,2.6211,2.6362,2.6434,2.6206,2.5411,2.4664,2.4189,2.3791,2.3243,2.259,2.2303,2.1999,2.1331,2.0041,1.8802,1.8037,1.7302,1.665,1.6206,1.5401,1.455,3.8972,3.8775,3.6301,3.526,3.5246,3.5213,3.5321,3.5469,3.4999,3.4608,3.4203,3.3358,3.2695,3.2184,3.1092,0.0,3.0424,3.0572,3.1057,3.1839,3.2454,3.3152,3.3917,3.3839,3.3511,3.2911,3.2225,3.1547,3.0818,3.0006,2.9246,2.8477,2.6652,2.5568,2.5226,2.4426,2.4546,2.5503,2.5389,2.5832,2.6909,2.6166,2.5521,2.4982,2.4129,2.3579,2.3378,2.28,2.2177,2.1584,2.1499,2.1027,2.0084,0.0,0.0,0.0,0.0,0.0,0.0,0.0,0.0,0.0,0.0,0.0,0.0,0.0,0.0,0.0,2.4216,0.0,2.5131,2.5484,0.0,0.0,0.0,2.6139,2.6326,2.6786,2.7245,2.7638,0.0,0.0,2.8352,0.0,2.7729,2.6756,2.6449,2.6336,2.6336,2.6211,2.6057,2.6131,2.6433,2.6616,2.6445,2.6876,2.7164,2.6894,2.6493,2.5888,2.5452,2.4891,2.4202,2.3706,2.3375,2.3075,2.2852,2.222,2.1451,1.9913,1.8877,1.8118,1.7768,1.6845,1.5896,3.9564,3.9521,3.872,3.832,3.8147,3.8004,3.7997,3.7949,3.7063,3.6597,3.6417,3.5146,3.387,3.2686,3.1966,3.161,3.1592,3.1624,3.1984,3.2616,3.2773,3.3273,3.3997,3.3436,3.3135,3.3054,3.1861,3.1133,3.0916,3.0134,2.9645,2.94,2.8318,2.7097,2.5767,2.5429,2.5425,2.5704,2.5699,2.5877,2.6248,2.5307,2.4682,2.4542,2.3946,2.355,2.3399,2.3226,2.3027,2.2698,2.23,2.1952,2.1732,2.1381,0.0,0.0,0.0,0.0,0.0,0.0,0.0,0.0,0.0,2.3096,2.3096,0.0,2.4567,0.0,2.5848,2.6381,2.6425,2.6533,0.0,0.0,2.726,2.7575,2.8306,2.8497,2.8706,2.9066,2.916,2.918,2.9089,2.9026,2.8867,2.8495,2.7842,2.7443,2.7564,2.743,2.733,2.7356,2.7426,2.7431,2.7206,2.7109,2.705,2.6794,2.6529,2.6268,2.6045,2.5889,2.5534,2.5004,2.4683,2.436,2.3925,2.335,2.2804,2.2145,2.0952,1.9683,1.8987,1.8223,1.7415,4.0533,4.0476,4.0182,4.006,3.9989,3.9425,3.9039,3.8795,3.8245,3.8011,3.8011,3.6451,3.4894,3.3446,3.2881,3.2641,3.2542,3.2626,3.2861,3.3192,3.3432,3.3763,3.4051,3.3379,3.2901,3.2633,3.1575,3.0911,3.0594,3.0069,2.9794,2.9794,2.9251,2.8193,2.6646,2.6081,2.5827,2.5843,2.5972,2.5931,2.5782,2.5122,2.468,2.448,2.405,2.3763,2.373,2.3717,2.3645,2.3467,2.322,2.2997,2.2767,2.2531,2.2319,0.0,0.0,0.0,0.0,0.0,0.0,0.0,0.0,0.0,0.0,0.0,2.5772,2.6489,2.7258,2.7707,2.7707,2.7925,2.8198,2.8502,2.8543,2.8775,2.9328,2.9432,2.9512,2.9803,2.9834,2.9803,2.9668,2.9637,2.9637,2.962,2.9153,2.8725,2.8527,2.8411,2.8333,2.8254,2.8222,2.8157,2.7908,2.7709,2.7543,2.7356,2.7175,2.7007,2.6926,2.6769,2.653,2.6139,2.5826,2.5464,2.5028,2.4491,2.3952,2.341,2.2505,2.1362,2.0279,1.9311,1.8394,4.148,4.145,4.1054,4.09,4.0913,3.9993,3.9333,3.8952,3.89,3.884,3.8741,3.7187,3.5636,3.4133,3.3767,3.3521,3.3374,3.3521,3.362,3.3649,3.4134,3.4264,3.4065,3.3374,3.2676,3.1986,3.1254,3.0654,3.0095,2.9898,2.9777,2.9777,2.9651,2.8965,2.7668,2.6701,2.6122,2.5882,2.6056,2.5935,2.5412,2.5213,2.4964,2.4618,2.4305,2.4144,2.4171,2.4173,2.4115,2.3995,2.4115,2.395,2.352,2.3565,2.3398,0.0,2.295,0.0,0.0,0.0,0.0,0.0,0.0,0.0,0.0,2.5988,2.6925,2.7758,2.8452,2.8894,2.8894,2.9372,2.9665,2.9665,2.9665,2.9727,2.9853,2.987,2.9946,3.0142,3.0172,3.0172,3.0203,3.0203,3.0249,3.0357,3.0266,2.9976,2.9495,2.9275,2.9149,2.8994,2.8899,2.8725,2.8481,2.8384,2.83,2.8164,2.7967,2.7855,2.7776,2.7543,2.7276,2.7095,2.6769,2.6393,2.6107,2.5463,2.4837,2.4235,2.3502,2.2548,2.132,2.021,1.9163,4.1881,4.1864,4.1448,4.1,4.0524,4.0123,3.9928,3.9817,3.943,3.8546,3.7281,3.6438,3.5405,3.4346,3.425,3.4206,3.4158,3.4206,3.424,3.424,3.4187,3.4128,3.4022,3.2829,3.2162,3.1911,3.0671,3.0074,3.008,2.9789,2.9682,2.9777,2.9651,2.9206,2.8519,0.0,0.0,0.0,2.5595,2.5505,2.5399,2.4933,2.4669,2.4591,2.4534,0.0,2.4505,2.4492,2.4505,2.4476,2.4505,0.0,0.0,0.0,0.0,0.0,0.0,0.0,0.0,0.0,0.0,0.0,2.5522,2.5508,2.5453,2.6733,2.7919,2.8806,2.9464,2.9834,2.9834,2.9948,2.9988,3.0003,3.0019,3.0036,3.019,3.019,3.0282,3.0477,3.0507,3.0552,3.0642,3.0642,3.0746,3.0895,3.091,3.0866,3.0717,3.0221,2.9915,2.9839,2.9498,2.9216,2.9121,2.8899,2.8675,2.8522,2.8346,2.817,2.8066,2.8013,2.7868,2.7676,2.7356,2.7087,2.679,2.5872,2.5064,2.4908,2.3857,2.261,2.1576,2.0891,2.0192,4.2633,0.0,4.1642,4.1091,0.0,3.9951,3.9587,3.9609,3.9341,3.8305,3.6711,3.605,3.5283,3.438,3.438,3.438,3.438,3.438,3.438,3.438,3.4196,3.4059,3.3977,3.2468,3.1707,3.1552,3.0147,2.9526,2.9602,2.9446,2.9432,2.9605,2.9526,2.9232,2.8703,2.8246,2.7458,2.6362,2.5975,2.5738,2.5638,2.5087,2.4791,2.482,0.0,0.0,0.0,0.0,0.0,0.0,0.0,0.0,0.0,0.0,0.0,2.5018,2.506,2.5117,2.5229,2.5257,2.5355,2.5578,2.5729,2.6077,2.6694,2.7512,2.8465,2.9615,3.0107,3.0341,3.0341,3.0341,3.0341,3.0341,3.0341,3.0357,3.0447,3.0507,3.0582,3.0702,3.0791,3.0895,3.0925,3.0955,3.1014,3.1146,3.119,3.122,3.1249,3.091,3.0538,3.0357,2.9991,2.9651,2.9481,2.9324,2.9117,2.8908,2.8766,2.867,2.8619,2.8587,2.8522,2.8249,2.8052,2.7822,2.7404,2.6478,2.5623,2.5176,2.4211,2.3113,2.2174,2.1578,2.1035,4.3527,4.3407,4.1946,4.1392,4.1393,3.9838,3.9066,3.889,0.0,0.0,0.0,3.5815,3.5093,3.4414,3.438,3.438,3.438,3.438,3.438,3.438,3.4176,3.4005,3.3825,3.2215,3.1343,3.114,2.9744,2.9081,2.9099,2.9067,2.9131,2.932,2.9383,2.9226,2.8813,2.8204,2.7744,2.7503,2.677,2.6243,2.5974,2.5512,2.5212,2.5103,2.5103,2.5047,2.4934,2.5047,2.5033,2.4934,2.5047,2.5131,2.5244,2.523,2.53,2.5467,2.5508,2.5522,2.5522,2.555,2.5592,2.5729,2.5866,2.6524,2.7925,2.814,2.8813,3.0241,3.0507,3.0612,3.0612,3.0612,3.0598,3.0642,3.0642,3.0628,3.0702,3.0791,3.0866,3.0881,3.0984,3.1117,3.1132,3.1132,3.119,3.1278,3.1351,3.1365,3.1453,3.1249,3.091,3.0642,3.0296,3.0005,2.9789,2.9696,2.954,2.9257,2.9194,2.9162,2.9099,2.9113,2.9004,2.8716,2.8651,2.8338,2.7847,2.6941,2.6116,2.5369,2.4518,2.3678,2.2898,2.2334,2.1819,4.4419,4.4312,4.274,4.2028,4.1795,4.0275,3.9044,3.8043,3.7461,3.6693,3.5785,3.5122,3.4685,3.438,3.438,3.438,3.438,3.438,3.438,0.0,3.4074,3.3931,3.3791,3.2067,3.1244,3.1079,2.96,2.894,2.9067,2.894,2.894,2.9131,2.932,2.9435,2.9445,2.9361,2.9226,2.9042,2.7809,2.6889,2.6348,2.6252,2.5934,2.5466,2.5439,2.5439,2.5411,2.5425,2.5439,2.5411,2.5397,2.5439,2.5467,2.5453,2.5467,2.5508,2.5508,2.555,2.5661,2.5674,2.5729,2.5866,2.5975,2.6662,2.804,2.8168,2.8886,3.0393,3.0582,3.0612,3.0612,3.0612,3.0672,3.0762,3.0762,3.0821,3.0984,3.1014,3.1043,3.1058,3.1087,3.1161,3.1263,3.1263,3.1322,3.1438,3.1438,3.1467,3.1453,3.1278,3.1014,3.0791,3.0477,3.0266,3.0174,3.0097,2.9882,2.9571,2.9509,2.9446,2.9226,2.9176,2.9131,2.9035,2.8844,2.8429,2.7836,2.6858,2.6016,2.5236,2.4477,2.3799,2.336,2.3168,2.2836,4.4673,4.4171,4.2971,4.2138,4.1492,3.9892,3.8489,3.7337,3.6802,3.6178,3.5501,3.484,3.4481,3.4414,3.438,3.438,3.438,3.438,3.438,3.438,3.4054,3.3896,3.3734,3.1965,3.1062,3.0926,2.9438,2.8748,2.8812,2.8716,2.8748,2.894,2.9226,2.9446,2.9602,2.9602,2.9571,2.9495,2.846,2.7603,2.6889,2.6572,2.6116,2.5536,2.5508,2.5508,2.5508,2.5508,2.5508,2.5508,2.5508,2.555,2.5605,2.5605,2.5633,2.5716,2.573,2.5743,2.5811,2.5893,2.5948,2.6002,2.6125,2.6657,2.7738,2.8153,2.8987,3.0422,3.0612,3.0628,3.0702,3.0702,3.0762,3.0955,3.0955,3.1014,3.1087,3.1161,3.1205,3.122,3.1278,3.1336,3.1409,3.1409,3.1409,3.1496,3.1496,3.1496,3.1496,3.1336,3.1146,3.0969,3.0732,3.0493,3.0342,3.0266,3.0127,2.9896,2.9865,2.9803,2.9634,2.9557,2.9463,2.9383,2.9194,2.8756,2.8081,2.7186,2.6304,2.5581,2.4816,2.4252,2.3969,2.3763,2.333,4.4893,4.4153,4.3195,4.2114,4.0924,3.9367,3.8056,3.695,3.6438,3.5875,3.5263,3.47,3.4481,3.4501,3.4481,3.4481,3.4448,3.4414,3.438,3.438,3.4074,3.3965,3.3754,3.1965,3.1029,3.0857,2.9452,2.8683,2.8651,2.8683,2.878,2.894,2.9257,2.9477,2.9602,2.9602,2.9602,2.9574,2.9047,2.8393,2.7631,2.7159,2.6632,2.6063,2.5883,2.58,2.58,2.5675,2.5592,2.5605,2.5605,2.5647,2.5729,2.5757,2.5784,2.5893,2.5921,2.5948,2.6002,2.6098,2.6138,2.6152,2.6272,2.6678,2.7404,2.7992,2.89,3.0118,3.054,3.0702,3.0762,3.0866,3.0955,3.1132,3.1132,3.1176,3.1205,3.1278,3.1336,3.1351,3.1438,3.1496,3.1496,3.1496,3.1496,3.1496,3.1496,3.1496,3.1467,3.1409,3.1292,3.1146,3.0969,3.0762,3.0477,3.0403,3.0326,3.0189,3.0127,3.0097,3.005,2.9929,2.9837,2.9696,2.954,2.9035,2.8269,2.747,2.663,2.5819,2.5104,2.4677,2.4421,2.4173,2.3747,4.5277,4.4547,4.3647,4.2124,4.0242,3.8978,3.7953,3.7114,3.6281,3.556,3.5001,3.4731,3.475,3.4835,3.4716,3.4664,3.4664,3.4481,3.4414,3.438,3.4162,3.4094,3.3882,3.2254,3.1443,3.1241,2.9794,2.8972,2.8844,2.8958,2.9162,2.932,2.9383,2.9477,2.9571,2.9602,2.9602,2.9602,2.9515,2.9192,2.8631,2.8519,2.821,2.7592,2.7003,2.6666,2.6666,2.6175,2.5853,2.5839,2.5853,2.5866,2.5893,2.5893,2.5893,2.5921,2.6029,2.6152,2.626,2.6286,2.6286,2.6286,2.6418,2.6784,2.743,2.7657,2.8319,2.945,3.0323,3.0645,3.0791,3.0881,3.1013,3.1159,3.1218,3.1322,3.1424,3.1467,3.1482,3.1467,3.1496,3.1496,3.1496,3.1496,3.1496,3.1496,3.1496,3.1496,3.1496,3.1467,3.1409,3.1292,3.1161,3.0984,3.0791,3.0762,3.0642,3.0401,3.0296,3.028,3.0189,3.0142,3.005,2.9974,2.9718,2.9125,2.8234,2.7454,2.6787,2.5794,2.5269,2.5061,2.4806,2.4507,2.4102,4.4148,4.35,4.2994,4.1657,3.9784,3.8931,3.7946,3.6885,3.6384,3.5892,3.5409,3.5314,3.5166,3.4887,3.4835,3.4817,3.4817,3.465,3.4563,3.4563,3.4264,3.3892,3.3461,3.2378,3.1634,3.1162,3.0045,2.9449,2.9387,2.9261,2.9261,2.9383,2.9383,2.9446,2.9602,2.9602,2.9602,2.9602,2.9602,2.949,2.9223,2.8886,2.8438,2.7847,2.7552,2.7383,2.7326,2.6778,2.6427,2.6413,2.6104,2.5921,2.6002,2.6002,2.6056,2.6125,2.6179,2.6218,2.6313,2.6379,2.6418,2.6418,2.6592,2.6842,2.7183,2.7571,2.8092,2.8671,2.9286,2.9723,2.9895,2.998,3.0269,3.0708,3.0841,3.099,3.1466,3.1481,3.1496,3.1496,3.1496,3.1481,3.1496,3.1496,3.1496,3.1496,3.1496,3.1466,3.1496,3.1496,3.1482,3.1453,3.1366,3.1249,3.1043,3.0984,3.0881,3.0791,3.0672,3.0552,3.0522,3.031,3.0219,3.0221,2.9693,2.9045,2.8251,2.7426,2.6677,2.5828,2.5439,2.5341,2.5229,2.5005,2.4736,4.3327,4.2676,4.227,4.1148,3.9609,3.8971,3.8038,3.6907,3.6582,3.6237,3.5941,3.5926,3.5655,3.5282,3.5169,3.51,3.5049,3.4916,3.4798,3.4702,3.4292,3.3844,3.3332,3.2425,3.174,3.1219,3.0477,3.0009,2.9931,2.9654,2.9529,2.9571,2.954,2.9602,2.9696,2.9696,2.9682,2.9741,2.9741,2.9741,2.967,2.9304,2.8822,2.834,2.8143,2.8058,2.8044,2.7454,2.7116,2.7102,2.6581,2.6338,2.6434,2.6264,2.6218,2.6326,2.6353,2.6406,2.6474,2.6592,2.6657,2.6709,2.6829,2.6963,2.7114,2.7436,2.7739,2.7918,2.8277,2.8685,2.9235,2.9332,2.9665,3.0165,3.0253,3.0492,3.0924,3.1044,3.0998,3.1086,3.0979,3.1101,3.1086,3.1054,3.1009,3.1009,3.1219,3.1356,3.1401,3.1504,3.164,3.164,3.1626,3.1453,3.122,3.1161,3.1161,3.1073,3.0955,3.0866,3.0837,3.054,3.0217,3.0015,2.939,2.8741,2.8054,2.7286,2.675,2.6187,2.5825,2.5647,2.5633,2.5481,2.5425,4.3327,4.255,4.1736,4.0782,3.9913,3.9096,3.822,3.7242,3.6752,3.6491,3.646,3.6445,3.6352,3.6101,3.5816,3.5589,3.5457,3.5261,3.5082,3.4876,3.4298,3.3974,3.3873,3.2634,3.1986,3.1808,3.1085,3.0613,3.0312,3.0115,3.0052,3.0036,2.9867,2.9853,3.0019,2.9867,2.9884,3.0019,3.005,3.005,3.005,3.0007,2.9827,2.9409,2.8956,2.8691,2.8607,2.822,2.7953,2.7953,2.747,2.7226,2.7183,2.6656,2.6395,2.6498,2.6484,2.663,2.6884,2.6951,2.7015,2.7115,2.713,2.7181,2.7181,2.727,2.7351,2.745,2.7594,2.8043,2.899,2.9244,2.9445,2.9606,2.9651,2.9751,2.9907,3.0084,2.9969,3.011,3.0213,3.0246,3.0137,3.0073,3.0182,3.0303,3.0622,3.097,3.1033,3.1485,3.1728,3.1745,3.1675,3.1625,3.135,3.1292,3.1249,3.1057,3.0925,3.0955,3.0837,3.0616,3.0235,2.9783,2.9086,2.8437,2.7777,2.7279,2.6897,2.6502,2.6194,2.6043,2.5962,2.5935,2.5866,4.1983,4.1336,4.0839,3.9988,3.8921,3.8449,3.7841,3.7126,3.6925,3.6816,3.6831,3.6816,3.6708,3.6523,3.6399,3.6148,3.5829,3.5621,3.5477,3.5337,3.4597,3.4059,3.3614,3.2826,3.2272,3.1956,3.157,3.116,3.0792,3.0628,3.0417,3.0249,3.0066,3.005,3.008,3.005,3.0036,3.008,3.008,3.008,3.0111,3.008,3.0019,2.9913,2.9714,2.9586,2.9586,2.9065,2.8767,2.8767,2.8211,2.7925,2.7981,2.7504,2.7079,2.6849,2.6832,2.6922,2.7093,2.713,2.7144,2.7207,2.7192,2.7233,2.731,2.735,2.7401,2.7514,2.7615,2.7925,2.8165,2.8396,2.8643,2.9004,2.9162,2.9365,2.9781,2.9928,2.9955,3.0008,2.9993,2.9993,2.9943,2.9993,2.9993,3.0023,3.0221,3.0342,3.0388,3.06,3.0809,3.0721,3.0667,3.0613,3.0516,3.1076,3.1304,3.0875,3.0609,3.03,3.0094,2.986,2.9496,2.9364,2.8726,2.8247,2.7659,2.7275,2.6922,2.6658,2.6365,2.6367,2.6233,2.626,2.6233,4.0862,4.0261,4.0086,3.9409,3.8402,3.8215,3.7793,3.7198,3.7166,3.7151,3.7151,3.7151,3.703,3.6831,3.68,3.6585,3.6163,3.5958,3.5742,3.5421,3.4708,3.4014,3.3412,3.2879,3.252,3.2224,3.2023,3.1667,3.1204,3.1014,3.0777,3.0447,3.028,3.0189,3.0233,3.0189,3.0203,3.0249,3.0264,3.0264,3.0264,3.0249,3.0264,3.0264,3.0264,3.0203,3.0111,2.9757,2.9558,2.9472,2.8971,2.8656,2.8581,2.8084,2.7642,2.7407,2.7184,2.7119,2.7233,2.7258,2.7284,2.7321,2.7321,2.7372,2.7437,2.7488,2.759,2.769,2.779,2.788,2.788,2.792,2.8097,2.848,2.8622,2.8855,2.9316,2.9418,2.9387,2.9408,2.9419,2.9439,2.9485,2.9469,2.9439,2.9485,2.9652,2.9805,2.9805,3.0018,3.0125,3.014,3.019,3.0194,3.016,3.0588,3.0779,3.0451,3.0278,2.9881,2.9501,2.9196,2.8936,2.882,2.85,2.8048,2.7645,2.7275,2.6983,2.6777,2.6736,2.6724,2.6686,2.6633,2.6606,4.0166,3.955,3.9503,3.9092,3.8429,3.8367,3.805,3.7514,3.748,3.745,3.7421,3.748,3.7271,3.703,3.6969,3.6785,3.646,3.6289,3.5812,3.514,3.4546,3.3933,3.3276,3.2857,3.2612,3.252,3.2437,3.2092,3.1523,3.135,3.1131,3.0791,3.0463,3.0431,3.0582,3.0417,3.0401,3.0522,3.0538,3.0582,3.0612,3.0582,3.0582,3.0582,3.0582,3.0462,3.0172,3.0237,3.024,3.0182,2.984,2.9391,2.8965,2.8408,2.8064,2.808,2.7605,2.7332,2.7446,2.7442,2.7488,2.759,2.76,2.76,2.764,2.7715,2.779,2.7831,2.793,2.802,2.8029,2.8113,2.8168,2.806,2.8166,2.828,2.8324,2.8272,2.8305,2.8501,2.8611,2.8458,2.8458,2.8627,2.8704,2.8781,2.9073,2.9371,2.9417,2.9771,3.0243,3.0263,2.9997,2.9771,2.9913,3.0068,3.0015,2.9974,2.9925,2.9709,2.9324,2.8989,2.8674,2.8487,2.8241,2.7816,2.7735,2.7409,2.7343,2.7152,2.7167,2.7089,2.7026,2.7,2.7011,3.9439,3.8839,3.8823,3.8428,3.7844,3.7826,3.7654,3.7526,3.751,3.751,3.751,3.751,3.7331,3.7076,3.6999,3.6816,3.6523,3.6507,3.6168,3.546,3.4841,3.422,3.364,3.3084,3.273,3.2633,3.2703,3.2428,3.1925,3.1653,3.1423,3.1146,3.0807,3.0702,3.0732,3.0612,3.0538,3.0612,3.0612,3.0612,3.0612,3.0702,3.0732,3.0762,3.0866,3.0895,3.0776,3.0612,3.0507,3.0507,3.0393,3.0075,2.9651,2.9471,2.9287,2.8981,2.84,2.8133,2.8255,2.7946,2.7745,2.7855,2.7865,2.7865,2.788,2.7905,2.793,2.7955,2.8054,2.8177,2.8275,2.8381,2.8356,2.8177,2.8308,2.8405,2.8453,2.8541,2.8628,2.8667,2.8676,2.8676,2.8676,2.8676,2.8652,2.8652,2.8885,2.9009,2.904,2.9217,2.9273,2.9288,2.9224,2.936,2.941,2.9452,2.9427,2.9459,2.9465,2.9429,2.9073,2.8814,2.847,2.8218,2.7956,2.7786,2.7705,2.764,2.759,2.7514,2.7463,2.7386,2.7335,2.7335,2.7361,3.8728,3.816,3.8128,3.7891,3.7526,3.751,3.751,3.751,3.751,3.751,3.751,3.751,3.7331,3.7076,3.6999,3.6816,3.6554,3.6631,3.6227,3.548,3.5072,3.4397,3.3685,3.3185,3.2881,3.273,3.2773,3.2554,3.2066,3.1824,3.1581,3.1365,3.1058,3.091,3.0881,3.0836,3.0791,3.0791,3.0791,3.0791,3.0806,3.0851,3.0925,3.0925,3.1028,3.1087,3.1073,3.0895,3.0762,3.0762,3.0791,3.0631,3.0425,3.0317,3.0132,2.9881,2.9379,2.8963,2.8863,2.8485,2.8132,2.8056,2.798,2.798,2.8005,2.8029,2.8079,2.8152,2.8275,2.842,2.8517,2.8612,2.8589,2.8453,2.8565,2.866,2.87,2.8747,2.8794,2.881,2.881,2.881,2.881,2.881,2.881,2.881,2.881,2.881,2.881,2.8826,2.881,2.881,2.8903,2.8965,2.8864,2.8864,2.8849,2.8916,2.8971,2.8922,2.8735,2.8615,2.8403,2.8246,2.801,2.7936,2.7855,2.784,2.779,2.7781,2.7755,2.7705,2.768,2.763,2.763,3.8065,3.7541,3.751,3.7557,3.751,3.751,3.751,3.751,3.751,3.751,3.751,3.751,3.7331,3.7076,3.703,3.6877,3.6616,3.6677,3.6115,3.5328,3.4989,3.4478,3.332,3.3117,3.2962,3.2827,3.2676,3.2468,3.2163,3.191,3.1667,3.1538,3.1292,3.1191,3.1279,3.122,3.1294,3.1427,3.1368,3.1353,3.1279,3.125,3.122,3.1191,3.1205,3.1234,3.1234,3.122,3.1161,3.1117,3.1073,3.1146,3.1173,3.0839,3.0739,3.0802,3.0334,2.9811,2.9295,2.9128,2.8819,2.8297,2.8221,2.806,2.8109,2.8201,2.8299,2.8396,2.8541,2.8636,2.8747,2.8779,2.8794,2.8818,2.8818,2.8818,2.8818,2.8842,2.8873,2.8873,2.8842,2.8865,2.8912,2.8912,2.8912,2.8912,2.8912,2.8936,2.8936,2.8959,2.8889,2.8912,2.8983,2.9006,2.906,2.906,2.9076,2.9077,2.9045,2.8904,2.8722,2.8596,2.8517,2.8348,2.8201,2.8103,2.8079,2.8152,2.8152,2.8152,2.8143,2.8069,2.802,2.798,2.7955,3.7638,3.751,3.751,3.751,3.751,3.751,3.751,3.751,3.751,3.751,3.751,3.751,3.7375,3.718,3.715,3.7029,3.6923,3.6998,3.6322,3.5237,3.5222,3.4467,3.3374,3.3085,3.2951,3.2749,3.2702,3.2484,3.2219,3.2214,3.2042,3.1868,3.176,3.1868,3.2242,3.2198,3.2422,3.2795,3.284,3.2572,3.2184,3.2243,3.2077,3.1568,3.1683,3.1741,3.1769,3.1769,3.1539,3.1132,3.1278,3.1408,3.1466,3.1515,3.1535,3.1516,3.1101,3.0742,3.0548,3.0136,2.9612,2.9117,2.8989,2.8885,2.8475,2.8468,2.8565,2.8676,2.8708,2.8779,2.8858,2.8952,2.9029,2.9114,2.9147,2.903,2.9037,2.9114,2.9167,2.9183,2.9245,2.9268,2.9268,2.9268,2.9284,2.9268,2.9268,2.9284,2.9222,2.9222,2.9215,2.9291,2.9337,2.9337,2.9321,2.9321,2.9337,2.936,2.9293,2.9154,2.8975,2.8771,2.8723,2.8652,2.8589,2.8517,2.8556,2.8604,2.858,2.8517,2.8493,2.8444,2.8396,2.8356,2.8323,3.751,3.751,3.751,3.751,3.751,3.751,3.751,3.751,3.751,3.751,3.751,3.751,3.7405,3.7194,3.7194,3.7119,3.703,3.715,3.6409,3.5184,3.4608,3.39,3.3258,3.317,3.311,3.3017,3.3165,3.319,3.3106,3.3031,3.2989,3.2949,3.2758,3.2927,3.323,3.3201,3.3306,3.3638,3.3698,3.3502,3.3171,3.2943,3.2686,3.2232,3.215,3.2012,3.1996,3.2012,3.1826,3.1597,3.164,3.171,3.1739,3.1953,3.2066,3.2079,3.1769,3.153,3.1317,3.0986,3.0423,2.9753,2.9586,2.9279,2.8831,2.8684,2.8747,2.8795,2.8834,2.9069,2.9501,2.9809,3.0077,3.0282,3.0132,2.9808,2.9363,2.9321,2.9366,2.9396,2.9434,2.9496,2.9518,2.9518,2.9518,2.9496,2.945,2.9473,2.9473,2.9518,2.9541,2.9563,2.9563,2.9518,2.948,2.948,2.9502,2.9541,2.9541,2.9405,2.9268,2.9037,2.899,2.8967,2.8959,2.8936,2.8936,2.8936,2.8897,2.8834,2.8834,2.8834,2.8771,2.8771,2.8716,3.751,3.751,3.751,3.751,3.751,3.751,3.751,3.751,3.751,3.751,3.751,3.751,3.7405,3.7254,3.7254,3.7195,3.706,3.7053,3.6113,3.4892,3.3846,3.3072,3.3181,3.329,3.3413,3.3497,3.3992,3.407,3.4009,3.4085,3.4191,3.4053,3.3996,3.412,3.4241,3.4241,3.4257,3.447,3.4607,3.45,3.4195,3.3751,3.3308,3.3018,3.2453,3.2224,3.2165,3.2137,3.2109,3.2094,3.2053,3.201,3.2038,3.2163,3.2247,3.2302,3.2336,3.2183,3.1862,3.1765,3.1275,3.0382,3.0136,2.9661,2.924,2.9146,2.9249,2.9218,2.9116,2.973,3.0386,3.1134,3.1358,3.139,3.1502,3.1013,3.0156,2.9701,2.9598,2.9518,2.9541,2.9541,2.9541,2.9563,2.9563,2.9704,2.9681,2.9726,2.9764,2.9764,2.9764,2.972,2.9697,2.9614,2.9614,2.9614,2.9637,2.9697,2.9704,2.9659,2.9614,2.9457,2.9344,2.9275,2.9222,2.9176,2.9176,2.916,2.916,2.9183,2.9206,2.919,2.9167,2.9198,2.919,3.751,3.751,3.751,3.751,3.751,3.751,3.751,3.751,3.751,3.748,3.751,3.751,3.745,3.7405,3.7375,3.7405,3.7237,3.6762,3.5697,3.4142,3.3094,3.2866,3.3106,3.3315,3.3637,3.3947,3.4117,3.4224,3.4284,3.4525,3.452,3.4639,3.4779,3.49,3.5468,3.5501,3.5839,3.6227,3.6259,3.5949,3.5392,3.4788,3.4169,3.3686,3.302,3.271,3.2707,3.2691,3.2691,3.2624,3.2388,3.2247,3.233,3.2456,3.2566,3.2664,3.2734,3.2695,3.264,3.25,3.2262,3.1415,3.1201,3.091,2.9908,3.0199,3.0289,3.0283,3.0537,3.0879,3.1334,3.1582,3.1903,3.2015,3.2078,3.2026,3.1572,3.09,3.0261,2.9891,2.978,2.9808,2.9792,2.9858,2.988,2.9886,2.993,3.0033,3.0011,2.9989,2.9968,2.9902,2.9902,2.988,2.988,2.988,2.9902,2.9924,2.9946,2.9968,2.9908,2.9814,2.9665,2.9547,2.945,2.9428,2.948,2.9457,2.948,2.9525,2.957,2.9598,2.9605,2.9627,2.9649,3.751,3.751,3.751,3.7435,3.7359,3.7359,3.7315,3.7271,3.7271,3.7271,3.7271,3.7271,3.7271,3.7271,3.7271,3.7271,3.699,3.6084,3.5125,3.404,3.2982,3.2588,3.2997,3.3347,3.3758,3.4395,3.4897,3.5065,3.5171,3.5368,3.5686,3.5744,3.5742,3.6007,3.6406,3.6483,3.6595,3.6828,3.6999,3.6812,3.6406,3.5767,3.4847,3.3958,3.3271,3.2912,3.2885,3.2885,3.2885,3.2843,3.2664,3.2554,3.2621,3.2691,3.28,3.287,3.2912,3.2924,3.2978,3.2958,3.2687,3.2097,3.2018,3.1473,3.0903,3.0968,3.1067,3.1022,3.1254,3.167,3.2233,3.2797,3.2943,3.3088,3.3184,3.3141,3.2677,3.172,3.0865,3.0449,3.0223,3.0114,3.0055,3.006,3.006,3.006,3.006,3.0124,3.0141,3.0119,3.0141,3.0141,3.0162,3.0162,3.0162,3.0162,3.0184,3.0184,3.0205,3.0231,3.0253,3.0124,2.9989,2.988,2.9792,2.9836,2.988,2.9836,2.9814,2.9902,2.9951,3.0017,3.0081,3.0087,3.0108,3.751,3.751,3.748,3.7359,3.7224,3.7134,3.7059,3.6969,3.6938,3.6953,3.6969,3.6969,3.703,3.6969,3.6953,3.6876,3.624,3.5405,3.4409,3.3633,3.2577,3.2393,3.2749,3.3246,3.3846,3.4691,3.5408,3.5854,3.6105,3.6507,3.6521,3.6906,3.6997,3.6963,3.7042,3.7135,3.7148,3.7225,3.7241,3.7195,3.6993,3.6397,3.5378,3.4131,3.3568,3.3146,3.3052,3.3005,3.2978,3.2951,3.2951,3.2951,3.2951,3.2924,3.2951,3.2951,3.3005,3.3058,3.3096,3.3091,3.2924,3.2481,3.2507,3.2133,3.1636,3.1704,3.181,3.1845,3.2022,3.2539,3.3243,3.3697,3.4178,3.4333,3.4448,3.4267,3.3618,3.2475,3.1867,3.115,3.0746,3.0517,3.0298,3.0189,3.021,3.0231,3.0231,3.0231,3.0253,3.0269,3.0295,3.0375,3.0396,3.0464,3.0464,3.048,3.048,3.048,3.0485,3.0526,3.0568,3.0485,3.0359,3.0253,3.0189,3.021,3.021,3.0167,3.0189,3.0253,3.0316,3.038,3.0443,3.0526,3.0568,3.751,3.748,3.7329,3.7224,3.7164,3.6892,3.6769,3.6754,3.6677,3.6754,3.6692,3.6877,3.6753,3.6708,3.6754,3.6074,3.5166,3.4479,3.3703,3.2781,3.196,3.1985,3.2452,3.3005,3.3722,3.455,3.5343,3.5852,3.6227,3.6523,3.6877,3.7134,3.7284,3.7389,3.7553,3.7671,3.7671,3.7612,3.7642,3.7612,3.7411,3.678,3.5881,3.4534,3.4128,3.3749,3.334,3.3245,3.3229,3.3256,3.3229,3.3214,3.3176,3.3096,3.3139,3.3176,3.3203,3.3203,3.324,3.3266,3.3235,3.3161,3.316,3.2952,3.2622,3.2809,3.2846,3.2908,3.3274,3.3893,3.4203,3.439,3.4423,3.4546,3.4643,3.4666,3.4447,3.3872,3.2872,3.1918,3.1407,3.0877,3.0601,3.0401,3.0422,3.0443,3.0464,3.0447,3.0485,3.0485,3.0506,3.0568,3.0647,3.0729,3.0773,3.079,3.079,3.079,3.081,3.0831,3.0851,3.0851,3.0753,3.0671,3.0547,3.0485,3.0485,3.0485,3.0526,3.0609,3.0651,3.0729,3.0814,3.0918,3.0995,3.7089,3.7314,3.7224,3.7043,3.6846,3.6662,3.6276,3.5861,3.583,3.5615,3.5416,3.5415,3.563,3.5738,3.583,3.534,3.4759,3.4166,3.3394,3.2445,3.185,3.1586,3.202,3.2586,3.3274,3.4056,3.4922,3.5811,3.6352,3.6708,3.7075,3.7389,3.7537,3.7626,3.7788,3.7831,3.7905,3.7905,3.7905,3.786,3.777,3.7116,3.6246,3.5641,3.4804,3.4227,3.3862,3.3403,3.3324,3.3309,3.3293,3.3293,3.3282,3.3256,3.3245,3.3309,3.3293,3.3319,3.3372,3.3398,3.345,3.3487,3.3581,3.3463,3.3307,3.3473,3.3721,3.3793,3.395,3.4448,3.4537,3.4667,3.4739,3.4811,3.4923,3.5018,3.5021,3.4808,3.3922,3.2741,3.217,3.1561,3.0775,3.0667,3.0667,3.0671,3.0671,3.0671,3.0654,3.0692,3.0692,3.0773,3.0831,3.0892,3.0972,3.0992,3.1032,3.1052,3.1052,3.1092,3.1151,3.1151,3.1151,3.1131,3.1012,3.0838,3.0855,3.0895,3.0915,3.0935,3.0998,3.1078,3.1196,3.131,3.1368,3.665,3.705,3.7117,3.6844,3.6384,3.6214,3.5599,3.4834,3.4728,3.4409,3.391,3.394,3.4273,3.4545,3.459,3.4483,3.4424,3.3683,3.3051,3.239,3.1764,3.1424,3.1676,3.2273,3.3156,3.394,3.5094,3.5815,3.6461,3.6923,3.7315,3.7583,3.773,3.7847,3.7934,3.8004,3.7992,3.7992,3.7992,3.7992,3.7803,3.7406,3.6961,3.6689,3.5593,3.4929,3.4387,3.398,3.3615,3.3461,3.3398,3.3398,3.3372,3.3388,3.3388,3.3388,3.3346,3.3424,3.3503,3.3529,3.3581,3.3658,3.3694,3.3745,3.3806,3.391,3.4109,3.4349,3.4497,3.4643,3.4787,3.4883,3.5018,3.5105,3.5222,3.5314,3.5314,3.5159,3.4908,3.394,3.3093,3.2274,3.1558,3.081,3.079,3.079,3.081,3.081,3.081,3.0831,3.0851,3.0952,3.1012,3.1032,3.1092,3.1131,3.119,3.1266,3.1286,3.1305,3.1383,3.1443,3.1462,3.1443,3.1426,3.1293,3.131,3.1308,3.1291,3.1293,3.137,3.143,3.1524,3.1635,3.1727,3.644,3.6508,3.6839,3.6565,3.578,3.537,3.4621,3.3772,3.3711,3.3589,3.3274,3.344,3.3455,3.3558,3.3418,3.3091,3.278,3.2721,3.2407,3.1882,3.157,3.1553,3.1894,3.2886,3.3517,3.4226,3.5569,3.6369,3.6769,3.7164,3.7478,3.7759,3.8036,3.8151,3.818,3.825,3.8351,3.8351,3.8351,3.8294,3.8135,3.7892,3.7482,3.7022,3.6574,3.6002,3.5037,3.4622,3.4255,3.3744,3.3648,3.3642,3.3658,3.3658,3.3658,3.3633,3.3581,3.3545,3.3658,3.3684,3.371,3.3787,3.3822,3.394,3.4075,3.4275,3.4472,3.4635,3.478,3.4899,3.5024,3.5158,3.5245,3.5314,3.5383,3.5429,3.5475,3.5554,3.5301,3.4972,3.4079,3.3225,3.2391,3.1573,3.0892,3.0912,3.0912,3.0932,3.0972,3.1012,3.1052,3.1131,3.119,3.123,3.123,3.1269,3.1346,3.146,3.1479,3.1498,3.1595,3.1688,3.1707,3.169,3.1673,3.1691,3.1671,3.1653,3.1653,3.1671,3.1691,3.1748,3.1821,3.1948,3.2055,3.5401,3.5666,3.5777,3.548,3.4965,3.4576,3.3895,3.3141,3.2885,3.2571,3.2213,3.2124,3.2332,3.2674,3.2983,3.2958,3.2587,3.2482,3.227,3.1875,3.1726,3.1811,3.2194,3.3025,3.3779,3.4704,3.5727,3.6635,3.7035,3.7403,3.7714,3.8078,3.829,3.8403,3.8391,3.8476,3.8448,3.842,3.8363,3.8363,3.8307,3.8205,3.8007,3.7628,3.7243,3.6653,3.6021,3.5097,3.4728,3.4238,3.3998,3.3694,3.3694,3.3694,3.372,3.3797,3.3745,3.3745,3.3797,3.3822,3.3848,3.3949,3.405,3.4176,3.4333,3.457,3.4756,3.4804,3.5011,3.5158,3.5258,3.5396,3.5503,3.5566,3.5616,3.5684,3.5751,3.5778,3.5696,3.5416,3.51,3.4244,3.3413,3.2578,3.1774,3.1326,3.1278,3.123,3.1249,3.1288,3.1344,3.1363,3.1402,3.1404,3.1404,3.1423,3.1538,3.1614,3.167,3.1726,3.1819,3.1893,3.1911,3.1947,3.1983,3.2001,3.2001,3.1965,3.1929,3.1965,3.2019,3.2108,3.2161,3.2232,3.237,3.427,3.4647,3.4867,3.4685,3.4197,3.3949,3.3303,3.242,3.2198,3.1797,3.1353,3.122,3.1531,3.2005,3.2481,3.2542,3.2522,3.2507,3.2364,3.2175,3.2122,3.2191,3.2665,3.3344,3.4288,3.494,3.6277,3.7078,3.7555,3.7844,3.8119,3.8391,3.8544,3.8611,3.8628,3.8588,3.8532,3.8391,3.8391,3.8391,3.8363,3.8363,3.8323,3.8101,3.7738,3.7279,3.6857,3.5926,3.5235,3.4764,3.4175,3.3838,3.3838,3.3848,3.3873,3.3949,3.3975,3.4,3.4,3.4,3.4025,3.4151,3.4349,3.4497,3.4594,3.4851,3.5001,3.5048,3.5228,3.5389,3.5509,3.5622,3.5711,3.5822,3.5932,3.5997,3.6062,3.6084,3.611,3.6002,3.5717,3.539,3.4538,3.3659,3.2811,3.1978,3.1669,3.1534,3.15,3.15,3.1519,3.1519,3.1576,3.1614,3.1634,3.1653,3.1744,3.18,3.1855,3.191,3.1983,3.2108,3.2161,3.2196,3.2249,3.2301,3.2301,3.2249,3.2214,3.2284,3.2353,3.2422,3.2506,3.2557,3.2657,3.3388,3.3519,3.4584,3.4529,3.3733,3.3519,3.2749,3.1775,3.1628,3.1469,3.119,3.1132,3.1249,3.147,3.1721,3.1896,3.2088,3.2057,3.2239,3.2361,3.2398,3.2636,3.3177,3.4091,3.5046,3.5719,3.6855,3.7738,3.8234,3.8359,3.8432,3.8448,3.8738,3.8777,3.8766,3.8683,3.856,3.8464,3.842,3.8408,3.8408,3.8391,3.8379,3.8379,3.8266,3.7991,3.73,3.6465,3.5829,3.5263,3.4471,3.4092,3.4075,3.4059,3.4101,3.4126,3.4201,3.4226,3.4226,3.4176,3.4176,3.4349,3.457,3.4804,3.4883,3.5128,3.5274,3.5356,3.5532,3.5661,3.5778,3.5888,3.5997,3.6084,3.6208,3.6229,3.6293,3.6377,3.6419,3.6482,3.6291,3.5942,3.5526,3.4624,3.3492,3.2584,3.1842,3.1688,3.1632,3.1632,3.1632,3.167,3.1744,3.1801,3.1858,3.1912,3.1947,3.1983,3.2037,3.209,3.2108,3.2232,3.2353,3.2405,3.2456,3.254,3.2589,3.2556,3.2539,3.2607,3.2657,3.2724,3.2805,3.2868,3.2963,3.3293,3.3356,3.3813,3.374,3.3299,3.3032,3.2557,3.2094,3.1881,3.1625,3.1365,3.1365,3.1496,3.1668,3.1754,3.1966,3.2342,3.248,3.2617,3.2796,3.2947,3.3343,3.4002,3.4778,3.5696,3.6474,3.7539,3.8164,3.8363,3.8667,3.8805,3.8832,3.8985,3.8969,3.8914,3.8777,3.8672,3.856,3.852,3.8492,3.8408,3.8391,3.8391,3.8391,3.8391,3.8278,3.7857,3.6826,3.6281,3.5727,3.4827,3.4446,3.4284,3.4325,3.4325,3.4325,3.4399,3.4456,3.4497,3.4415,3.4448,3.4643,3.4811,3.4977,3.5165,3.5389,3.5509,3.5667,3.5844,3.5993,3.6088,3.6233,3.6356,3.6416,3.6457,3.6499,3.6523,3.6626,3.6667,3.6708,3.6667,3.6467,3.6035,3.5551,3.4343,3.319,3.2462,3.1855,3.1818,3.1783,3.1801,3.1819,3.191,3.1982,3.202,3.2073,3.2126,3.2179,3.2232,3.2249,3.2301,3.2404,3.2506,3.259,3.2658,3.2721,3.2786,3.2834,3.2834,3.282,3.2868,3.2965,3.306,3.3168,3.3226,3.3293,3.3293,3.3293,3.3229,3.3069,3.285,3.2629,3.2453,3.2274,3.2023,3.1766,3.1766,3.1936,3.2148,3.2231,3.248,3.2792,3.298,3.3118,3.3224,3.3435,3.3948,3.4675,3.5416,3.6158,3.7062,3.7919,3.8476,3.856,3.8832,3.8969,3.9094,3.9218,3.9175,3.9094,3.8914,3.8794,3.8683,3.8644,3.8644,3.8516,3.8516,3.8532,3.8532,3.8504,3.8488,3.8163,3.7411,3.6722,3.614,3.5442,3.4725,3.453,3.448,3.448,3.4521,3.4603,3.4717,3.4865,3.4741,3.4724,3.4811,3.5071,3.5234,3.5441,3.5644,3.5861,3.5937,3.6165,3.6335,3.6406,3.6506,3.6585,3.6626,3.6751,3.6791,3.6849,3.6891,3.6908,3.6928,3.6888,3.6873,3.6383,3.5824,3.4552,3.3413,3.2521,3.2052,3.1983,3.1983,3.2001,3.2019,3.2073,3.2143,3.2196,3.2232,3.2301,3.237,3.2404,3.2439,3.2489,3.2606,3.2672,3.2721,3.282,3.2898,3.2977,3.3042,3.3026,3.2961,3.3057,3.3183,3.3286,3.339,3.3419,3.3293,3.3293,3.3293,3.3229,3.3112,3.3112,3.2877,3.2602,3.2547,3.2465,3.2315,3.2342,3.2492,3.2711,3.2738,3.298,3.3303,3.3435,3.3529,3.3617,3.386,3.43,3.5037,3.583,3.6619,3.736,3.8142,3.8655,3.8766,3.8942,3.9121,3.9218,3.9272,3.9272,3.9272,3.9094,3.8942,3.8832,3.8805,3.8777,3.875,3.8722,3.8722,3.8711,3.8628,3.8628,3.8455,3.784,3.7198,3.6764,3.5964,3.5276,3.4841,3.466,3.4611,3.4611,3.4877,3.5304,3.5859,3.5304,3.5203,3.5224,3.5555,3.5667,3.5701,3.591,3.6187,3.6259,3.6444,3.6564,3.6667,3.6748,3.6829,3.6888,3.7009,3.7048,3.7068,3.7087,3.7105,3.7085,3.7201,3.717,3.6693,3.6001,3.4707,3.3597,3.2649,3.2248,3.2196,3.2197,3.2232,3.2249,3.2284,3.2301,3.2353,3.2422,3.2489,3.2556,3.2589,3.2606,3.2657,3.2739,3.2804,3.2884,3.2963,3.3075,3.315,3.3241,3.3241,3.3238,3.3301,3.3408,3.352,3.3591,3.3573,3.3293,3.3293,3.3293,3.3214,3.3123,3.3219,3.3054,3.2812,3.266,3.2578,3.2578,3.2648,3.2893,3.3065,3.3156,3.333,3.3591,3.3761,3.3838,3.387,3.4285,3.5136,3.5818,3.6416,3.7203,3.7961,3.8551,3.8722,3.8777,3.9023,3.9175,3.9299,3.9315,3.9315,3.9299,3.9202,3.9121,3.8969,3.8914,3.8887,3.8805,3.8805,3.8805,3.8805,3.875,3.875,3.8799,3.8106,3.7701,3.7373,3.6585,3.591,3.5537,3.5387,3.5134,3.5257,3.5572,3.6417,3.7033,3.7013,3.6734,3.6447,3.6173,3.6242,3.6143,3.617,3.6381,3.6588,3.6731,3.6869,3.697,3.7085,3.7143,3.7143,3.722,3.722,3.7239,3.7239,3.7239,3.7239,3.7297,3.7334,3.7033,3.6327,3.5137,3.4182,3.3318,3.265,3.2456,3.2438,3.2472,3.2489,3.2489,3.2506,3.254,3.259,3.2607,3.2639,3.2706,3.2773,3.2821,3.2868,3.2948,3.3008,3.3137,3.3232,3.3334,3.3419,3.3488,3.353,3.3563,3.3577,3.3629,3.3671,3.3684,3.3166,3.2987,3.2945,3.2867,3.2793,3.3066,3.3096,3.2897,3.2773,3.2703,3.2746,3.2897,3.3085,3.3282,3.344,3.3555,3.3771,3.3899,3.3975,3.4023,3.4496,3.5273,3.6098,3.6794,3.736,3.8184,3.8628,3.8805,3.8805,3.9121,3.9272,3.9299,3.9315,3.9315,3.9299,3.9272,3.9228,3.9121,3.9077,3.905,3.9023,3.8996,3.8969,3.8969,3.8942,3.8914,3.8827,3.8574,3.819,3.7919,3.7434,3.6762,3.6601,3.6386,3.6162,3.6411,3.7064,3.7855,3.8353,3.8975,3.86,3.8025,3.7411,3.6925,3.6715,3.6655,3.6702,3.6849,3.7027,3.7124,3.7201,3.7333,3.7353,3.7353,3.7391,3.7391,3.741,3.7428,3.7429,3.7411,3.7411,3.7447,3.7359,3.6524,3.5633,3.4814,3.405,3.3396,3.2762,3.2673,3.2655,3.2655,3.2639,3.2622,3.2639,3.2706,3.2739,3.2755,3.282,3.2902,3.2948,3.3011,3.307,3.3162,3.3274,3.3382,3.3477,3.3591,3.3675,3.3744,3.3748,3.3748,3.3762,3.3762,3.3788,3.2835,3.2307,3.226,3.2173,3.2154,3.2745,3.2978,3.2885,3.287,3.287,3.287,3.2962,3.315,3.3319,3.3555,3.372,3.3873,3.4,3.405,3.414,3.4408,3.5266,3.5979,3.6529,3.7388,3.8135,3.8628,3.8805,3.8832,3.9137,3.9299,3.9315,3.9315,3.9315,3.9315,3.9315,3.9272,3.9245,3.9245,3.9218,3.9191,3.9245,3.9218,3.9175,3.9121,3.9137,3.9115,3.8999,3.8791,3.8548,3.8311,3.8053,3.7866,3.7711,3.7766,3.8136,3.8849,3.9249,3.9738,4.0325,4.0326,3.957,3.8528,3.7923,3.7417,3.7216,3.7154,3.7156,3.7239,3.7297,3.7371,3.7428,3.7484,3.7521,3.7576,3.7594,3.7613,3.7631,3.7631,3.7649,3.7667,3.7667,3.7632,3.695,3.6145,3.5609,3.4841,3.4005,3.337,3.2789,3.2771,3.2753,3.2737,3.2721,3.2787,3.2834,3.2866,3.2898,3.2961,3.3057,3.3086,3.3132,3.3223,3.3316,3.3393,3.3495,3.3619,3.3744,3.3894,3.3979,3.4244,3.4005,3.401,3.3926,3.3934,3.1672,3.1523,3.1417,3.1548,3.1883,3.23,3.2511,3.2523,3.2551,3.2551,3.2551,3.2827,3.3043,3.3309,3.3372,3.3607,3.3813,3.3949,3.4025,3.4163,3.4489,3.5396,3.6108,3.6675,3.7517,3.8163,3.8606,3.8767,3.8887,3.9148,3.9315,3.9315,3.9315,3.9315,3.9315,3.9315,3.9315,3.9315,3.9315,3.9315,3.9315,3.9315,3.9315,3.9272,3.9245,3.9299,3.9379,3.9379,3.9251,3.9298,3.8882,3.8597,3.8678,3.8299,3.8187,3.9186,3.9641,4.0008,4.0746,4.1127,4.1173,4.0936,4.0106,3.9038,3.8377,3.7912,3.7743,3.7651,3.7606,3.7681,3.7648,3.7649,3.7667,3.7703,3.7757,3.7757,3.7775,3.7775,3.7793,3.781,3.7828,3.7863,3.7808,3.7359,3.6605,3.6245,3.5653,3.4813,3.4014,3.3448,3.2936,3.2918,3.2882,3.2882,3.2945,3.3024,3.3039,3.3055,3.3132,3.3193,3.3271,3.3331,3.3404,3.3531,3.3723,3.3766,3.3739,3.4026,3.4542,3.4784,3.499,3.4583,3.4269,3.4282,3.4129,3.1098,3.0812,3.0772,3.0992,3.1379,3.1919,3.2107,3.2092,3.2191,3.2247,3.2274,3.2566,3.2812,3.2931,3.3187,3.3424,3.3658,3.3848,3.3949,3.4129,3.4586,3.5172,3.587,3.6448,3.7102,3.7802,3.8379,3.8586,3.8843,3.9121,3.9315,3.9315,3.9315,3.9315,3.9315,3.9315,3.9315,3.9315,3.9315,3.9315,3.9315,3.9315,3.9325,3.9379,3.9379,3.9475,3.958,3.959,3.9668,3.9755,3.9337,3.9387,3.9559,3.9409,3.945,4.032,4.0555,4.0904,4.1375,4.1552,4.1688,4.1648,4.136,4.057,3.9688,3.9111,3.8631,3.8268,3.8184,3.8097,3.799,3.7899,3.7899,3.7899,3.7899,3.7899,3.7899,3.7899,3.7916,3.7933,3.7986,3.8021,3.7822,3.7426,3.7101,3.6739,3.636,3.582,3.4963,3.4181,3.3488,3.3096,3.3075,3.3073,3.3117,3.3162,3.3196,3.3226,3.3283,3.336,3.3452,3.3564,3.3658,3.3894,3.416,3.4265,3.4502,3.4969,3.5417,3.5679,3.5871,3.5668,3.5334,3.5019,3.4741,3.0775,3.0141,3.0299,3.0467,3.0706,3.1537,3.1792,3.1581,3.184,3.1953,3.1994,3.2247,3.2398,3.2563,3.292,3.316,3.3424,3.3658,3.3848,3.3924,3.4198,3.4785,3.5333,3.5547,3.6486,3.7331,3.7978,3.8453,3.8962,3.9218,3.9315,3.9315,3.9315,3.9315,3.9315,3.9315,3.9315,3.9315,3.9299,3.9299,3.9325,3.9325,3.9352,3.9484,3.9537,3.959,3.972,3.9755,3.9807,3.9884,3.9969,4.0095,4.0366,4.0644,4.0897,4.1105,4.1211,4.1464,4.1701,4.1845,4.1966,4.2009,4.2012,4.16,4.0933,4.0144,3.9605,3.9132,3.9011,3.8959,3.8887,3.8563,3.8436,3.831,3.8202,3.8129,3.8021,3.8021,3.8021,3.8055,3.8089,3.8106,3.8105,3.7745,3.767,3.7286,3.7084,3.6721,3.6057,3.5167,3.4398,3.3682,3.3574,3.3535,3.3241,3.3286,3.3349,3.3393,3.3506,3.3724,3.3945,3.398,3.3945,3.4504,3.5132,3.5259,3.5497,3.5884,3.6252,3.6655,3.6792,3.6805,3.6526,3.6105,3.5652,2.9649,2.9414,2.9903,3.0223,3.0515,3.1106,3.1528,3.1697,3.164,3.1625,3.1682,3.1938,3.215,3.2302,3.2551,3.2823,3.316,3.3477,3.371,3.3924,3.4126,3.4559,3.5279,3.542,3.6076,3.6823,3.7584,3.8411,3.9069,3.9272,3.9315,3.9315,3.9315,3.9315,3.9315,3.9315,3.9315,3.9315,3.9342,3.9379,3.9432,3.9458,3.9484,3.9616,3.9677,3.9807,3.991,4.0011,4.0087,4.0188,4.0313,4.0461,4.0631,4.0929,4.1082,4.1209,4.1453,4.1692,4.1884,4.2034,4.2139,4.232,4.2343,4.2318,4.1944,4.1219,4.0613,4.0177,3.9912,3.9878,3.968,3.93,3.8938,3.8739,3.8522,3.8359,3.816,3.8124,3.8123,3.814,3.8174,3.8191,3.8207,3.8188,3.8148,3.8107,3.8099,3.7824,3.7228,3.6456,3.56,3.4917,3.4416,3.4214,3.3813,3.3749,3.3992,3.3942,3.3982,3.4217,3.4526,3.4862,3.5193,3.5712,3.6207,3.6311,3.6408,3.6571,3.6963,3.7497,3.772,3.7733,3.7759,3.7442,3.6925,2.9305,2.9285,2.9809,3.0257,3.0613,3.1082,3.15,3.1807,3.1698,3.1582,3.1523,3.1783,3.194,3.2094,3.2302,3.2535,3.2931,3.3303,3.3565,3.3848,3.4174,3.4537,3.493,3.521,3.5703,3.6386,3.755,3.849,3.9123,3.9315,3.9315,3.9315,3.9315,3.9315,3.9315,3.9315,3.9315,3.9315,3.9369,3.9475,3.9563,3.9563,3.9668,3.9781,3.991,4.002,4.0171,4.0271,4.0337,4.0412,4.0485,4.0576,4.0745,4.0953,4.1105,4.1272,4.1498,4.1797,4.1966,4.2136,4.2284,4.2425,4.2503,4.2414,4.2496,4.1827,4.1526,4.1121,4.0887,4.0835,4.033,3.9913,3.9497,3.9208,3.8972,3.8755,3.843,3.8175,3.8175,3.8175,3.8209,3.8207,3.8224,3.8257,3.8252,3.8281,3.8364,3.8399,3.7924,3.7593,3.6804,3.6175,3.5672,3.5272,3.4996,3.4899,3.4929,3.4805,3.457,3.5105,3.5607,3.6081,3.6522,3.6774,3.7039,3.7285,3.7399,3.7536,3.7953,3.8544,3.865,3.8663,3.8651,3.8602,3.8215,2.9339,2.9423,2.9816,3.0272,3.0738,3.1155,3.1551,3.1868,3.1881,3.1754,3.1638,3.1783,3.1813,3.1912,3.2163,3.2398,3.2699,3.3145,3.345,3.3771,3.4126,3.4423,3.4595,3.4774,3.5382,3.6233,3.7299,3.8219,3.899,3.9183,3.9315,3.9315,3.9315,3.9315,3.9315,3.9299,3.9299,3.9369,3.9448,3.9563,3.9616,3.9642,3.9807,3.9986,4.0163,4.0271,4.0461,4.0558,4.0558,4.0607,4.0697,4.0721,4.0793,4.0976,4.1105,4.1272,4.1565,4.1819,4.2026,4.2199,4.2325,4.2465,4.2503,4.2566,4.2629,4.2527,4.2224,4.2045,4.1829,4.1576,4.1089,4.0601,4.022,3.984,3.9586,3.9332,3.8915,3.8499,3.8443,3.8425,3.8333,3.8366,3.8327,3.8342,3.8354,3.8382,3.8433,3.8433,3.8376,3.8204,3.7731,3.7332,3.697,3.6587,3.6042,3.5841,3.571,3.5674,3.5563,3.6163,3.6713,3.7202,3.7482,3.7482,3.7746,3.8115,3.8446,3.8634,3.9095,3.932,3.9264,3.9183,3.9208,3.9189,3.9283,2.9057,2.9608,2.9617,2.9871,3.0296,3.0814,3.1296,3.1697,3.2005,3.2107,3.2051,3.1953,3.1826,3.1553,3.1896,3.2191,3.2508,3.2958,3.3382,3.372,3.4101,3.4349,3.4521,3.4724,3.529,3.61,3.697,3.7656,3.8626,3.91,3.9315,3.9315,3.9315,3.9315,3.9315,3.9325,3.9352,3.9448,3.9511,3.9642,3.9798,3.9875,3.9986,4.0138,4.0263,4.051,4.0721,4.0799,4.0888,4.0912,4.0912,4.0871,4.0935,4.1029,4.1129,4.1295,4.1587,4.1819,4.203,4.2222,4.2387,4.2548,4.2588,4.2686,4.2765,4.2824,4.2645,4.2645,4.2482,4.2482,4.2085,4.1633,4.1216,4.0908,4.0636,4.0292,3.9929,3.9529,3.929,3.9034,3.8794,3.87,3.8551,3.851,3.8449,3.8494,3.8562,3.8596,3.8596,3.8556,3.852,3.8263,3.7989,3.7223,3.6391,3.6427,3.6351,3.6351,3.654,3.7068,3.766,3.834,3.8547,3.8382,3.8633,3.9052,3.9339,3.9314,3.9438,3.9551,3.9599,3.9604,3.9637,3.9619,3.9583]}]]